[[{"header":{"parameterUnit":"m.s-1","parameterCategory":1,"la1":30.6,"la2":29.2853,"lo1":-89.7004,"lo2":-87.6739,"dy":0.0162,"dx":0.0183,"nx":112,"ny":82,"refTime":"2023-06-17T00:00:00:Z","depth":0,"parameterNumber":2,"parameterNumberName":"U-component_of_WINDS"},"data":[0.0,0.0,0.0,0.0,0.0,0.0,0.0,0.0,0.0,0.0,0.0,0.0,0.0,0.0,0.0,0.0,0.0,0.0,0.0,0.0,0.0,0.0,0.0,0.0,0.0,0.0,0.0,0.0,0.0,0.0,0.0,0.0,0.0,0.0,0.0,0.0,0.0,0.0,0.0,0.0,0.0,0.0,0.0,0.0,0.0,0.0,0.0,0.0,0.0,0.0,0.0,0.0,0.0,0.0,0.0,0.0,0.0,0.0,0.0,0.0,0.0,0.0,0.0,0.0,0.0,0.0,0.0,0.0,0.0,0.0,0.0,0.0,0.0,0.0,0.0,0.0,0.0,0.0,0.0,0.0,0.0,0.0,0.0,0.0,0.0,0.0,0.0,0.0,0.0,0.0,0.0,-3.7846,-4.574,-5.0933,-5.1462,-5.051,-4.6441,-3.8315,0.0,0.0,0.0,0.0,0.0,0.0,0.0,0.0,0.0,0.0,0.0,0.0,0.0,0.0,0.0,0.0,0.0,0.0,0.0,0.0,0.0,0.0,0.0,0.0,0.0,0.0,0.0,0.0,0.0,0.0,0.0,0.0,0.0,0.0,0.0,0.0,0.0,0.0,0.0,0.0,0.0,0.0,0.0,0.0,0.0,0.0,0.0,0.0,0.0,0.0,0.0,0.0,0.0,0.0,0.0,0.0,0.0,0.0,0.0,0.0,0.0,0.0,0.0,0.0,0.0,0.0,0.0,0.0,0.0,0.0,0.0,0.0,0.0,0.0,0.0,0.0,0.0,0.0,0.0,0.0,0.0,0.0,0.0,0.0,0.0,0.0,0.0,0.0,0.0,0.0,0.0,0.0,0.0,0.0,0.0,0.0,0.0,0.0,0.0,0.0,0.0,0.0,0.0,0.0,-3.7615,-4.4615,-4.8548,-5.0442,-4.9817,-4.7702,-4.3662,-3.7308,0.0,0.0,0.0,0.0,0.0,0.0,0.0,0.0,0.0,0.0,0.0,0.0,0.0,0.0,0.0,0.0,0.0,0.0,0.0,0.0,0.0,0.0,0.0,0.0,0.0,0.0,0.0,0.0,0.0,0.0,0.0,0.0,0.0,0.0,0.0,0.0,0.0,0.0,0.0,0.0,0.0,0.0,0.0,0.0,0.0,0.0,0.0,0.0,0.0,0.0,0.0,0.0,0.0,0.0,0.0,0.0,0.0,0.0,0.0,0.0,0.0,0.0,0.0,0.0,0.0,0.0,0.0,0.0,0.0,0.0,0.0,0.0,0.0,0.0,0.0,0.0,0.0,0.0,0.0,0.0,0.0,0.0,0.0,0.0,0.0,0.0,0.0,0.0,0.0,0.0,0.0,0.0,0.0,0.0,0.0,0.0,0.0,0.0,0.0,0.0,0.0,0.0,0.0,-3.5383,-3.9777,-4.5586,-4.8048,-4.9125,-4.874,-4.6355,-4.2739,-3.7738,-3.6122,0.0,0.0,0.0,0.0,0.0,0.0,0.0,0.0,0.0,0.0,0.0,0.0,0.0,0.0,0.0,0.0,0.0,0.0,0.0,0.0,0.0,0.0,0.0,0.0,0.0,0.0,0.0,0.0,0.0,0.0,0.0,0.0,0.0,0.0,0.0,0.0,0.0,0.0,0.0,0.0,0.0,0.0,0.0,0.0,0.0,0.0,0.0,0.0,0.0,0.0,0.0,0.0,0.0,0.0,0.0,0.0,0.0,0.0,0.0,0.0,0.0,0.0,0.0,0.0,0.0,0.0,0.0,0.0,0.0,0.0,0.0,0.0,0.0,0.0,0.0,0.0,0.0,0.0,0.0,0.0,0.0,0.0,0.0,0.0,0.0,0.0,0.0,0.0,0.0,0.0,0.0,0.0,0.0,0.0,0.0,0.0,0.0,0.0,0.0,0.0,0.0,0.0,-3.8507,-4.1131,-4.5171,-4.6932,-4.774,-4.7548,-4.4816,-4.1585,-3.793,-3.4896,0.0,0.0,0.0,0.0,0.0,0.0,0.0,0.0,0.0,0.0,0.0,0.0,0.0,0.0,0.0,0.0,0.0,0.0,0.0,0.0,0.0,0.0,0.0,0.0,0.0,0.0,0.0,0.0,0.0,0.0,0.0,0.0,0.0,0.0,0.0,0.0,0.0,0.0,0.0,0.0,0.0,0.0,0.0,0.0,0.0,0.0,0.0,0.0,0.0,0.0,0.0,0.0,0.0,0.0,0.0,0.0,0.0,0.0,0.0,0.0,0.0,0.0,0.0,0.0,0.0,0.0,0.0,0.0,0.0,0.0,0.0,0.0,0.0,0.0,0.0,0.0,0.0,0.0,0.0,0.0,0.0,0.0,0.0,0.0,0.0,0.0,0.0,0.0,0.0,0.0,0.0,0.0,0.0,0.0,0.0,0.0,0.0,0.0,0.0,0.0,0.0,0.0,-3.94,-4.1747,-4.5248,-4.6432,-4.6663,-4.5825,-4.2016,-3.8815,-3.6923,-3.2781,0.0,0.0,0.0,0.0,0.0,0.0,0.0,0.0,0.0,0.0,0.0,0.0,0.0,0.0,0.0,0.0,0.0,0.0,0.0,0.0,0.0,0.0,0.0,0.0,0.0,0.0,0.0,0.0,0.0,0.0,0.0,0.0,0.0,0.0,0.0,0.0,0.0,0.0,0.0,0.0,0.0,0.0,0.0,0.0,0.0,0.0,0.0,0.0,0.0,0.0,0.0,0.0,0.0,0.0,0.0,0.0,0.0,0.0,0.0,0.0,0.0,0.0,0.0,0.0,0.0,0.0,0.0,0.0,0.0,0.0,0.0,0.0,0.0,0.0,0.0,0.0,0.0,0.0,0.0,0.0,0.0,0.0,0.0,0.0,0.0,0.0,0.0,0.0,0.0,0.0,0.0,0.0,0.0,0.0,0.0,0.0,0.0,0.0,0.0,0.0,0.0,0.0,-3.82,-4.0046,0.0,-4.4008,-4.4393,-4.4085,-4.1131,-3.8777,-3.7584,0.0,0.0,0.0,0.0,0.0,0.0,0.0,0.0,0.0,0.0,0.0,0.0,0.0,0.0,0.0,0.0,0.0,0.0,0.0,0.0,0.0,0.0,0.0,0.0,0.0,0.0,0.0,0.0,0.0,0.0,0.0,0.0,0.0,0.0,0.0,0.0,0.0,0.0,0.0,0.0,0.0,0.0,0.0,0.0,0.0,0.0,0.0,0.0,0.0,0.0,0.0,0.0,0.0,0.0,0.0,0.0,0.0,0.0,0.0,0.0,0.0,0.0,0.0,0.0,0.0,0.0,0.0,0.0,0.0,0.0,0.0,0.0,0.0,0.0,0.0,0.0,0.0,0.0,0.0,0.0,0.0,0.0,0.0,0.0,0.0,0.0,0.0,0.0,0.0,0.0,0.0,0.0,0.0,0.0,0.0,0.0,0.0,0.0,0.0,0.0,0.0,0.0,-3.7117,-3.7815,-3.8969,0.0,-4.2316,-4.2701,-4.2701,-3.9623,-3.7777,-3.8007,0.0,0.0,0.0,0.0,0.0,0.0,0.0,0.0,0.0,0.0,0.0,0.0,0.0,0.0,0.0,0.0,0.0,0.0,0.0,0.0,0.0,0.0,0.0,0.0,0.0,0.0,0.0,0.0,0.0,0.0,0.0,0.0,0.0,0.0,0.0,0.0,0.0,0.0,0.0,0.0,0.0,0.0,0.0,0.0,0.0,0.0,0.0,0.0,0.0,0.0,0.0,0.0,0.0,0.0,0.0,0.0,0.0,0.0,0.0,0.0,0.0,0.0,0.0,0.0,0.0,0.0,0.0,0.0,0.0,0.0,0.0,0.0,0.0,0.0,0.0,0.0,0.0,0.0,0.0,0.0,0.0,0.0,0.0,0.0,0.0,0.0,0.0,0.0,0.0,0.0,0.0,0.0,0.0,0.0,0.0,0.0,0.0,0.0,0.0,0.0,0.0,0.0,-3.877,-3.8546,-3.8969,-4.15,-4.1769,-4.1769,-4.1769,-3.7123,-3.5283,0.0,0.0,0.0,0.0,0.0,0.0,0.0,0.0,0.0,0.0,0.0,0.0,0.0,0.0,0.0,0.0,0.0,0.0,0.0,0.0,0.0,0.0,0.0,0.0,0.0,0.0,0.0,0.0,0.0,0.0,0.0,0.0,0.0,0.0,0.0,0.0,0.0,0.0,0.0,0.0,0.0,0.0,0.0,0.0,0.0,0.0,0.0,0.0,0.0,0.0,0.0,0.0,0.0,0.0,0.0,0.0,0.0,0.0,0.0,0.0,0.0,0.0,0.0,0.0,0.0,0.0,0.0,0.0,0.0,0.0,0.0,0.0,0.0,0.0,0.0,0.0,0.0,0.0,0.0,0.0,0.0,0.0,0.0,0.0,0.0,0.0,0.0,0.0,0.0,0.0,0.0,0.0,0.0,0.0,0.0,0.0,0.0,0.0,0.0,0.0,0.0,0.0,0.0,-3.877,-3.8007,-3.8046,-4.0623,-4.0893,-4.0662,-4.0085,-3.7007,-3.5699,-3.7007,0.0,0.0,0.0,0.0,0.0,0.0,0.0,0.0,0.0,0.0,0.0,0.0,0.0,0.0,0.0,0.0,0.0,0.0,0.0,0.0,0.0,0.0,0.0,0.0,0.0,0.0,0.0,0.0,0.0,0.0,0.0,0.0,0.0,0.0,0.0,0.0,0.0,0.0,0.0,0.0,0.0,0.0,0.0,0.0,0.0,0.0,0.0,0.0,0.0,0.0,0.0,0.0,0.0,0.0,0.0,0.0,0.0,0.0,0.0,0.0,0.0,0.0,0.0,0.0,0.0,0.0,0.0,0.0,0.0,0.0,0.0,0.0,0.0,0.0,0.0,0.0,0.0,0.0,0.0,0.0,0.0,0.0,0.0,0.0,0.0,0.0,0.0,0.0,0.0,0.0,0.0,0.0,0.0,0.0,0.0,0.0,0.0,0.0,0.0,0.0,0.0,0.0,-3.9231,-3.7969,-3.7546,-3.9785,-4.0015,-3.9669,-3.8854,-3.6469,-3.5287,-3.6021,0.0,0.0,0.0,0.0,0.0,0.0,0.0,0.0,0.0,0.0,0.0,0.0,0.0,0.0,0.0,0.0,0.0,0.0,0.0,0.0,0.0,0.0,0.0,0.0,0.0,0.0,0.0,0.0,0.0,0.0,0.0,0.0,0.0,0.0,0.0,0.0,0.0,0.0,0.0,0.0,0.0,0.0,0.0,0.0,0.0,0.0,0.0,0.0,0.0,0.0,0.0,0.0,0.0,0.0,0.0,0.0,0.0,0.0,0.0,0.0,0.0,0.0,0.0,0.0,0.0,0.0,0.0,0.0,0.0,0.0,0.0,0.0,0.0,0.0,0.0,0.0,0.0,0.0,0.0,0.0,0.0,0.0,0.0,0.0,0.0,0.0,0.0,0.0,0.0,0.0,0.0,0.0,0.0,0.0,0.0,0.0,0.0,0.0,0.0,0.0,0.0,0.0,-3.993,-3.8277,-3.7353,-3.913,-3.9246,-3.8815,-3.7969,-3.5615,-3.4386,-3.4945,0.0,0.0,0.0,0.0,0.0,0.0,0.0,0.0,0.0,0.0,0.0,0.0,0.0,0.0,0.0,0.0,0.0,0.0,0.0,0.0,0.0,0.0,0.0,0.0,0.0,0.0,0.0,0.0,0.0,0.0,0.0,0.0,0.0,0.0,0.0,0.0,0.0,0.0,0.0,0.0,0.0,0.0,0.0,0.0,0.0,0.0,0.0,0.0,0.0,0.0,0.0,0.0,0.0,0.0,0.0,0.0,0.0,0.0,0.0,0.0,-4.0969,0.0,0.0,0.0,0.0,0.0,0.0,0.0,0.0,0.0,0.0,0.0,0.0,0.0,0.0,0.0,0.0,0.0,0.0,0.0,0.0,0.0,0.0,0.0,0.0,0.0,0.0,0.0,0.0,0.0,0.0,0.0,0.0,0.0,0.0,0.0,0.0,0.0,0.0,0.0,0.0,0.0,-4.0038,-3.8277,-3.7353,-3.913,-3.87,-3.793,-3.7038,-3.5085,-3.3945,-3.4058,0.0,0.0,0.0,0.0,0.0,0.0,0.0,0.0,0.0,0.0,0.0,0.0,0.0,0.0,0.0,0.0,0.0,0.0,0.0,0.0,0.0,0.0,0.0,0.0,0.0,0.0,0.0,0.0,0.0,0.0,0.0,0.0,0.0,0.0,0.0,0.0,0.0,0.0,0.0,0.0,0.0,0.0,0.0,0.0,0.0,0.0,0.0,0.0,0.0,0.0,0.0,0.0,0.0,0.0,0.0,0.0,0.0,0.0,0.0,0.0,0.0,-4.1347,0.0,0.0,0.0,0.0,0.0,0.0,0.0,0.0,0.0,0.0,0.0,0.0,0.0,0.0,0.0,0.0,0.0,0.0,0.0,0.0,0.0,0.0,0.0,0.0,0.0,0.0,0.0,0.0,0.0,0.0,0.0,0.0,0.0,0.0,0.0,0.0,0.0,0.0,0.0,0.0,-3.935,-3.794,-3.7046,-3.7969,-3.7315,-3.6541,-3.599,-3.4243,-3.3067,-3.2864,-3.1809,0.0,0.0,0.0,0.0,0.0,0.0,0.0,0.0,0.0,0.0,0.0,0.0,0.0,0.0,0.0,0.0,0.0,0.0,0.0,0.0,0.0,0.0,0.0,0.0,0.0,0.0,0.0,0.0,0.0,0.0,0.0,0.0,0.0,0.0,0.0,0.0,0.0,0.0,0.0,0.0,0.0,0.0,0.0,0.0,0.0,0.0,0.0,0.0,0.0,0.0,0.0,0.0,0.0,-5.4056,-5.4762,-5.5907,-5.4793,-5.2752,-4.9915,-4.6687,-4.3652,-4.1149,0.0,0.0,0.0,0.0,0.0,0.0,0.0,0.0,0.0,0.0,0.0,0.0,0.0,0.0,0.0,0.0,0.0,0.0,0.0,0.0,0.0,0.0,0.0,0.0,0.0,-3.7426,-3.6611,0.0,0.0,0.0,0.0,0.0,0.0,0.0,0.0,0.0,0.0,0.0,0.0,-3.8395,-3.737,-3.6538,-3.6692,-3.5962,-3.5383,-3.5141,-3.3595,-3.2484,-3.203,-3.1846,-3.1316,0.0,0.0,0.0,0.0,0.0,0.0,0.0,0.0,0.0,0.0,0.0,0.0,0.0,0.0,0.0,0.0,0.0,0.0,0.0,0.0,0.0,0.0,0.0,0.0,0.0,0.0,0.0,0.0,0.0,0.0,0.0,0.0,-3.9285,-3.9167,0.0,0.0,0.0,0.0,0.0,0.0,0.0,0.0,0.0,0.0,0.0,0.0,0.0,0.0,-5.5195,-5.8515,-5.984,-5.9207,-6.0608,-6.0884,-6.0128,-5.8441,-5.7379,-5.6743,-5.4145,0.0,-4.4063,-4.3551,0.0,0.0,0.0,0.0,0.0,0.0,0.0,0.0,0.0,0.0,0.0,0.0,0.0,0.0,0.0,0.0,0.0,0.0,0.0,0.0,0.0,0.0,-3.8212,-3.6927,-3.7161,-3.7591,0.0,-3.8313,-3.9169,-3.8268,0.0,0.0,0.0,0.0,0.0,0.0,0.0,0.0,-3.7699,-3.6535,-3.5923,-3.6615,-3.5962,-3.5383,-3.5141,-3.3968,-3.3155,-3.2855,-3.1984,-3.1397,-3.125,-3.0577,0.0,0.0,0.0,0.0,0.0,0.0,0.0,0.0,0.0,0.0,0.0,0.0,0.0,0.0,0.0,0.0,0.0,0.0,0.0,0.0,0.0,0.0,0.0,0.0,0.0,0.0,0.0,0.0,0.0,-4.0555,-4.1485,-3.953,-4.2047,-4.3431,0.0,0.0,0.0,0.0,0.0,0.0,0.0,0.0,0.0,-5.582,-5.7878,-5.9269,-6.0013,-6.2854,-6.4047,-6.3637,-6.4721,-6.5011,-6.4561,-6.3653,-6.2414,-6.0878,-5.9348,-5.6182,-5.1919,-4.8425,-4.621,-4.4956,0.0,0.0,0.0,0.0,-4.614,-4.6728,-4.6838,-4.6654,0.0,0.0,0.0,0.0,0.0,0.0,0.0,0.0,0.0,0.0,0.0,0.0,0.0,-3.8689,-3.8802,-3.9098,-3.8606,-3.9223,-3.9642,0.0,-3.9593,-3.9938,-3.8708,0.0,0.0,0.0,0.0,0.0,-3.7968,-3.7373,-3.6853,-3.6692,-3.5962,-3.5383,-3.5141,-3.4065,-3.3272,-3.303,-3.2416,-3.1678,-3.076,-3.0834,-3.0731,0.0,0.0,0.0,0.0,0.0,0.0,0.0,0.0,0.0,0.0,0.0,0.0,0.0,0.0,0.0,0.0,0.0,0.0,0.0,0.0,0.0,0.0,0.0,0.0,0.0,0.0,0.0,0.0,-4.1976,-4.3222,-4.0585,-4.4209,-4.6159,0.0,0.0,0.0,0.0,0.0,0.0,-5.5281,-5.6777,-5.8934,-6.222,-6.386,-6.4864,-6.5269,-6.7249,-6.8248,-6.821,-6.851,-6.8633,-6.858,-6.7885,-6.636,-6.4313,-6.3163,-6.1209,-5.8482,-5.2891,-4.9532,-4.7903,-4.7689,-4.7209,-4.683,-4.7927,-4.8719,-4.9297,-4.9701,-4.9591,-4.9187,-4.8764,0.0,-4.6818,-4.5014,0.0,0.0,0.0,0.0,-4.2414,-4.2313,-4.2341,-4.1969,-4.0272,-4.0318,-4.0536,-3.9748,-4.0103,-4.0307,0.0,-4.0238,-4.069,-3.9482,0.0,0.0,0.0,0.0,-3.8134,-3.8,-3.7898,-3.7679,-3.7077,-3.6308,-3.5691,-3.5446,-3.4452,-3.3702,-3.344,-3.2981,-3.206,-3.0671,-3.0991,-3.0761,-2.983,0.0,0.0,0.0,0.0,0.0,0.0,0.0,0.0,0.0,0.0,0.0,0.0,0.0,0.0,0.0,0.0,0.0,0.0,0.0,0.0,0.0,0.0,0.0,0.0,0.0,0.0,0.0,0.0,0.0,-4.3,-4.7355,0.0,0.0,0.0,0.0,-5.1931,-5.4429,-5.7077,-5.9816,-6.2418,-6.4953,-6.7429,-6.9139,-7.0722,-7.2171,-7.3137,-7.351,-7.3313,-7.2566,-7.2152,-7.1874,-6.9712,-6.8385,-6.7728,-6.5593,-6.3407,-6.0973,-5.5321,-5.2966,-5.2533,-4.9528,-4.9678,-5.1299,-4.9163,-4.9843,-5.172,-5.0986,-4.9701,-4.8857,-5.1883,-5.183,-5.0398,-4.9498,-4.7713,0.0,0.0,-4.4478,-4.2569,-4.1688,-4.2003,-4.2119,-4.0337,-4.0914,-4.1469,-3.9946,-4.0711,-4.1223,0.0,-3.9172,-3.8899,-3.8444,0.0,-3.7883,-3.7588,-3.7757,-3.7742,-3.7246,-3.7375,-3.7615,-3.7908,-3.7161,-3.6542,-3.6256,-3.5496,-3.4887,-3.4637,-3.3601,-3.2586,-3.1752,-3.1012,-3.0737,-3.0902,-3.0341,0.0,0.0,0.0,0.0,0.0,0.0,0.0,0.0,0.0,0.0,0.0,0.0,0.0,0.0,0.0,0.0,0.0,0.0,0.0,0.0,0.0,0.0,0.0,0.0,0.0,0.0,0.0,0.0,-5.0298,-5.4553,0.0,0.0,-5.5435,-5.6498,-5.8922,-6.051,-6.2991,-6.6793,-6.8302,-7.0228,-7.2775,-7.3178,-7.3622,-7.4179,-7.4923,-7.4692,-7.3575,-7.3806,-7.3599,-7.3,-7.1248,-7.0191,-6.9556,-6.677,-6.4898,-6.3538,-5.9441,-5.6596,-5.4636,-5.2991,-5.2839,-5.3566,-5.3753,-5.3997,-5.4326,-5.4583,-5.3592,-5.216,-5.1793,-4.9959,-4.8003,-4.8098,-4.6968,-4.5771,-4.6239,-4.5738,-4.4987,-4.4707,-4.4357,-4.376,-4.2533,-4.253,-4.2536,-4.1417,-4.1512,-4.1615,-4.1008,-4.0836,-4.0433,-3.932,-3.9072,-3.8814,-3.8354,-3.8497,-3.8598,-3.839,-3.8845,-3.9004,-3.855,-3.7924,-3.7286,-3.6604,-3.5665,-3.5051,-3.4963,-3.3873,-3.2903,-3.2097,-3.1251,-3.0639,-3.0356,-3.0122,-3.0564,0.0,0.0,0.0,0.0,0.0,0.0,0.0,0.0,0.0,0.0,0.0,0.0,0.0,0.0,0.0,0.0,0.0,0.0,0.0,0.0,0.0,0.0,0.0,0.0,0.0,0.0,-5.4745,-5.6502,-6.0565,-6.282,-6.1797,-6.1807,-6.2984,-6.5687,-6.6707,-6.8862,-7.2695,-7.3252,-7.4207,-7.5884,-7.562,-7.5426,-7.5333,-7.5592,-7.5227,-7.4346,-7.3935,-7.368,-7.3561,-7.1405,-7.0375,-7.0142,-6.7351,-6.5568,-6.4486,-6.1802,-5.915,-5.6745,-5.5956,-5.5819,-5.6194,-5.754,-5.7634,-5.7193,-5.7208,-5.6161,-5.4546,-5.2931,-5.0373,-4.8068,-4.9032,-4.7829,-4.6323,-4.7111,-4.6725,-4.6123,-4.6374,-4.5498,-4.4402,-4.3651,-4.3401,-4.3064,-4.2285,-4.1922,-4.1808,-4.1808,-4.1546,-4.0982,-3.9807,-3.958,-3.9477,-3.9142,-3.9025,-3.9092,-3.9476,-3.9757,-3.963,-3.8871,-3.8337,-3.7661,-3.6769,-3.6036,-3.5537,-3.5269,-3.4182,-3.3298,-3.2747,-3.1934,-3.1396,-3.1279,-3.1071,-3.1238,-3.1698,0.0,0.0,0.0,0.0,0.0,0.0,0.0,0.0,0.0,0.0,0.0,0.0,0.0,0.0,0.0,0.0,0.0,0.0,0.0,0.0,0.0,0.0,0.0,-4.9293,-5.5033,-5.9826,-6.1255,-6.5097,-6.7121,-6.5845,-6.7224,-6.9275,-7.1914,-7.2969,-7.457,-7.707,-7.7,-7.6785,-7.6628,-7.64,-7.6171,-7.5962,-7.5396,-7.5396,-7.5894,-7.3194,-7.2581,-7.3778,-7.0201,-6.8995,-6.9631,-6.7364,-6.5443,-6.3798,-6.216,-6.0487,-5.8964,-5.8186,-5.8422,-5.9247,-6.009,-6.035,-6.0115,-5.8531,-5.6969,-5.5669,-5.5611,-5.349,-5.1259,-5.2798,-5.0712,-4.7941,-4.8688,-4.7426,-4.5914,-4.6365,-4.5293,-4.4027,-4.3652,-4.3476,-4.3139,-4.236,-4.2037,-4.1885,-4.1885,-4.1162,-4.0339,-3.9731,-3.958,-3.9665,-3.9841,-3.9203,0.0,-4.0114,-3.984,-3.9369,-3.888,-3.8367,-3.7692,-3.6808,-3.6731,-3.6346,-3.5538,-3.4435,-3.3799,-3.3799,-3.3027,-3.2989,-3.3761,-3.3234,-3.2538,-3.1763,0.0,0.0,0.0,0.0,0.0,0.0,0.0,0.0,0.0,0.0,0.0,0.0,0.0,0.0,0.0,0.0,0.0,0.0,0.0,0.0,0.0,0.0,-5.6072,-5.6217,-6.0671,-6.4994,-6.8055,-7.0777,-7.2496,-7.2785,-7.3928,-7.4686,-7.4805,-7.6211,-7.7109,-7.7187,-7.6864,-7.6677,-7.6582,-7.6277,-7.5831,-7.534,-7.5163,-7.498,-7.4749,-7.3989,-7.3813,-7.409,-7.1499,-7.0435,-7.045,-6.6921,-6.5122,-6.4475,-6.1667,-6.0208,-5.9674,-5.8389,-5.8772,-6.009,-6.0304,-6.0762,-6.0918,-5.8734,-5.7703,-5.7152,-5.6,-5.4278,-5.2721,-5.2604,-5.1123,-4.9358,-4.9082,-4.8557,-4.8094,-4.8074,-4.7307,-4.6315,-4.544,-4.5174,-4.4874,-4.407,-4.3764,-4.3624,-4.3624,-4.2431,-4.1058,-3.9807,-3.958,-3.9477,-3.9105,-3.8836,0.0,-3.9098,-3.9184,-3.9277,-3.9369,-3.8908,-3.8325,-3.7685,-3.7038,-3.6346,-3.5538,-3.462,-3.41,-3.41,-3.3286,-3.2903,-3.3133,-3.3602,-3.3639,0.0,0.0,0.0,0.0,0.0,0.0,0.0,0.0,0.0,0.0,0.0,0.0,0.0,0.0,0.0,0.0,0.0,0.0,0.0,0.0,0.0,0.0,-5.7057,-6.1375,-6.3942,-6.6738,-6.9663,-7.2679,-7.4743,-7.6158,-7.677,-7.7691,-7.8203,-7.8047,-7.832,-7.8437,-7.8242,-7.7185,-7.6582,-7.6582,-7.6195,-7.5702,-7.5109,-7.4886,-7.4629,-7.4293,-7.3433,-7.3375,-7.3836,-7.1281,-7.0117,0.0,-6.6478,-6.4623,-6.3796,-6.1195,-5.9911,0.0,0.0,0.0,0.0,0.0,-6.1687,-6.1814,-5.9722,-5.8547,-5.7767,-5.6559,-5.4911,-5.3333,-5.2923,-5.1519,-4.9999,-4.9593,-4.9018,-4.8537,-4.867,-4.7872,-4.6883,-4.6269,-4.5969,-4.5631,-4.4927,-4.4534,-4.4316,-4.4316,0.0,0.0,-4.0348,-3.9856,-3.9514,-3.9252,-3.8909,-3.8836,-3.9166,-3.9141,-3.91,-3.9044,-3.8571,-3.8027,-3.7485,-3.7,0.0,0.0,0.0,-3.4891,-3.5238,-3.5122,0.0,0.0,0.0,-3.5353,-3.484,0.0,0.0,0.0,-3.3123,-3.2987,0.0,0.0,0.0,0.0,0.0,0.0,0.0,0.0,0.0,0.0,0.0,0.0,0.0,0.0,0.0,0.0,-6.1864,-6.5872,-7.1079,-7.2449,-7.3634,-7.5538,-7.7206,-7.833,-7.8593,-7.9375,-8.0156,-8.0937,-7.9609,-7.9023,-7.9531,0.0,0.0,0.0,0.0,-7.56,-7.5017,-7.4485,-7.4161,-7.4072,-7.2283,-7.2097,-7.319,-7.0219,-6.8859,-6.8646,-6.6005,-6.4005,-6.2471,-6.0765,-5.9682,-5.901,-5.912,-5.9628,-6.0522,-6.2123,-6.2748,-6.2585,-6.097,0.0,0.0,-5.7188,-5.5436,-5.3604,-5.3455,-5.1878,-5.0168,-4.9999,-4.908,-4.8211,-4.8591,-4.7782,-4.6798,-4.6589,-4.6352,-4.6,-4.5479,-4.4988,-4.4586,-4.4586,-4.3162,-4.1749,-4.1154,-4.0245,-3.9627,-3.9731,-3.9166,-3.8946,-3.968,-3.9334,-3.8885,-3.8446,0.0,0.0,-3.6987,-3.687,-3.65,-3.5692,-3.5654,-3.5993,-3.6779,-3.7547,-3.8308,-3.9053,-3.8,-3.71,-3.634,-3.5817,-3.554,-3.5502,-3.5275,-3.4578,0.0,0.0,0.0,0.0,0.0,0.0,0.0,0.0,0.0,0.0,0.0,0.0,0.0,0.0,0.0,-6.0512,-6.509,-6.936,-7.2508,-7.4634,-7.6034,-7.6591,-7.7714,-7.871,-7.9414,-8.0234,-8.082,-8.0976,-8.0703,-8.0,-7.8789,-7.8048,0.0,-7.6621,-7.573,-7.4999,-7.4464,-7.3888,-7.3315,-7.2844,0.0,0.0,-7.2585,-7.0003,-6.8826,-6.8615,-6.5335,-6.3447,-6.2471,-6.0765,-5.9677,-5.915,-5.9851,-6.0237,-6.0583,-6.2187,-6.2789,-6.2585,-6.097,-6.0199,-5.9626,-5.7576,-5.6152,-5.491,-5.3136,-5.1843,0.0,-4.956,-4.9406,-4.9457,-4.886,-4.9121,-4.9192,-4.7779,-4.7825,-4.8007,-4.7301,-4.6761,-4.6394,-4.6394,-4.447,-4.2639,-4.1987,-4.0623,-3.9439,-3.8994,-3.8799,-3.8762,-3.8909,-3.8823,-3.881,-3.8923,-3.9098,-3.8974,-3.8431,-3.8016,-3.7392,-3.65,-3.6462,-3.6734,-3.7321,-3.7504,-3.7557,-3.752,-3.7305,-3.7002,-3.662,-3.6522,-3.6329,-3.6131,-3.6074,-3.5929,0.0,0.0,0.0,0.0,0.0,0.0,0.0,0.0,0.0,0.0,0.0,-5.6822,0.0,0.0,-6.1961,-6.4787,-6.8249,-7.1349,-7.3606,-7.5446,-7.6651,-7.6868,-7.8191,-7.9258,-7.9648,-8.1289,-8.2109,-8.1679,-8.125,-8.0429,-7.918,-7.7931,-7.7049,-7.6621,-7.562,-7.4866,-7.4293,-7.3699,-7.3093,-7.2496,-7.2496,-7.2496,-7.243,-6.9909,-6.8526,-6.7969,-6.4988,-6.2843,-6.1234,-5.9661,-5.9035,-5.9178,-6.0055,-6.064,-6.1142,-6.235,-6.278,-6.2658,-6.141,-6.075,-6.0103,-5.8119,-5.6689,-5.5369,-5.349,-5.2394,-5.1511,-5.0412,-5.0316,-5.0488,-5.021,-5.0235,-5.0043,-4.9123,-4.8833,-4.8621,-4.7984,-4.7655,-4.7394,-4.6962,-4.5509,-4.3981,-4.2896,-4.134,-3.9902,-3.8847,-3.8689,-3.8689,-3.8689,-3.8689,-3.8803,-3.909,-3.8888,-3.8768,-3.8804,-3.7915,-3.7161,-3.6731,-3.6558,-3.6791,-3.7479,-3.7755,-3.8039,-3.8339,-3.8188,-3.8028,-3.7912,-3.7761,-3.7653,-3.7514,-3.7514,-3.7074,0.0,0.0,0.0,0.0,0.0,0.0,0.0,0.0,-5.652,-5.8506,-6.0603,-6.2365,-6.3356,-6.4494,-6.6161,-6.8867,-7.0985,-7.2823,-7.4388,-7.5755,-7.6677,-7.68,-7.8381,-7.9609,-7.9922,-8.1875,-8.2929,-8.2578,-8.1601,-8.0625,-7.9765,-7.7892,-7.6723,-7.6451,-7.5479,-7.4672,-7.4139,-7.3541,-7.305,-7.2686,-7.2553,-7.2508,-7.2364,-6.9927,-6.8291,-6.7287,-6.4498,-6.2075,-6.0004,-5.8496,-5.8459,-5.941,-6.0117,-6.1048,-6.2057,-6.2618,-6.278,-6.2695,-6.1887,-6.108,-6.0176,-5.8616,-5.7119,-5.5667,-5.418,-5.3251,-5.2585,-5.1787,-5.1591,-5.1658,-5.1726,-5.1337,-5.0911,-5.0631,-4.9968,-4.9308,-4.8923,-4.8586,-4.8163,-4.7509,-4.6547,-4.5458,-4.4116,-4.2496,-4.0829,-3.9194,-3.8799,-3.8689,-3.8689,-3.8689,-3.8773,-3.898,-3.8505,-3.8315,-3.8756,-3.7717,-3.7049,-3.7087,-3.6837,-3.7015,-3.7773,-3.8233,-3.8761,-3.9401,-3.9171,-3.9022,-3.9022,-3.8803,-3.8689,-3.8689,-3.8689,-3.8028,-4.928,-5.0582,0.0,-5.4783,-5.5995,-5.8358,0.0,0.0,-6.4471,-6.6135,-6.7247,-6.7577,-6.6329,-6.7907,-6.9704,-7.0648,-7.2612,-7.4279,-7.496,-7.5948,-7.659,-7.6611,-7.781,-7.9219,-8.0703,-8.1133,-8.1875,-8.3359,-8.1914,-8.0625,-7.9765,-7.8477,-7.7166,-7.5855,-7.4872,-7.4117,-7.3516,-7.2889,-7.2844,-7.329,-7.2733,-7.2392,-7.216,-6.9836,-6.8352,-6.7374,-6.3442,-6.119,-6.0151,-5.8549,-5.8841,-6.0242,-6.0335,-6.1634,-6.3325,-6.2941,-6.278,-6.2695,-6.1887,-6.108,-6.0176,-5.8616,-5.7474,-5.6498,-5.4942,-5.4429,-5.4115,-5.3017,-5.3166,-5.346,-5.2382,-5.2758,-5.3232,-5.2476,-5.194,-5.1547,-5.15,-5.0317,-4.924,-4.9125,-4.7855,-4.6618,-4.6124,-4.4355,-4.228,-4.0114,-3.9166,-3.8689,-3.8689,-3.8689,-3.8704,-3.875,-3.8887,-3.8939,-3.8794,-3.8378,-3.8243,-3.8565,-3.8243,-3.8345,-3.8913,-3.8973,-3.8948,-3.8788,-3.878,-3.875,-3.875,-3.8704,-3.8689,-3.8689,-3.8689,-3.8615,-5.1573,0.0,0.0,0.0,-6.0736,-6.4264,-6.8691,-6.9263,-6.9522,-7.2055,-7.2496,-7.2202,-7.1505,-7.1468,-7.1683,0.0,-7.3461,-7.4506,-7.5036,-7.555,-7.5641,-7.5128,-7.62,-7.7656,-7.9375,-8.0898,-8.164,-8.1367,-8.1133,-8.0429,-7.9062,-7.7814,-7.6682,-7.5735,-7.4783,-7.4183,-7.3934,-7.3315,-7.3315,-7.3911,-7.314,-7.2729,-7.2589,-6.9814,-6.7408,-6.5272,-6.3141,-6.1493,-6.022,-5.9081,-5.9313,-6.0397,-6.0397,-6.1504,-6.3144,-6.3238,-6.3285,-6.3211,-6.2877,-6.2016,-6.0995,-6.0345,-5.9299,-5.8005,-5.6472,-5.6186,-5.6042,-5.4656,-5.4605,-5.4947,-5.4705,-5.424,-5.3773,-5.3725,-5.3157,-5.2654,-5.2654,-5.2125,-5.1318,-5.0356,-4.9586,-4.8673,-4.7341,-4.5974,-4.4651,-4.3252,-4.1362,-3.9937,-3.946,-3.9386,-3.9203,-3.8762,-3.8933,-3.905,-3.8973,-3.8542,-3.8357,-3.8515,-3.8235,-3.819,-3.8396,-3.8711,-3.8818,-3.8689,-3.8689,-3.8689,-3.8689,-3.8689,-3.8689,-3.8689,-3.8689,-3.8689,-5.3188,0.0,0.0,-6.1789,-6.5827,-7.0001,-7.2637,-7.3598,-7.4661,-7.6974,-7.646,-7.5432,-7.4992,-7.3413,0.0,-7.3168,-7.365,-7.4282,-7.5216,-7.5062,-7.4545,-7.369,-7.4035,-7.5027,-7.6831,-7.9531,-8.0853,-8.0033,-8.0346,-8.0111,-7.9174,-7.7753,-7.6682,-7.6084,-7.5077,-7.4464,-7.4293,-7.3876,-7.4017,-7.4598,-7.3793,-7.3376,-7.323,-7.0317,-6.7383,-6.4556,-6.3699,-6.2399,-6.0787,-5.9846,-5.9991,-6.073,-6.073,-6.1823,-6.3381,-6.3527,-6.352,-6.3363,-6.3363,-6.2604,-6.1594,-6.1594,-6.0711,-5.9372,-5.8154,-5.8,-5.7943,-5.6597,-5.6381,-5.6558,-5.6548,-5.5645,-5.47,-5.4814,-5.4164,-5.3549,-5.3549,-5.3294,-5.2691,-5.1463,-5.113,-5.047,-4.8769,-4.7719,-4.6806,-4.6075,-4.3742,-4.1735,-4.0671,-4.0157,-3.957,-3.8799,-3.8869,-3.9008,-3.908,-3.8676,-3.8452,-3.8512,-3.8273,-3.8109,-3.8109,-3.8494,-3.8689,-3.8689,-3.8689,-3.8689,-3.8689,-3.8689,-3.8689,-3.8689,-3.8689,-3.8689,0.0,0.0,-6.1692,-6.7237,-7.168,-7.5536,-7.8767,-8.0131,-8.0718,-8.0828,-7.8919,-7.6723,-7.5212,-7.2973,-7.1716,-7.2852,-7.301,-7.3741,-7.5703,-7.4756,-7.3537,-7.2646,-7.1257,-7.1136,0.0,-7.6322,-7.8994,-8.0548,-7.9892,-7.9814,-8.0587,-7.8888,-7.7593,-7.6996,-7.5733,-7.4847,-7.4293,-7.439,-7.475,-7.5355,-7.475,-7.4363,-7.4063,-7.1636,-6.9121,-6.6626,-6.5297,-6.3844,-6.2237,-6.0925,-6.082,-6.1576,-6.1576,-6.2859,-6.4629,-6.3869,-6.3285,-6.283,-6.283,-6.2316,-6.1594,-6.1594,-6.1043,-6.0307,-5.9913,-5.9843,-5.9657,-5.8887,-5.8687,-5.8443,-5.7267,-5.6934,-5.6703,-5.5857,-5.5049,-5.4472,-5.4472,-5.351,-5.2616,-5.2539,-5.2167,-5.1601,-5.0734,-4.9599,-4.8539,-4.7739,-4.5907,-4.3994,-4.2433,-4.0855,-3.957,-3.8799,-3.8689,-3.8833,-3.909,-3.8869,-3.8811,-3.9043,-3.8818,-3.8667,-3.8667,-3.8689,-3.8689,-3.8689,-3.8689,-3.8689,-3.8689,-3.8689,-3.8689,-3.8689,-3.8689,-3.8689,0.0,0.0,-6.7944,-7.2532,-7.6717,-8.0461,-8.3141,-8.3177,-8.2443,-8.1893,-7.7708,-7.3537,-7.1652,-6.8937,-6.7388,-6.8638,-7.0232,-7.1982,-7.3744,-7.3684,-7.254,-7.0076,-7.0374,0.0,0.0,0.0,0.0,-7.9604,-8.0119,-8.063,-8.1516,-8.0416,-7.9176,-7.7898,-7.6745,-7.5808,-7.5051,-7.5085,-7.5488,-7.6197,-7.5282,-7.4306,-7.3311,-7.182,-7.0195,-6.8465,-6.7417,-6.5551,-6.316,-6.2698,-6.2141,-6.1604,-6.1604,-6.2709,-6.4303,-6.4008,-6.4156,-6.4434,-6.4214,-6.4106,-6.398,-6.3429,-6.3283,-6.3103,-6.1927,-6.2013,-6.2214,-6.0906,-6.0324,-5.9919,-5.8912,-5.7819,-5.6945,-5.6637,-5.5712,-5.4892,-5.4892,-5.4351,-5.3686,-5.3104,-5.2885,-5.234,-5.0945,-5.0349,-4.9368,-4.7245,-4.5184,-4.3314,-4.1719,-4.0561,-3.957,-3.8799,-3.8689,-3.8735,-3.8848,-3.8765,-3.875,-3.8848,-3.8765,-3.8689,-3.8689,-3.8689,-3.8689,-3.8689,-3.8689,-3.8689,-3.8689,-3.8689,-3.8689,-3.8689,-3.8689,-3.8689,-6.0896,-6.6916,-7.2863,-7.7194,-8.0901,-8.3948,-8.582,-8.4756,-8.2986,-8.1481,-7.6096,-7.0864,-6.8272,-6.4564,-6.2569,-6.4449,-6.566,-6.7584,-7.122,-7.0801,-6.9681,-6.8357,-6.8502,0.0,0.0,0.0,0.0,-7.8437,-8.0188,-8.1572,-8.2741,-8.2263,-8.1347,-8.0029,-7.8641,-7.7524,-7.661,-7.6687,-7.6875,-7.7149,-7.6178,-7.4975,-7.3613,-7.2986,-7.1695,-6.9921,-6.9188,-6.7386,-6.5008,-6.4845,-6.4155,-6.321,-6.321,-6.3753,-6.4494,-6.42,-6.4787,-6.5647,-6.5151,-6.514,-6.5228,-6.4714,-6.4646,-6.4584,-6.3418,-6.3424,-6.3474,-6.207,-6.148,-6.0973,-5.9819,-5.8473,-5.7335,-5.6886,-5.5925,-5.508,-5.4905,-5.4563,-5.4088,-5.3508,-5.3297,-5.2689,-5.1024,-5.0239,-4.9036,-4.6628,-4.5176,-4.3571,-4.1389,-4.0671,-3.99,-3.8836,-3.8689,-3.8689,-3.8689,-3.8512,-3.8433,-3.8433,-3.8251,-3.8168,-3.8168,-3.8168,-3.8234,-3.8417,-3.8433,-3.8496,-3.8689,-3.8689,-3.8689,-3.8689,-3.8689,-3.8611,-6.6256,-7.1578,-7.6497,-8.1195,-8.4132,-8.604,-8.6664,-8.4903,-8.2275,-7.9348,-7.3776,-6.8315,0.0,0.0,-5.7567,-6.0601,-6.0068,-6.1631,-6.85,-6.6785,-6.5584,0.0,0.0,0.0,0.0,0.0,0.0,-7.7101,0.0,-8.2481,-8.4341,-8.4366,-8.3968,-8.318,-8.1233,-7.9759,-7.8906,-7.9001,-7.8759,-7.8217,-7.7316,-7.6286,-7.5108,-7.5038,-7.3593,-7.1066,-7.0547,-6.9322,-6.7676,-6.722,-6.6678,-6.6142,-6.6097,-6.5814,-6.5316,-6.4482,-6.5154,-6.6402,-6.5632,-6.5411,-6.5411,-6.54,-6.5151,-6.4843,-6.4498,-6.4165,-6.3679,-6.2541,-6.2216,-6.1793,-6.0089,-5.9011,-5.8047,-5.6816,-5.5832,-5.5061,-5.4623,-5.4176,-5.3814,-5.3777,-5.3427,-5.2674,-5.1132,-4.9481,-4.781,-4.6214,-4.592,-4.471,-4.1572,-4.1132,-4.0508,-3.8878,-3.8695,-3.8643,-3.8627,-3.8185,-3.7859,-3.7859,-3.7451,-3.7192,-3.7192,-3.721,-3.7451,-3.7876,-3.7911,-3.8165,-3.8689,-3.8689,-3.8689,-3.8689,-3.8689,-3.8433,-7.0917,-7.6607,-8.1819,-8.4278,-8.5783,-8.6297,-8.4682,-8.1456,-7.7482,-7.2548,-6.5478,-5.926,0.0,0.0,0.0,-5.7871,-6.1651,0.0,-6.9395,-6.9642,0.0,-6.776,0.0,-6.7524,-6.7368,-6.957,0.0,0.0,-7.9445,-8.3025,-8.5993,-8.5855,-8.5538,-8.5175,-8.2635,-8.0956,-8.0224,-7.9164,-7.858,-7.8394,-7.738,-7.6735,-7.6387,-7.5438,-7.4635,-7.3849,-7.2363,-7.0877,-6.948,-6.8714,-6.7712,-6.6661,-6.6275,-6.6393,-6.6664,-6.5444,-6.5632,-6.6476,-6.6256,-6.6586,-6.7032,-6.684,-6.6545,-6.6232,-6.5962,-6.5643,-6.5166,-6.4218,-6.3474,-6.2743,-6.1704,-6.0319,-5.9007,-5.8356,-5.7279,-5.6139,-5.5077,-5.4553,-5.4059,-5.347,-5.2815,-5.216,-5.1756,-5.0325,-4.8776,-4.7223,-4.6041,-4.4506,-4.2272,-4.1462,-4.054,-3.9128,-3.8478,-3.7964,-3.7632,-3.7451,-3.7378,-3.7378,-3.7267,-3.7192,-3.7192,-3.7542,-3.7772,-3.7893,-3.8283,-3.8544,-3.8689,-3.8689,-3.8689,-3.8689,-3.8689,-3.8433,-7.5285,-8.0314,-8.4682,-8.5563,-8.5857,-8.4939,-8.1085,-7.7084,-7.2296,-6.5779,-5.8952,0.0,0.0,0.0,0.0,0.0,0.0,0.0,-6.6728,-6.7655,-6.7752,0.0,-6.7812,0.0,-6.7794,-7.0149,-7.2583,0.0,-7.8776,-8.2467,-8.5377,-8.6131,-8.6394,-8.6301,-8.4518,-8.2986,-8.184,-7.9953,-7.9023,-7.9023,-7.7685,-7.6993,-7.6876,-7.6138,-7.5513,-7.49,0.0,-7.2223,-7.103,-7.0134,-6.9036,-6.7917,-6.761,-6.7299,-6.6865,-6.6118,-6.5888,-6.5962,-6.5962,-6.6401,-6.6963,-6.7178,-6.695,-6.6554,-6.6412,-6.6136,-6.5705,-6.4859,-6.3974,-6.3128,-6.2332,-6.0819,-5.9355,-5.869,-5.7721,-5.6486,-5.5055,-5.4538,-5.4179,-5.3371,-5.2279,-5.1544,-5.1544,-5.0214,-4.8784,-4.7599,-4.61,-4.4574,-4.317,-4.1766,-4.0473,-3.935,-3.8848,-3.8324,-3.7704,-3.749,-3.7316,-3.7316,-3.6815,-3.6797,-3.7471,-3.7116,-3.7418,-3.858,-3.8563,-3.8978,-3.9753,-3.9753,-3.9753,-3.9753,-3.9753,-3.9491,-7.9396,-8.3141,-8.5967,-8.5967,-8.5123,-8.2774,-7.6937,-7.2275,-6.6927,-5.9102,0.0,-4.9452,-4.8195,0.0,-4.6287,-5.1213,0.0,-5.6939,-6.3235,-6.3998,-6.4828,-6.7178,-6.7648,-6.8091,-6.885,-7.0938,-7.2869,-7.4348,-7.7708,-8.087,-8.3477,-8.5325,-8.6366,-8.646,-8.6111,-8.504,-8.3319,-8.1006,-7.9805,-7.9687,-7.8008,-7.7103,-7.6939,-7.6926,-7.6292,-7.5207,0.0,0.0,-7.2327,-7.1426,-7.0461,-6.9511,-6.9353,-6.8302,-6.6846,-6.6481,-6.5888,-6.5301,-6.5191,-6.541,-6.5956,-6.7,-6.6932,-6.6478,-6.658,-6.6318,-6.5859,-6.5013,-6.4128,-6.332,-6.2589,-6.1104,-5.9562,-5.8738,-5.7808,-5.6665,-5.5075,-5.4481,-5.4012,-5.3083,-5.186,-5.0867,-5.076,-4.961,-4.8367,-4.7471,-4.5944,-4.4635,-4.386,-4.1857,-4.0235,-3.9498,-3.9322,-3.895,-3.8137,-3.7748,-3.7525,-3.7403,-3.6457,-3.6512,-3.7855,-3.6741,-3.7167,-3.9454,-3.8993,-3.9536,-4.1095,-4.1095,-4.1095,-4.1095,-4.1029,-4.0702,-8.303,-8.527,-8.6811,-8.6811,-8.4682,-8.0938,-7.4588,-6.8421,0.0,0.0,0.0,-4.4303,-4.275,-4.3713,0.0,-5.1122,0.0,0.0,0.0,0.0,-6.5828,0.0,0.0,0.0,0.0,0.0,0.0,0.0,0.0,0.0,-8.1941,-8.3101,-8.4,-8.47,-8.5443,-8.4997,-8.3319,-8.1631,-8.039,-7.9687,-7.8008,-7.7187,-7.7145,-7.6993,-7.6782,-7.6497,0.0,0.0,-7.343,-7.2418,-7.1444,-7.0524,-6.9645,-6.9114,-6.8538,-6.6334,-6.5411,-6.5191,-6.453,-6.4456,-6.5027,-6.7231,-6.7694,-6.7474,-6.7885,-6.7499,-6.6705,-6.5897,-6.5051,-6.4359,-6.4205,-6.2617,-6.0942,-6.0375,-5.929,-5.8002,-5.6684,-5.4861,-5.3075,-5.1747,-5.1236,-5.0803,-5.0045,-4.9137,-4.803,-4.6541,-4.5042,-4.3786,-4.3071,-4.1421,-4.0095,-3.9676,-3.904,-3.8179,-3.7068,-3.7499,-3.7557,-3.6896,-3.7254,-3.7618,-3.7889,-3.8491,-3.9045,-3.9474,-4.0239,-4.08,-4.1095,-4.1095,-4.1095,-4.1095,-4.0579,-4.011,-8.2393,-8.4011,-8.5129,-8.4735,-8.1417,-7.618,-6.8595,0.0,0.0,0.0,0.0,-4.1252,-4.076,0.0,0.0,0.0,0.0,0.0,0.0,0.0,0.0,0.0,0.0,0.0,0.0,0.0,0.0,0.0,0.0,0.0,-7.9476,-8.1683,-8.3351,-8.4407,-8.4936,-8.4828,-8.4122,-8.2498,-8.1015,-7.9687,-7.8476,-7.7656,-7.7187,-7.7101,-7.6998,-7.679,-7.5174,0.0,-7.3689,-7.2135,-7.1094,-7.0448,-6.9901,-6.9393,-6.8728,-6.7417,-6.627,-6.5264,-6.4861,-6.4599,-6.4728,-6.6823,-6.7414,-6.7396,-6.7653,-6.7436,-6.7013,-6.6628,-6.559,-6.4552,-6.4252,-6.3097,-6.1856,-6.1112,-5.9587,-5.7825,-5.6025,-5.4411,-5.2845,-5.1383,-5.0395,-4.9654,-4.9238,-4.7613,-4.6421,-4.6671,-4.449,-4.3102,-4.3768,-4.2489,-4.1379,-4.0934,-3.9863,-3.898,-3.8399,-3.8286,-3.8122,-3.7814,-3.779,-3.8171,-3.9005,-3.9062,-3.9596,-4.0678,-4.1105,-4.1662,-4.2359,-4.2359,-4.2187,-4.1941,-4.1632,-4.1215,-8.0643,-8.2311,-8.3373,-8.2459,-7.7969,-7.1588,-6.3258,-5.6936,0.0,0.0,-4.004,-3.9617,-3.995,0.0,0.0,0.0,0.0,0.0,0.0,0.0,0.0,0.0,0.0,0.0,0.0,0.0,0.0,0.0,0.0,0.0,0.0,-8.0362,-8.2622,-8.3708,-8.4434,-8.4704,-8.4566,-8.3046,-8.1445,-7.9687,-7.8711,-7.7851,-7.7187,-7.7187,-7.7103,-7.6864,-7.524,0.0,0.0,-7.2122,-7.0997,-7.0266,-7.0145,-6.9569,-6.8803,-6.8381,-6.7085,-6.5432,-6.5132,-6.4785,-6.4653,-6.6144,-6.6973,-6.7398,-6.759,-6.7513,-6.7308,-6.7036,-6.587,-6.4625,-6.4289,-6.3389,-6.2228,-6.0969,-5.9315,-5.7448,-5.5292,-5.3961,-5.2723,-5.137,-4.9653,-4.8306,-4.8117,-4.606,-4.4968,-4.6365,-4.4259,-4.3081,-4.4785,-4.3981,-4.3189,-4.2986,-4.136,-4.0244,-4.0119,-3.9342,-3.8902,-3.9014,-3.8494,-3.8963,-4.0721,-4.0032,-4.0516,-4.2462,-4.2311,-4.2632,-4.3577,-4.3431,-4.3032,-4.2482,-4.2362,-4.2148,-7.9782,-8.1928,-8.3267,-8.1863,-7.6373,-6.9423,-6.2261,0.0,0.0,0.0,-4.002,-3.942,-3.9175,-3.9229,0.0,0.0,0.0,0.0,0.0,0.0,0.0,0.0,0.0,0.0,0.0,0.0,0.0,0.0,0.0,0.0,0.0,-7.8712,-8.0579,-8.0867,-8.3844,-8.476,-8.3451,-8.2688,-8.1445,-7.9687,-7.8086,-7.7265,-7.7187,-7.7187,-7.7187,-7.7146,0.0,0.0,0.0,-7.3444,-7.2294,-7.0777,-7.0298,-7.0044,-6.9753,-6.8022,-6.6812,-6.584,-6.461,-6.4301,-6.4539,-6.5445,-6.6881,-6.8436,-6.9206,-6.8898,-6.8024,-6.6797,-6.5772,-6.5089,-6.5368,-6.3929,-6.188,-5.9845,-5.8725,-5.7629,-5.605,-5.4019,-5.2236,-5.1448,-4.9351,-4.7407,-4.656,-4.5493,-4.4726,-4.4569,-4.4288,-4.4469,-4.5488,-4.5022,-4.5016,-4.5996,-4.3524,-4.1533,-4.0922,-4.019,-3.9713,-3.9768,-3.974,-4.0695,-4.2901,-4.275,-4.3309,-4.4766,-4.4545,-4.4236,-4.3874,-4.3132,-4.2462,-4.1874,-4.1318,-4.1418,-7.4591,-7.751,-7.9201,-7.7682,-7.1857,-6.4916,-5.8977,0.0,0.0,-4.0077,-3.8744,-3.8408,-3.7979,-3.7952,-3.8418,0.0,0.0,0.0,0.0,0.0,0.0,0.0,0.0,0.0,0.0,0.0,0.0,0.0,0.0,0.0,0.0,-7.6398,-7.8491,-7.9745,-8.1871,-8.3044,-8.3123,-8.2433,-8.1222,-7.9501,-7.8473,-7.7695,-7.7187,-7.7187,-7.7187,-7.7148,0.0,0.0,0.0,-7.3207,-7.1826,-7.0154,-6.9923,-6.9329,-6.8519,-6.775,-6.6763,-6.5707,-6.5176,-6.4932,-6.5044,-6.6374,-6.7546,-6.8538,-6.9436,-6.8862,-6.7799,-6.7261,-6.5948,-6.463,-6.4431,-6.3543,-6.2164,-6.0357,-5.9713,-5.8676,-5.5726,-5.4333,-5.3095,-5.0926,-4.9256,-4.7962,-4.7173,-4.5687,-4.488,-4.5877,-4.5488,-4.5388,-4.6459,-4.6933,-4.7154,-4.7144,-4.4354,-4.2597,-4.2845,-4.1182,-4.045,-4.1055,-4.0725,-4.1352,-4.3217,-4.3534,-4.41,-4.51,-4.5313,-4.5131,-4.457,-4.4245,-4.3593,-4.2638,-4.195,-4.1822,-6.8752,-7.2597,-7.5202,-7.368,-6.7692,-6.0926,0.0,0.0,0.0,-3.8971,-3.7889,-3.7536,-3.7326,-3.7254,-3.7341,-3.7825,0.0,-3.9985,0.0,0.0,0.0,0.0,0.0,0.0,0.0,0.0,0.0,0.0,0.0,0.0,0.0,-7.4413,-7.6254,-7.7888,-7.9779,-8.1031,-8.1534,-8.1299,-8.0475,-7.9022,-7.8339,-7.7731,-7.7187,-7.7187,-7.7187,-7.7148,0.0,0.0,0.0,-7.3287,-7.1765,-7.0014,-6.9783,-6.8925,-6.7814,-6.7649,-6.6864,-6.5803,-6.5672,-6.555,-6.5725,-6.7136,-6.8142,-6.8936,-6.9821,-6.8914,-6.7561,-6.7445,-6.5899,-6.415,-6.355,-6.3294,-6.2732,-6.086,-6.0237,-5.9237,-5.6261,-5.506,-5.3963,-5.178,-5.0223,-4.9072,-4.8365,-4.6599,-4.5761,-4.7308,-4.6645,-4.6381,-4.748,-4.8215,-4.8497,-4.8065,-4.5484,-4.398,-4.4379,-4.239,-4.1458,-4.217,-4.182,-4.2406,-4.4147,-4.4366,-4.495,-4.6045,-4.6003,-4.5702,-4.5078,-4.4671,-4.3966,-4.2918,-4.2402,-4.2322,-6.299,-6.7929,-7.209,-7.0601,-6.4613,-5.8084,0.0,0.0,-4.0798,-3.9309,-3.7845,-3.6945,-3.7396,-3.7351,-3.7341,-3.7825,-3.8508,0.0,0.0,0.0,0.0,0.0,0.0,0.0,0.0,0.0,0.0,0.0,0.0,0.0,0.0,0.0,-7.3852,-7.4735,-7.772,-7.8898,-7.8074,-7.8836,-7.8903,-7.8207,-7.7348,-7.7039,-7.7187,-7.7187,-7.7187,0.0,0.0,0.0,0.0,-7.4218,-7.2642,-7.0821,-7.0014,-6.9167,-6.8345,-6.7798,-6.7104,-6.6331,-6.5766,-6.5968,-6.651,-6.7327,-6.8563,-6.986,-7.0629,-6.9336,-6.7512,-6.7014,-6.5546,-6.3895,-6.3025,-6.3429,-6.3466,-6.1006,-5.9841,-5.9061,-5.815,-5.6191,-5.4575,-5.4575,-5.2631,-5.0719,-4.992,-4.8359,-4.7489,-4.8189,-4.7673,-4.7512,-4.8456,-4.8592,-4.873,-4.8962,-4.7273,-4.592,-4.525,-4.3682,-4.2848,-4.297,-4.316,-4.421,-4.6259,-4.5693,-4.6241,-4.8231,-4.6896,-4.5882,-4.529,-4.3906,-4.2927,-4.2313,-4.2313,-4.2692,-5.5919,-5.9505,-6.2144,-6.0655,-5.6562,-5.2232,-4.9526,0.0,-4.002,-3.8565,-3.7483,-3.6786,-3.674,-3.6713,-3.7156,-3.8686,-3.9119,0.0,0.0,0.0,0.0,0.0,0.0,0.0,0.0,0.0,0.0,0.0,0.0,0.0,0.0,0.0,-7.3367,-7.4646,-7.5988,-7.7056,-7.7785,-7.7607,-7.76,-7.7783,-7.7039,-7.6732,-7.678,-7.6936,0.0,0.0,0.0,0.0,0.0,-7.4527,-7.2928,-7.1026,-7.0165,-6.9254,-6.8308,-6.7533,-6.7107,-6.6786,-6.6045,-6.5935,-6.6301,-6.7683,-6.8457,-6.8998,-7.0042,-6.9209,-6.7524,-6.5531,-6.4143,-6.3172,-6.2879,-6.3025,-6.2879,-6.152,-6.0604,-5.9664,-5.828,-5.6998,-5.5825,-5.4799,-5.3992,-5.3207,-5.2474,-5.1879,-5.1425,-5.1089,-5.0875,-5.0459,-4.9657,-4.9457,-4.9024,-4.8131,-4.6731,-4.6122,-4.6777,-4.4795,-4.4039,-4.531,-4.5009,-4.532,-4.649,-4.6773,-4.714,-4.7674,-4.7274,-4.6707,-4.6059,-4.5197,-4.4199,-4.3064,-4.3606,-4.3707,0.0,-5.3315,-5.5547,-5.4668,-5.1623,0.0,0.0,0.0,-3.9005,-3.8091,-3.7077,-3.6311,-3.6118,-3.6249,-3.6811,-3.8047,0.0,0.0,0.0,0.0,0.0,0.0,0.0,0.0,0.0,0.0,0.0,0.0,0.0,0.0,0.0,0.0,-7.1593,-7.2881,-7.4051,-7.5141,-7.6078,-7.6094,-7.6308,-7.6777,-7.6575,-7.6544,-7.6628,-7.679,0.0,0.0,0.0,0.0,0.0,-7.4818,-7.3303,-7.1684,-7.0419,-6.9336,-6.842,-6.7834,-6.7359,-6.7013,-6.6513,-6.6359,-6.6513,-6.759,-6.7996,-6.8301,-6.93,-6.8903,-6.7587,-6.5069,-6.4113,-6.3779,-6.3482,-6.3408,-6.314,-6.2133,-6.1532,-6.0762,-5.9218,-5.829,-5.7334,-5.6125,-5.5674,-5.5256,-5.4437,-5.4106,-5.3752,-5.3229,-5.2733,-5.2032,-5.1003,-5.0217,-4.9349,-4.8461,-4.6807,-4.6307,-4.7866,-4.5952,-4.5228,-4.6421,-4.6441,-4.6604,-4.7007,-4.7397,-4.7666,-4.7811,-4.7312,-4.6819,-4.6389,-4.5251,-4.4209,-4.3361,-4.3891,-4.4136,0.0,-4.8818,0.0,0.0,0.0,0.0,0.0,0.0,0.0,-3.7855,-3.6637,-3.5633,-3.5667,-3.6062,-3.6402,0.0,0.0,0.0,0.0,0.0,0.0,0.0,0.0,0.0,0.0,0.0,0.0,0.0,0.0,0.0,0.0,0.0,0.0,-6.9777,-7.195,-7.3129,-7.3205,-7.4279,-7.4927,-7.5249,-7.5774,-7.6185,-7.6412,-7.6604,0.0,0.0,0.0,0.0,0.0,-7.5098,-7.3831,-7.2737,-7.0852,-6.9576,-6.8839,-6.8525,-6.7898,-6.7167,-6.7051,-6.7013,-6.7013,-6.709,-6.7343,-6.7747,-6.8569,-6.8448,-6.7593,-6.5603,-6.5349,-6.5521,-6.469,-6.4464,-6.4104,-6.2811,-6.2417,-6.1982,-6.0759,-5.9832,-5.8981,-5.8311,-5.7531,-5.6747,-5.6004,-5.5316,-5.4784,-5.4693,-5.3449,-5.2507,-5.232,-5.0757,-4.9606,-4.9438,-4.7167,-4.6416,-4.8287,-4.705,-4.6369,-4.6747,-4.7569,-4.7982,-4.7803,-4.7739,-4.7951,-4.8376,-4.6944,-4.6222,-4.6244,-4.4215,-4.3229,-4.3323,-4.3323,-4.4078,-4.0475,0.0,-4.3673,-4.3098,-4.2313,-4.15,0.0,0.0,-3.7753,-3.7178,0.0,-3.5769,-3.64,0.0,0.0,0.0,0.0,0.0,0.0,0.0,0.0,0.0,0.0,0.0,0.0,0.0,0.0,0.0,0.0,0.0,0.0,0.0,0.0,-6.8918,-6.9529,-7.044,-7.1529,-7.1827,-7.2482,-7.3571,-7.3497,-7.3836,-7.452,-7.453,0.0,0.0,0.0,0.0,-7.7066,-7.5973,-7.4896,-7.3835,-7.2588,-7.1517,-7.0416,-6.8949,-6.8282,-6.7898,-6.6628,-6.6167,-6.6282,-6.6898,-6.7328,-6.7752,-6.8553,-6.803,-6.7181,-6.7306,-6.6952,-6.6408,-6.5521,-6.5038,-6.4535,-6.3562,-6.2553,-6.1713,-6.1385,-6.0199,-5.9161,-5.8957,-5.8275,-5.7703,-5.7498,-5.7316,-5.6782,-5.5605,-5.466,-5.334,-5.1359,-5.0111,-4.8669,-4.6843,-4.5892,-4.5756,-4.6702,-4.641,-4.7042,-4.9026,-4.9354,-4.9246,-4.8647,-4.899,-4.8532,-4.707,-4.5492,-4.4769,-4.485,-4.3152,-4.2645,-4.3323,-4.3323,-4.3856,-3.8302,-3.9508,-4.0493,-3.9774,-3.9605,-3.9377,-3.8667,0.0,0.0,0.0,0.0,0.0,0.0,0.0,0.0,0.0,0.0,0.0,0.0,0.0,0.0,0.0,0.0,0.0,0.0,0.0,0.0,0.0,0.0,0.0,0.0,0.0,0.0,-6.6847,-6.6612,-6.7439,-6.9412,-7.0474,-7.1186,-7.1531,-7.2029,-7.2622,-7.3295,-7.3339,0.0,0.0,0.0,0.0,-7.5887,-7.5897,-7.5309,-7.4312,-7.3289,-7.2517,-7.1684,-6.9789,-6.8795,-6.8205,-6.6898,-6.6062,-6.5552,-6.5796,-6.5804,-6.6031,-6.7292,-6.7043,-6.6598,-6.8034,-6.8288,-6.7931,-6.6815,-6.6068,-6.5346,-6.4374,-6.3311,-6.2432,-6.2218,-6.119,-6.0309,-6.0309,-5.9648,-5.9098,-5.9098,-5.8799,-5.8151,-5.6964,-5.5849,-5.43,-5.2092,-5.0615,-4.8986,-4.6905,-4.6211,-4.6158,-4.6638,-4.7033,-4.8055,-4.9919,-5.0307,-5.0325,-4.9932,-5.0126,-4.9412,-4.7621,-4.5658,-4.4519,-4.4269,-4.2648,-4.233,-4.3164,-4.2839,-4.3525,-3.7411,-3.8816,-3.9952,-3.9318,-3.9174,-3.8937,-3.8091,0.0,0.0,0.0,0.0,0.0,0.0,0.0,0.0,0.0,0.0,0.0,0.0,0.0,0.0,0.0,0.0,0.0,0.0,0.0,0.0,0.0,0.0,0.0,0.0,0.0,0.0,-6.4465,-6.3903,-6.4592,-6.6649,-6.8994,-6.9843,-6.9333,-7.0405,-7.1287,-7.1975,-7.211,-7.2584,0.0,0.0,0.0,-7.4141,-7.5177,-7.5113,-7.4255,-7.3345,-7.2818,-7.2358,-7.0436,-6.9142,-6.8231,-6.7191,-6.6006,-6.4916,-6.4367,-6.3891,-6.3817,-6.5431,-6.5638,-6.5745,-6.7735,-6.8832,-6.9093,-6.7926,-6.689,-6.593,-6.5005,-6.4101,-6.334,-6.2904,-6.2181,-6.1594,-6.1594,-6.0933,-6.0419,-6.0419,-5.9739,-5.8916,-5.8043,-5.6629,-5.5021,-5.3146,-5.1572,-4.9987,-4.8238,-4.7364,-4.7063,-4.7397,-4.8263,-4.9159,-5.0111,-5.085,-5.1256,-5.1215,-5.0712,-4.996,-4.8987,-4.639,-4.4768,-4.4253,-4.249,-4.2046,-4.2806,-4.2329,-4.3207,-3.6752,-3.8409,-4.0053,-3.9961,-3.9943,-3.9571,-3.8227,0.0,0.0,0.0,0.0,0.0,0.0,0.0,0.0,0.0,0.0,0.0,0.0,0.0,0.0,0.0,0.0,0.0,0.0,0.0,0.0,0.0,0.0,0.0,0.0,0.0,0.0,-6.2819,-6.2772,-6.2677,-6.2431,-6.4949,-6.6449,-6.699,-6.6979,-6.7733,-6.9132,-6.8938,-6.9594,0.0,0.0,-7.258,-7.3113,-7.3943,-7.3861,-7.3228,-7.2958,-7.2368,-7.1464,-6.9583,-6.869,-6.8114,-6.6092,-6.4997,-6.4368,-6.3557,-6.3238,-6.3257,-6.3592,-6.3892,-6.4438,-6.578,-6.6996,-6.7865,-6.7654,-6.639,-6.5085,-6.4867,-6.3854,-6.2904,-6.2805,-6.2181,-6.1594,-6.1594,-6.0933,-6.0419,-6.0419,-5.9739,-5.8718,-5.7313,-5.63,-5.4828,-5.2383,-5.1852,-5.101,-4.9335,-4.8514,-4.8143,-4.8453,-4.9111,-4.9924,-5.0876,-5.1569,-5.1917,-5.1849,-4.9501,-4.8671,-4.9725,-4.6112,-4.4522,-4.5058,-4.2627,-4.1578,-4.1918,-4.2385,-4.2968,-3.5952,-3.6605,-3.756,-3.9083,-3.9773,-3.9614,-3.7719,-3.7618,0.0,0.0,0.0,0.0,0.0,0.0,0.0,0.0,0.0,0.0,0.0,0.0,0.0,0.0,0.0,0.0,0.0,0.0,0.0,0.0,0.0,0.0,0.0,0.0,0.0,0.0,-6.1521,-6.1188,-6.0825,-6.2051,-6.3529,-6.5191,-6.5521,-6.6232,-6.7193,-6.7074,-6.7541,-6.8548,0.0,-7.0016,-7.0244,-7.1711,-7.1945,-7.1487,-7.142,-7.1131,-7.0443,-6.8265,-6.711,-6.6406,-6.4837,-6.4158,-6.3784,-6.2668,-6.2262,-6.2252,-6.2136,-6.2297,-6.2634,-6.3406,-6.5221,-6.6945,-6.6843,-6.5853,-6.4815,-6.4483,-6.3616,-6.278,-6.278,-6.2511,-6.2254,-6.2254,-6.1961,-6.1544,-6.109,-6.0384,-5.9177,-5.7193,-5.6213,-5.4805,-5.2233,-5.1921,-5.1263,-4.9593,-4.918,-4.8963,-4.8725,-4.943,-5.0557,-5.2149,-5.2509,-5.2498,-5.2053,-5.0037,-4.9258,-4.9948,-4.6951,-4.5497,-4.5728,-4.3676,-4.2732,-4.2788,-4.2726,-4.311,-3.5003,-3.5024,-3.5397,-3.7164,-3.8633,-3.9337,-3.8304,-3.8667,0.0,0.0,0.0,0.0,0.0,0.0,0.0,0.0,0.0,0.0,0.0,0.0,0.0,0.0,0.0,0.0,0.0,0.0,0.0,0.0,0.0,0.0,0.0,0.0,0.0,0.0,-6.0206,-5.9771,-5.9769,-5.9628,-6.0707,-6.299,-6.3583,-6.4196,-6.479,-6.4975,-6.5464,-6.6176,-6.7332,-6.767,-6.7477,-6.9193,-6.9807,-6.9671,-6.9671,-6.9485,-6.8966,-6.6965,-6.5572,-6.4623,-6.363,-6.3334,-6.3191,-6.18,-6.1447,-6.147,-6.0922,-6.0827,-6.0957,-6.1184,-6.301,-6.4987,-6.5421,-6.483,-6.4119,-6.4106,-6.3429,-6.278,-6.278,-6.278,-6.278,-6.278,-6.278,-6.2541,-6.1742,-6.1084,-5.9906,-5.7503,-5.6506,-5.5141,-5.285,-5.2376,-5.1729,-5.0257,-5.0202,-5.0024,-4.9326,-4.9915,-5.0981,-5.2613,-5.2689,-5.2417,-5.1886,-5.047,-4.981,-5.0004,-4.7874,-4.655,-4.6208,-4.4736,-4.3803,-4.3383,-4.3272,-4.3553,-3.3816,-3.4667,-3.5443,-3.42,-3.6028,-3.8823,-4.1336,-4.2489,0.0,-4.4857,0.0,0.0,0.0,0.0,0.0,0.0,0.0,0.0,0.0,0.0,0.0,0.0,0.0,0.0,0.0,0.0,0.0,0.0,0.0,0.0,0.0,0.0,0.0,0.0,0.0,-5.8113,-5.8175,-5.7511,-5.7985,-5.9645,-5.9716,-6.0125,-6.0919,-6.167,-6.2668,-6.392,-6.5574,-6.6103,-6.5823,-6.6805,-6.755,-6.8051,-6.8051,-6.7576,-6.6744,-6.5939,-6.4853,-6.359,-6.278,-6.2641,-6.2598,-6.1006,-6.1006,-6.1324,-5.9806,-5.9642,-5.9892,-5.9522,-5.9863,-6.0882,-6.3184,-6.2817,-6.2218,-6.3748,-6.3429,-6.278,-6.278,-6.278,-6.278,-6.278,-6.278,-6.2541,-6.1742,-6.1576,-6.0711,-5.8298,-5.7277,-5.6224,-5.4601,-5.3821,-5.3045,-5.2202,-5.21,-5.1815,-5.105,-5.1089,-5.1137,-5.126,-5.1132,-5.1107,-5.1154,-4.9711,-4.9236,-5.0004,-4.8377,-4.7073,-4.6208,-4.5201,-4.399,-4.2526,-4.3997,-4.4408,-3.3066,-3.3004,-3.3296,-3.4065,-3.4785,0.0,0.0,-4.2645,-4.4432,-4.5481,-4.753,0.0,0.0,0.0,0.0,0.0,0.0,0.0,0.0,0.0,0.0,0.0,0.0,0.0,0.0,0.0,0.0,0.0,0.0,0.0,0.0,0.0,0.0,0.0,0.0,-5.6536,-5.6577,-5.6269,-5.6233,-5.6391,-5.7917,-5.8792,-5.9081,-5.9366,-5.9785,-6.0293,-6.139,-6.1958,-6.2181,-6.3007,-6.3691,-6.4181,-6.4181,-6.3676,-6.2912,-6.2346,-6.1519,-6.0603,-5.9989,-5.9826,-5.9752,-5.861,-5.9121,-5.9958,-5.8842,-5.8956,-5.9334,-5.871,-5.829,-5.8595,-6.099,-6.1235,-6.1153,-6.2291,-6.2291,-6.2181,-6.2695,-6.278,-6.278,-6.278,-6.278,-6.2412,-6.1055,-6.1257,-6.0623,-5.7706,-5.7049,-5.6357,-5.4805,-5.3957,-5.3382,-5.3078,-5.2604,-5.2024,-5.1256,-5.1641,-5.1504,-5.0538,-5.0814,-5.0844,-5.0445,-4.9868,-4.9499,-4.9372,-4.8762,-4.7737,-4.6208,-4.5818,-4.4815,-4.3227,-4.4211,-4.4683,-3.2048,-3.1511,-3.1534,-3.3014,0.0,0.0,-3.943,-4.3169,-4.6269,-4.8348,-5.045,0.0,0.0,0.0,0.0,0.0,0.0,0.0,0.0,0.0,0.0,0.0,0.0,0.0,0.0,0.0,0.0,0.0,0.0,0.0,0.0,0.0,0.0,0.0,0.0,0.0,-5.5344,-5.5141,-5.4634,-5.389,-5.5577,-5.6465,-5.6705,-5.6981,-5.7094,-5.7142,-5.7898,-5.8408,-5.8773,-5.9555,-6.0152,-6.0546,-6.0352,-5.9955,-5.9435,-5.8896,-5.8383,-5.7873,-5.7313,-5.7397,-5.7652,-5.6837,-5.7639,-5.8807,-5.799,-5.825,-5.8689,-5.7935,-5.7476,-5.7555,-5.8957,-5.9288,-5.9496,-6.0332,-6.0513,-6.0711,-6.1536,-6.188,-6.215,-6.2388,-6.2409,-6.1923,-6.032,-6.0522,-5.9881,-5.6916,-5.6506,-5.6081,-5.4771,-5.3957,-5.345,-5.3309,-5.2604,-5.1797,-5.0956,-5.1458,-5.1174,-4.9718,-5.013,-5.0083,-4.927,-4.924,-4.9033,-4.8576,-4.8861,-4.8225,-4.6627,-4.6401,-4.5635,-4.4425,-4.4907,-4.5384,-3.0702,-3.0522,-3.0522,0.0,0.0,0.0,-3.9915,-4.4591,-4.9393,-5.4386,0.0,0.0,0.0,0.0,0.0,0.0,0.0,0.0,0.0,0.0,0.0,0.0,0.0,0.0,0.0,0.0,0.0,0.0,0.0,0.0,0.0,0.0,0.0,0.0,0.0,0.0,-5.4566,-5.3856,-5.3078,-5.23,-5.23,-5.2721,-5.3498,-5.4287,-5.4664,-5.4729,-5.5537,-5.5857,-5.5913,-5.6659,-5.7255,-5.761,-5.6916,-5.667,-5.657,-5.6062,-5.5857,-5.5723,-5.4942,-5.5687,-5.6794,-5.6021,-5.6843,-5.8007,-5.7162,-5.7452,-5.7889,-5.7111,-5.7406,-5.78,-5.7046,-5.6892,-5.7063,-5.7971,-5.8184,-5.8388,-5.9114,-5.9926,-6.0692,-6.1434,-6.1584,-6.1091,-5.955,-5.9289,-5.8461,-5.6063,-5.5717,-5.5529,-5.4703,-5.3957,-5.3344,-5.291,-5.2273,-5.1373,-5.0288,-5.0505,-5.0103,-4.8691,-4.8852,-4.8576,-4.7671,-4.7605,-4.7605,-4.7605,-4.8545,-4.8511,-4.7605,-4.6848,-4.6322,-4.6027,-4.624,-4.6584,-3.1511,-3.1182,0.0,0.0,0.0,0.0,0.0,-4.38,0.0,0.0,0.0,0.0,0.0,0.0,0.0,0.0,0.0,0.0,0.0,0.0,0.0,0.0,0.0,0.0,0.0,0.0,0.0,0.0,0.0,0.0,0.0,0.0,0.0,0.0,0.0,0.0,-5.2232,-5.1995,-5.1792,-5.1555,-5.1555,-5.1651,-5.1907,-5.2143,-5.2235,-5.2276,-5.3083,-5.3451,-5.3509,-5.4232,-5.4623,-5.4733,-5.4525,-5.4153,-5.3655,-5.3503,-5.3068,-5.2551,-5.2314,-5.2551,-5.2894,-5.2623,-5.364,-5.5024,-5.5274,-5.5872,-5.6435,-5.6191,-5.5891,-5.5442,-5.472,-5.4514,-5.4972,-5.6829,-5.7269,-5.7504,-5.8367,-5.8709,-5.8945,-5.9171,-5.9209,-5.8875,-5.7779,-5.8114,-5.7719,-5.5315,-5.5441,-5.5322,-5.4025,-5.3369,-5.3033,-5.2902,-5.207,-5.1212,-5.039,-5.0615,-5.0173,-4.8758,-4.8729,-4.8726,-4.861,-4.8576,-4.8341,-4.7838,-4.8494,-4.8153,-4.6672,-4.6941,-4.6732,-4.6084,-4.6619,-4.7044,-3.0971,0.0,0.0,0.0,0.0,0.0,0.0,0.0,0.0,0.0,0.0,0.0,0.0,0.0,0.0,0.0,0.0,0.0,0.0,0.0,0.0,0.0,0.0,0.0,0.0,0.0,0.0,0.0,0.0,0.0,0.0,0.0,0.0,0.0,0.0,0.0,-5.1185,-5.1185,-5.1082,-5.0777,-5.0777,-5.0608,-5.0338,-5.0642,-5.0608,-5.0369,-5.083,-5.1218,-5.1477,-5.1616,-5.1871,-5.2059,-5.1815,-5.1448,-5.1038,-5.1038,-5.0738,-5.0338,-5.0338,-5.0541,-5.0777,-5.0777,-5.16,-5.2754,-5.3201,-5.3822,-5.4407,-5.4407,-5.4496,-5.4431,-5.3687,-5.3414,-5.3685,-5.5199,-5.5192,-5.5136,-5.5997,-5.6439,-5.6741,-5.7012,-5.711,-5.6808,-5.5983,-5.5475,-5.4635,-5.3152,-5.3337,-5.331,-5.2378,-5.229,-5.2248,-5.208,-5.1518,-5.0862,-5.0168,-5.0113,-4.9717,-4.8725,-4.8763,-4.9013,-4.9376,-4.8492,-4.7905,-4.7706,-4.8129,-4.7997,-4.7245,-4.7368,-4.7289,-4.704,-4.7169,-4.7411,0.0,0.0,0.0,0.0,0.0,0.0,0.0,0.0,0.0,0.0,0.0,0.0,0.0,0.0,0.0,0.0,0.0,0.0,0.0,0.0,0.0,0.0,0.0,0.0,0.0,0.0,0.0,0.0,0.0,0.0,0.0,0.0,0.0,0.0,0.0,0.0,-5.1014,-5.1014,-5.0676,0.0,-4.9999,-4.9627,-4.9018,-4.9695,-4.9627,-4.9018,-4.9018,-4.9312,-4.9792,-4.9222,-4.9308,-4.9763,-4.9124,-4.8917,-4.8917,-4.8917,-4.8917,-4.8917,-4.8984,-4.9424,-4.9999,-4.9999,-5.0439,-5.0982,-5.105,-5.1589,-5.2097,-5.2198,-5.3213,-5.4126,-5.345,-5.2998,-5.2801,-5.3111,-5.2457,-5.1963,-5.2706,-5.3449,-5.4127,-5.4817,-5.494,-5.4732,-5.4057,-5.2039,-5.0474,-5.0397,-5.0333,-5.0333,-5.0397,-5.0809,-5.0997,-5.0743,-5.0506,-5.0155,-4.9572,-4.9237,-4.8863,-4.8524,-4.8818,-4.9256,-4.9861,-4.7864,-4.6991,-4.7615,-4.781,-4.8199,-4.881,-4.8103,-4.8079,-4.8598,-4.7846,-4.7777,0.0,0.0,0.0,0.0,0.0,0.0,0.0,0.0,0.0,0.0,0.0,0.0,0.0,0.0,0.0,0.0,0.0,0.0,0.0,0.0,0.0,0.0,0.0,0.0,0.0,0.0,0.0,0.0,0.0,0.0,0.0,0.0,0.0,0.0,0.0,-5.0067,-4.9492,-4.9492,-4.939,0.0,-4.9255,-4.9154,-4.9018,-4.9154,-4.9154,-4.9018,-4.9018,-4.8738,-4.8413,-4.8809,-4.8738,-4.8316,-4.8199,-4.8142,-4.8142,-4.8142,-4.8142,-4.824,-4.8815,-4.912,-4.9255,-4.9255,-4.9357,-4.9593,-5.0168,-5.0439,-5.0676,-5.1285,-5.1691,-5.1894,-5.1758,-5.1095,-5.0511,-5.0586,-5.0634,-5.0779,-5.094,-5.1145,-5.1285,-5.1438,-5.1457,-5.1404,-5.1275,-5.0767,-5.0397,-5.0397,-4.9879,-4.9719,-5.0333,-4.9398,-4.9023,-4.9892,-4.8385,-4.7584,-4.8101,-4.8268,-4.816,-4.7835,-4.8549,-4.9046,-4.9195,-4.8616,-4.8653,-4.9442,-4.9337,-4.9387,-4.9549,-4.9292,-4.9236,-4.9338,-4.8497,-4.819,0.0,0.0,0.0,0.0,0.0,0.0,0.0,0.0,0.0,0.0,0.0,0.0,0.0,0.0,0.0,0.0,0.0,0.0,0.0,0.0,0.0,0.0,0.0,0.0,0.0,0.0,0.0,0.0,0.0,0.0,0.0,0.0,0.0,0.0,-4.956,-4.939,-4.9018,-4.9018,-4.9018,-4.9018,-4.9018,-4.8815,-4.8511,-4.8849,-4.9018,-4.9018,-4.9018,-4.8578,-4.7939,-4.8714,-4.8578,-4.7939,-4.8308,-4.8443,-4.8443,-4.8443,-4.8443,-4.8477,-4.8883,-4.9018,-4.9018,-4.9018,-4.9018,-4.9086,-4.9458,-4.956,-4.9661,-5.0033,-5.0405,-5.0676,-5.0676,-5.0226,-4.9747,-4.9747,-4.9452,-4.915,-4.915,-4.9434,-4.9615,-4.9615,-4.9615,-4.9615,-4.9615,-4.9247,-4.8829,-4.8488,-4.8385,-4.8478,-4.8851,-4.8432,-4.8216,-4.8578,-4.7929,-4.7613,-4.7856,-4.8157,-4.8315,-4.826,-4.8736,-4.9138,-4.9462,-4.9389,-4.9363,-4.9361,-4.9244,-4.9141,-4.9076,-4.9032,-4.8967,-4.8967,-4.8526,-4.8306,0.0,0.0,0.0,0.0,0.0,0.0,0.0,0.0,0.0,0.0,0.0,0.0,0.0,0.0,0.0,0.0,0.0,0.0,0.0,0.0,0.0,0.0,0.0,0.0,0.0,0.0,0.0,0.0,0.0,0.0,0.0,0.0,-4.9627,-4.9018,-4.9018,-4.9018,-4.9018,-4.8883,-4.8815,-4.8815,-4.868,-4.8308,-4.7733,-4.8342,-4.8612,-4.8612,-4.8612,-4.8206,-4.7597,-4.8477,-4.8308,-4.7567,-4.8342,-4.8612,-4.8612,-4.8612,-4.8714,-4.8849,-4.8951,-4.9018,-4.9018,-4.9018,-4.9018,-4.9018,-4.9018,-4.9018,-4.9018,-4.9018,-4.9331,-4.9706,-4.9866,-4.9493,-4.9143,-4.9281,-4.8371,-4.7437,-4.7561,-4.8119,-4.8573,-4.8368,-4.845,-4.8553,-4.8553,-4.7758,-4.695,-4.6369,-4.6681,-4.695,-4.695,-4.7255,-4.7388,-4.7194,-4.7676,-4.8071,-4.8189,-4.8472,-4.8729,-4.899,-4.9018,-4.9256,-4.9809,-4.9878,-4.9597,-4.8922,-4.8964,-4.8961,-4.893,-4.8673,-4.8526,-4.8526,-4.8379,-4.8306,0.0,0.0,0.0,0.0,0.0,0.0,0.0,0.0,0.0,0.0,0.0,0.0,0.0,0.0,0.0,0.0,0.0,0.0,0.0,0.0,0.0,0.0,0.0,0.0,0.0,0.0,0.0,0.0,0.0,0.0,0.0,-4.9154,-4.912,-4.9018,-4.9018,-4.9018,-4.9018,-4.8376,-4.8041,-4.8041,-4.7394,-4.7022,-4.6955,-4.7056,-4.709,-4.709,-4.709,-4.6684,-4.6109,-4.7466,-4.7259,-4.6075,-4.6819,-4.709,-4.709,-4.709,-4.7496,-4.8142,-4.8781,-4.9018,-4.9018,-4.9018,-4.9018,-4.9018,-4.9018,-4.9018,-4.9018,-4.9018,-4.8485,-4.8132,-4.8933,-4.7902,-4.6883,-4.7702,-4.6901,-4.6129,-4.6717,-4.7367,-4.7609,-4.6792,-4.7104,-4.7495,-4.7495,-4.6916,-4.6369,-4.6279,-4.5903,-4.5574,-4.5574,-4.4656,-4.4755,-4.6597,-4.5879,-4.6164,-4.8344,-4.859,-4.8729,-4.899,-4.9018,-4.9015,-4.9138,-4.9677,-4.9928,-4.9735,-5.0234,-5.0851,-5.1499,-5.0124,-4.9427,-4.9427,-4.8636,-4.8306,0.0,0.0,0.0,0.0,0.0,0.0,0.0,0.0,0.0,0.0,0.0,0.0,0.0,0.0,0.0,0.0,0.0,0.0,0.0,0.0,0.0,0.0,0.0,0.0,0.0,0.0,0.0,0.0,0.0,0.0,-4.7767,-4.7767,-4.7767,-4.7767,-4.7767,-4.7767,-4.7767,-4.7462,-4.7293,-4.7293,-4.6955,-4.6583,-4.6177,-4.6177,-4.6413,-4.6819,-4.7259,-4.6752,-4.5805,-4.7263,-4.7027,-4.5805,-4.6989,-4.7428,-4.7462,-4.7868,-4.824,-4.8578,-4.8883,-4.9018,-4.9018,-4.9018,-4.9018,-4.8892,-4.8353,-4.8225,-4.8129,-4.7572,-4.7138,-4.6902,-4.734,-4.6799,-4.6314,-4.6696,-4.6397,-4.595,-4.5694,-4.6006,-4.6323,-4.6316,-4.6232,-4.6292,-4.6681,-4.6202,-4.5753,-4.5753,-4.5484,-4.5304,-4.5304,-4.5267,-4.5495,-4.6082,-4.6617,-4.7225,-4.7965,-4.8529,-4.888,-4.8987,-4.9018,-4.9018,-4.9018,-4.9634,-5.0195,-5.0565,-5.078,-5.1019,-5.1316,-5.0161,-4.961,-4.9574,-4.871,-4.8306,0.0,0.0,0.0,0.0,0.0,0.0,0.0,0.0,0.0,0.0,0.0,0.0,0.0,0.0,0.0,0.0,0.0,0.0,0.0,0.0,0.0,0.0,0.0,0.0,0.0,0.0,0.0,0.0,0.0,0.0,-4.6515,-4.6515,-4.6616,-4.6786,-4.6786,-4.6786,-4.6786,-4.6616,-4.6413,-4.6244,-4.6244,-4.594,-4.5432,-4.5432,-4.5703,-4.6244,-4.6819,-4.6447,-4.5534,-4.6819,-4.6583,-4.5568,-4.7056,-4.7631,-4.7733,-4.8443,-4.8849,-4.9018,-4.9018,-4.9018,-4.9018,-4.9018,-4.8829,-4.8513,-4.7803,-4.744,-4.7104,-4.6384,-4.6032,-4.5889,-4.6138,-4.5996,-4.5889,-4.6138,-4.5996,-4.5665,-4.5148,-4.5038,-4.5244,-4.5933,-4.5633,-4.5454,-4.5963,-4.5484,-4.5117,-4.5374,-4.5293,-4.5253,-4.5504,-4.6152,-4.6472,-4.6202,-4.7473,-4.8232,-4.8,-4.8608,-4.9018,-4.9018,-4.9018,-4.9018,-4.9018,-4.9492,-5.009,-5.0796,-5.0723,-5.0803,-5.1096,-5.0288,-4.9794,-4.9574,-4.893,-4.8526,0.0,0.0,0.0,0.0,0.0,0.0,0.0,0.0,0.0,0.0,0.0,0.0,0.0,0.0,0.0,0.0,0.0,0.0,0.0,0.0,0.0,0.0,0.0,0.0,0.0,0.0,0.0,0.0,0.0,0.0,-4.5771,-4.5771,-4.6075,-4.6786,-4.6786,-4.6786,-4.6786,-4.6109,-4.5399,-4.4716,-4.4716,-4.4716,-4.4682,-4.4682,-4.4682,-4.4716,-4.475,-4.475,-4.4716,-4.55,-4.5365,-4.4818,-4.6278,-4.6853,-4.6955,-4.7699,-4.8409,-4.9018,-4.9018,-4.9018,-4.9018,-4.9018,-4.8418,-4.7671,-4.7605,-4.7002,-4.6244,-4.6208,-4.5561,-4.5079,-4.5961,-4.5525,-4.5079,-4.5961,-4.5525,-4.5005,-4.5549,-4.4978,-4.4556,-4.5214,-4.5304,-4.5304,-4.5334,-4.4796,-4.464,-4.5565,-4.5194,-4.5167,-4.6052,-4.6195,-4.655,-4.7405,-4.7572,-4.8,-4.8861,-4.8954,-4.9018,-4.9018,-4.9018,-4.9018,-4.9018,-4.9015,-4.9376,-5.0061,-5.0055,-5.0651,-5.194,-5.1132,-5.0362,-4.961,-4.9537,-4.9077,0.0,0.0,0.0,0.0,0.0,0.0,0.0,0.0,0.0,0.0,0.0,0.0,0.0,0.0,0.0,0.0,0.0,0.0,0.0,0.0,0.0,0.0,0.0,0.0,0.0,0.0,0.0,0.0,0.0,0.0,-4.3504,-4.3504,-4.3639,-4.3876,-4.4384,-4.4857,-4.5393,-4.5156,-4.4857,-4.4615,-4.4615,-4.4615,-4.4615,-4.4615,-4.4615,-4.4615,-4.4615,-4.4615,-4.4682,-4.5399,-4.5263,-4.475,-4.621,-4.6786,-4.6955,-4.8173,-4.8781,-4.9018,-4.9018,-4.9018,-4.9018,-4.9018,-4.8353,-4.7473,-4.6867,-4.6064,-4.519,-4.4517,-4.409,-4.3927,-4.4251,-4.409,-4.3927,-4.4251,-4.409,-4.391,-4.4083,-4.3897,-4.3858,-4.4526,-4.4317,-4.4167,-4.4586,-4.4107,-4.3976,-4.4963,-4.4967,-4.5153,-4.6067,-4.673,-4.7239,-4.7539,-4.8161,-4.8639,-4.8954,-4.9018,-4.9018,-4.9018,-4.9018,-4.9018,-4.9018,-4.9018,-4.9316,-4.9976,-5.0004,-5.0468,-5.1419,-5.1058,-5.0729,-5.0417,-4.987,-4.9427,-3.0943,0.0,0.0,0.0,0.0,0.0,0.0,0.0,0.0,0.0,0.0,0.0,0.0,0.0,0.0,0.0,0.0,0.0,0.0,0.0,0.0,0.0,0.0,0.0,0.0,0.0,0.0,0.0,0.0,0.0,-4.1542,-4.1568,-4.1779,-4.2286,-4.2794,-4.3301,-4.3836,-4.3836,-4.3972,-4.4181,-4.4181,-4.4316,-4.4615,-4.4615,-4.4615,-4.4615,-4.4615,-4.4615,-4.4649,-4.5128,-4.5026,-4.475,-4.621,-4.6786,-4.6989,-4.8477,-4.9018,-4.9018,-4.9018,-4.9018,-4.8923,-4.8608,-4.7901,-4.6968,-4.5996,-4.5079,-4.4159,-4.3488,-4.329,-4.329,-4.329,-4.329,-4.329,-4.329,-4.329,-4.329,-4.329,-4.329,-4.3409,-4.3898,-4.3589,-4.3439,-4.3858,-4.3877,-4.4128,-4.5116,-4.5525,-4.6099,-4.7036,-4.7704,-4.8096,-4.8096,-4.8608,-4.9018,-4.9018,-4.9018,-4.9018,-4.9018,-4.9018,-4.9018,-4.9018,-4.9018,-4.9195,-4.9634,-4.9664,-4.9925,-5.0397,-5.0784,-5.0701,-5.0187,-4.98,-4.9448,0.0,0.0,0.0,0.0,0.0,0.0,0.0,0.0,0.0,0.0,0.0,0.0,0.0,0.0,0.0,0.0,0.0,0.0,0.0,0.0,0.0,0.0,0.0,0.0,0.0,0.0,0.0,0.0,0.0,-3.9276,-4.0011,-4.0079,-4.0756,-4.2185,-4.2252,-4.2286,-4.2286,-4.2286,-4.2658,-4.3375,-4.3375,-4.3809,-4.4615,-4.4615,-4.4615,-4.4615,-4.4615,-4.4615,-4.4615,-4.4615,-4.4615,-4.475,-4.6177,-4.6786,-4.6955,-4.8443,-4.8984,-4.9018,-4.9018,-4.9018,-4.8861,-4.7901,-4.6936,-4.6032,-4.5079,-4.412,-4.329,-4.329,-4.329,-4.329,-4.329,-4.3329,-4.3329,-4.329,-4.3329,-4.3329,-4.3329,-4.3329,-4.3329,-4.329,-4.3329,-4.3329,-4.3329,-4.4197,-4.5153,-4.6103,-4.7036,-4.7933,-4.8892,-4.9018,-4.9018,-4.9018,-4.9018,-4.9018,-4.9018,-4.9018,-4.9018,-4.8954,-4.8954,-4.9018,-4.8954,-4.9018,-4.9018,-4.9018,-4.9018,-4.9018,-4.8984,-5.0397,-5.0281,-4.8856,-4.9423,-4.9213,-3.1511,0.0,0.0,0.0,0.0,0.0,0.0,0.0,0.0,0.0,0.0,0.0,0.0,0.0,0.0,0.0,0.0,0.0,0.0,0.0,0.0,0.0,0.0,0.0,0.0,0.0,0.0,0.0,-3.8193,-3.8294,-3.8497,-3.9005,-3.974,-4.0688,-4.1238,-4.1745,-4.2286,-4.2286,-4.2658,-4.3375,-4.3375,-4.3809,-4.4615,-4.4615,-4.4615,-4.4615,-4.4615,-4.4615,-4.4615,-4.4615,-4.4615,-4.4716,-4.5635,-4.6312,-4.6921,-4.7868,-4.8545,-4.9018,-4.9018,-4.9018,-4.8861,-4.7901,-4.6936,-4.6032,-4.5079,-4.412,-4.329,-4.329,-4.329,-4.329,-4.329,-4.3849,-4.4167,-4.3488,-4.3849,-4.4396,-4.4396,-4.4396,-4.4197,-4.3448,-4.3888,-4.4396,-4.4396,-4.5159,-4.6103,-4.707,-4.744,-4.7933,-4.8892,-4.9018,-4.9018,-4.9018,-4.9018,-4.9018,-4.9018,-4.9018,-4.8702,-4.8032,-4.8608,-4.8704,-4.8032,-4.8639,-4.9018,-4.9018,-4.9018,-4.9018,-4.9018,-4.9896,-5.007,-4.9679,-4.9806,-4.9363,-3.1511,-3.1511,-3.1511,0.0,0.0,0.0,0.0,0.0,0.0,0.0,0.0,0.0,0.0,0.0,0.0,0.0,0.0,0.0,0.0,0.0,0.0,0.0,0.0,0.0,0.0,0.0,0.0,0.0,-3.6772,-3.711,-3.7415,-3.8125,-3.8734,-3.9174,-3.9614,-4.0189,-4.0899,-4.0899,-4.1441,-4.2489,-4.2794,-4.3335,-4.4113,-4.4445,-4.4615,-4.4615,-4.4615,-4.4615,-4.4615,-4.4615,-4.4615,-4.4716,-4.5737,-4.6413,-4.6921,-4.797,-4.8646,-4.9018,-4.9018,-4.9018,-4.8798,-4.744,-4.6627,-4.5925,-4.4593,-4.3771,-4.329,-4.329,-4.329,-4.329,-4.329,-4.4043,-4.4662,-4.4082,-4.4668,-4.5379,-4.5379,-4.5379,-4.5196,-4.4631,-4.4974,-4.5379,-4.5379,-4.6138,-4.6968,-4.7506,-4.7933,-4.8353,-4.8923,-4.9018,-4.9018,-4.9018,-4.9018,-4.8829,-4.845,-4.8418,-4.8032,-4.7104,-4.7506,-4.777,-4.7638,-4.8129,-4.8608,-4.8984,-4.9018,-4.9018,-4.9018,-4.9372,-4.955,-4.9485,-4.9133,-4.8879,-3.1511,-3.1511,-3.1511,0.0,0.0,0.0,-3.0073,-2.9804,-2.9472,0.0,0.0,0.0,0.0,0.0,0.0,0.0,0.0,0.0,0.0,0.0,0.0,0.0,0.0,0.0,0.0,0.0,-3.5115,-3.4539,-3.5182,-3.5904,-3.6626,-3.7381,-3.7787,-3.7787,-3.7855,-3.8227,-3.887,-3.8937,-3.9715,-4.1102,-4.1914,-4.2692,-4.3409,-4.4215,-4.4615,-4.4615,-4.4615,-4.4615,-4.4615,-4.4615,-4.4615,-4.475,-4.6041,-4.665,-4.6955,-4.8274,-4.8849,-4.9018,-4.9018,-4.9018,-4.8671,-4.6799,-4.6208,-4.5854,-4.3897,-4.329,-4.329,-4.329,-4.329,-4.3329,-4.3448,-4.4205,-4.4962,-4.4962,-4.567,-4.6349,-4.6349,-4.6349,-4.6384,-4.6488,-4.6419,-4.6349,-4.6349,-4.7138,-4.777,-4.777,-4.8482,-4.9018,-4.9018,-4.8892,-4.8829,-4.8829,-4.8767,-4.8353,-4.7506,-4.744,-4.7036,-4.6103,-4.6138,-4.6558,-4.7406,-4.7539,-4.8031,-4.8987,-4.9018,-4.9018,-4.9018,-4.9018,-4.8946,-4.8797,-4.8142,-4.8186,0.0,0.0,0.0,0.0,0.0,0.0,-3.1182,-3.1122,-3.0883,0.0,0.0,0.0,0.0,0.0,0.0,0.0,0.0,0.0,0.0,0.0,0.0,0.0,0.0,0.0,0.0,0.0,-3.4032,-3.4472,-3.5182,-3.5667,-3.5825,-3.6569,-3.7032,-3.7032,-3.7584,-3.799,-3.8125,-3.87,-3.9445,-4.0333,-4.1644,-4.2692,-4.3409,-4.4215,-4.4615,-4.4615,-4.4615,-4.4615,-4.4615,-4.4615,-4.4615,-4.4649,-4.4919,-4.5766,-4.6819,-4.7124,-4.797,-4.9018,-4.9018,-4.9018,-4.8671,-4.6799,-4.6208,-4.5854,-4.3897,-4.329,-4.329,-4.329,-4.329,-4.3488,-4.4282,-4.5196,-4.5957,-4.5957,-4.6627,-4.734,-4.734,-4.734,-4.7539,-4.8289,-4.7836,-4.734,-4.734,-4.8129,-4.8736,-4.8736,-4.8892,-4.9018,-4.9018,-4.8321,-4.7868,-4.7868,-4.7205,-4.6662,-4.6488,-4.6454,-4.6067,-4.5116,-4.5778,-4.6279,-4.6454,-4.7205,-4.8031,-4.8987,-4.9018,-4.9018,-4.9018,-4.9018,-4.8978,-4.8961,-4.8825,-4.8848,0.0,0.0,0.0,-3.1511,0.0,0.0,0.0,-3.1002,0.0,0.0,0.0,0.0,0.0,0.0,0.0,0.0,0.0,0.0,0.0,0.0,0.0,0.0,0.0,0.0,0.0,0.0,-3.3152,-3.3897,-3.4641,-3.5047,-3.5047,-3.5791,-3.6197,-3.6197,-3.6569,-3.6941,-3.7347,-3.8091,-3.8836,-3.958,-4.1035,-4.2151,-4.2895,-4.3639,-4.4215,-4.4615,-4.4615,-4.4615,-4.4615,-4.4615,-4.4615,-4.4682,-4.5427,-4.6143,-4.6819,-4.7225,-4.8037,-4.8951,-4.8578,-4.8714,-4.8671,-4.6799,-4.6208,-4.5854,-4.3897,-4.329,-4.329,-4.329,-4.329,-4.3527,-4.4548,-4.5488,-4.6314,-4.6765,-4.7638,-4.8289,-4.8289,-4.8289,-4.845,-4.8892,-4.8608,-4.8289,-4.8289,-4.8704,-4.9018,-4.9018,-4.9018,-4.8964,-4.8822,-4.8365,-4.8029,-4.7872,-4.7159,-4.6502,-4.5961,-4.5677,-4.5116,-4.409,-4.4968,-4.5706,-4.6173,-4.7104,-4.8031,-4.8987,-4.9018,-4.9018,-4.9018,-4.9018,-4.9018,-4.9018,-4.9018,-4.9018,0.0,0.0,0.0,0.0,0.0,-3.1361,0.0,0.0,0.0,0.0,0.0,0.0,0.0,0.0,0.0,0.0,0.0,0.0,0.0,0.0,0.0,0.0,0.0,0.0,0.0,0.0,-3.2374,-3.2951,-3.3826,-3.4319,-3.4319,-3.498,-3.543,-3.56,-3.56,-3.5904,-3.6558,-3.7449,-3.8193,-3.8802,-4.0426,-4.1576,-4.232,-4.3064,-4.3842,-4.4615,-4.4615,-4.4615,-4.4615,-4.4615,-4.4615,-4.4716,-4.5935,-4.6447,-4.6684,-4.7428,-4.8173,-4.8714,-4.8274,-4.8511,-4.8671,-4.6799,-4.6067,-4.5638,-4.4289,-4.3858,-4.3858,-4.3858,-4.3858,-4.409,-4.5079,-4.5921,-4.6696,-4.7671,-4.845,-4.9018,-4.9018,-4.9018,-4.9018,-4.9018,-4.9018,-4.9018,-4.9018,-4.9018,-4.9018,-4.9018,-4.9018,-4.8908,-4.8628,-4.8456,-4.8167,-4.7702,-4.703,-4.6241,-4.5318,-4.4818,-4.4274,-4.3615,-4.4358,-4.53,-4.6419,-4.7373,-4.8225,-4.9018,-4.9018,-4.9018,-4.9018,-4.9018,-4.9018,-4.9018,-4.9018,-4.9018,0.0,0.0,0.0,0.0,-3.1511,0.0,0.0,0.0,0.0,0.0,0.0,0.0,0.0,0.0,0.0,0.0,0.0,0.0,0.0,0.0,0.0,0.0,0.0,0.0,0.0,0.0,0.0,-3.1637,-3.2861,-3.3654,-3.369,-3.4298,-3.4912,-3.5566,-3.56,-3.5633,-3.5735,-3.7178,-3.7956,-3.8058,-4.0189,-4.1576,-4.232,-4.3064,-4.3842,-4.4615,-4.4615,-4.4615,-4.4615,-4.4615,-4.4615,-4.4615,-4.4784,-4.5229,-4.5906,-4.665,-4.7394,-4.8139,-4.868,-4.8951,-4.8671,-4.6799,-4.5634,-4.5079,-4.5706,-4.5854,-4.5854,-4.5854,-4.5854,-4.6103,-4.7036,-4.734,-4.7704,-4.8608,-4.8923,-4.9018,-4.9018,-4.9018,-4.9018,-4.9018,-4.9018,-4.9018,-4.9018,-4.9018,-4.9018,-4.9018,-4.9018,-4.8908,-4.8628,-4.7867,-4.7002,-4.6095,-4.5166,-4.4328,-4.3638,-4.3518,-4.381,-4.4586,-4.4737,-4.5561,-4.7373,-4.8321,-4.8892,-4.9018,-4.9018,-4.9018,-4.9018,-4.9018,-4.9018,-4.9018,-4.9018,-4.9018,0.0,0.0,0.0,0.0,0.0,0.0,0.0,0.0,-3.1511,0.0,0.0,0.0,0.0,0.0,0.0,0.0,0.0,0.0,0.0,0.0,0.0,0.0,0.0,0.0,0.0,0.0,0.0,0.0,0.0,-3.2532,-3.2925,-3.3605,-3.4499,-3.5566,-3.56,-3.56,-3.56,-3.7144,-3.7922,-3.7922,-3.9715,-4.0933,-4.1677,-4.2422,-4.3166,-4.3944,-4.4412,-4.4615,-4.4615,-4.4615,-4.4615,-4.4615,-4.4615,-4.5297,-4.638,-4.6684,-4.753,-4.8545,-4.8409,-4.8646,-4.8798,-4.744,-4.6381,-4.5706,-4.6067,-4.6208,-4.6208,-4.6208,-4.6208,-4.6419,-4.734,-4.7572,-4.7704,-4.8063,-4.8608,-4.8671,-4.7605,-4.7803,-4.8032,-4.7473,-4.7836,-4.8193,-4.8193,-4.8639,-4.9018,-4.9018,-4.9018,-4.8718,-4.7874,-4.7758,-4.7133,-4.5605,-4.5101,-4.4616,-4.3958,-4.4061,-4.4358,-4.4774,-4.5814,-4.7036,-4.8353,-4.8798,-4.9018,-4.9018,-4.9018,-4.9018,-4.9018,-4.9018,-4.9018,-4.9018,-4.9018,-4.9018,-3.1511,0.0,0.0,0.0,0.0,0.0,0.0,0.0,0.0,0.0,0.0,0.0,0.0,0.0,0.0,-3.1511,0.0,0.0,0.0,0.0,0.0,0.0,0.0,0.0,0.0,0.0,0.0,0.0,-3.0267,0.0,-3.1667,-3.2722,-3.3848,-3.5003,-3.5431,-3.56,-3.56,-3.6941,-3.7686,-3.7922,-3.9174,-4.029,-4.1238,-4.1948,-4.2692,-4.3443,-4.4248,-4.4615,-4.4615,-4.4615,-4.4615,-4.4615,-4.4615,-4.5365,-4.6515,-4.6718,-4.7597,-4.8615,-4.8032,-4.8015,-4.8161,-4.7737,-4.7138,-4.6627,-4.69,-4.6968,-4.6968,-4.6968,-4.6968,-4.7138,-4.7803,-4.7966,-4.7966,-4.7966,-4.8289,-4.8257,-4.6867,-4.6934,-4.7036,-4.6314,-4.6968,-4.7572,-4.7572,-4.8353,-4.9018,-4.9018,-4.9018,-4.8654,-4.7699,-4.7874,-4.7404,-4.5587,-4.532,-4.5068,-4.4508,-4.4634,-4.5005,-4.5525,-4.707,-4.8289,-4.8954,-4.9018,-4.9018,-4.9018,-4.9018,-4.9018,-4.9018,-4.9018,-4.9018,-4.9018,-4.9018,-4.9018,0.0,0.0,0.0,-3.1511,0.0,0.0,0.0,0.0,-3.1511,0.0,0.0,0.0,0.0,-3.1511,-3.1511,-3.1511,-3.1481,0.0,0.0,0.0,0.0,0.0,0.0,0.0,0.0,0.0,0.0,-2.858,-2.9162,-2.9614,-2.9681,-3.1487,-3.2881,-3.3654,-3.4947,-3.56,-3.56,-3.64,-3.7178,-3.7922,-3.8667,-3.9783,-4.1238,-4.1948,-4.2692,-4.3443,-4.4248,-4.4615,-4.4615,-4.4615,-4.4615,-4.4615,-4.4615,-4.506,-4.5838,-4.6549,-4.7293,-4.7916,-4.7668,-4.7038,-4.6419,-4.7306,-4.7572,-4.7737,-4.8639,-4.8892,-4.8892,-4.8892,-4.8892,-4.8923,-4.8956,-4.8954,-4.8954,-4.8954,-4.8289,-4.7638,-4.7572,-4.6833,-4.6244,-4.6208,-4.6968,-4.7572,-4.7572,-4.8353,-4.9018,-4.9018,-4.9018,-4.8877,-4.8561,-4.8307,-4.7478,-4.5866,-4.5465,-4.5142,-4.4816,-4.4774,-4.5561,-4.7373,-4.8418,-4.8954,-4.9018,-4.9018,-4.9018,-4.9018,-4.9018,-4.9018,-4.9018,-4.9018,-4.9018,-4.9018,-4.9018,-4.9018,0.0,0.0,-3.1511,-3.1511,0.0,0.0,0.0,0.0,0.0,0.0,0.0,0.0,0.0,-3.1511,-3.1511,-3.1511,-3.1511,-3.1212,0.0,0.0,0.0,0.0,0.0,0.0,0.0,0.0,0.0,-2.7976,-2.8546,-2.9297,0.0,-3.0896,-3.2168,-3.4188,-3.4698,-3.5144,-3.56,-3.64,-3.7178,-3.7922,-3.8633,-3.9512,-4.0493,-4.1711,-4.2422,-4.2726,-4.4039,-4.4615,-4.4615,-4.4615,-4.4615,-4.4649,-4.5128,-4.5771,-4.6447,-4.6718,-4.7259,-4.7943,-4.8373,-4.7901,-4.7273,-4.8225,-4.8513,-4.8576,-4.8892,-4.9018,-4.9018,-4.9018,-4.9018,-4.9018,-4.9018,-4.9018,-4.8704,-4.744,-4.7373,-4.7104,-4.5164,-4.5011,-4.5264,-4.5264,-4.6028,-4.6867,-4.7473,-4.8786,-4.9729,-4.9729,-4.9729,-4.9421,-4.8521,-4.8689,-4.8022,-4.5707,-4.5751,-4.6029,-4.6168,-4.6912,-4.7925,-4.9185,-4.9099,-4.9221,-4.9695,-4.9255,-4.9018,-4.9018,-4.9018,-4.9018,-4.9018,-4.9018,-4.9018,-4.9018,-4.9018,-4.9018,-3.1511,-3.1511,0.0,-3.1511,-3.1511,0.0,-3.1511,0.0,0.0,0.0,0.0,0.0,0.0,0.0,-3.1511,-3.1511,-3.1511,-3.1122,0.0,-2.9744,0.0,0.0,0.0,0.0,0.0,0.0,-2.9052,-2.7705,-2.8218,-2.8966,0.0,0.0,-3.1851,-3.3828,-3.458,-3.5144,-3.56,-3.6129,-3.6738,-3.7516,-3.8261,-3.9005,-3.9774,-4.1508,-4.2286,-4.2388,-4.3938,-4.4615,-4.4615,-4.4615,-4.475,-4.4998,-4.5148,-4.5529,-4.6059,-4.69,-4.745,-4.7845,-4.8346,-4.8129,-4.7704,-4.8289,-4.8736,-4.9018,-4.9018,-4.9018,-4.9018,-4.9018,-4.9018,-4.8923,-4.8576,-4.8513,-4.8129,-4.6558,-4.6384,-4.6099,-4.4243,-4.4082,-4.4358,-4.4737,-4.5782,-4.6875,-4.7834,-4.9061,-5.0019,-5.0103,-5.0015,-4.9693,-4.8907,-4.8743,-4.7973,-4.6001,-4.6112,-4.6486,-4.698,-4.8109,-4.9055,-4.9664,-4.9255,-4.9221,-4.9695,-4.9255,-4.9255,-4.9796,-4.9289,-4.9255,-4.9796,-4.9526,-4.9255,-4.9018,-4.9255,-4.9255]},{"header":{"parameterUnit":"m.s-1","parameterCategory":1,"la1":30.6,"la2":29.2853,"lo1":-89.7004,"lo2":-87.6739,"dy":0.0162,"dx":0.0183,"nx":112,"ny":82,"refTime":"2023-06-17T00:00:00:Z","depth":0,"parameterNumber":3,"parameterNumberName":"V-component_of_WINDS"},"data":[0.0,0.0,0.0,0.0,0.0,0.0,0.0,0.0,0.0,0.0,0.0,0.0,0.0,0.0,0.0,0.0,0.0,0.0,0.0,0.0,0.0,0.0,0.0,0.0,0.0,0.0,0.0,0.0,0.0,0.0,0.0,0.0,0.0,0.0,0.0,0.0,0.0,0.0,0.0,0.0,0.0,0.0,0.0,0.0,0.0,0.0,0.0,0.0,0.0,0.0,0.0,0.0,0.0,0.0,0.0,0.0,0.0,0.0,0.0,0.0,0.0,0.0,0.0,0.0,0.0,0.0,0.0,0.0,0.0,0.0,0.0,0.0,0.0,0.0,0.0,0.0,0.0,0.0,0.0,0.0,0.0,0.0,0.0,0.0,0.0,0.0,0.0,0.0,0.0,0.0,0.0,-0.6716,-0.8065,-0.8981,-0.9132,-0.8906,-0.8137,-0.6756,0.0,0.0,0.0,0.0,0.0,0.0,0.0,0.0,0.0,0.0,0.0,0.0,0.0,0.0,0.0,0.0,0.0,0.0,0.0,0.0,0.0,0.0,0.0,0.0,0.0,0.0,0.0,0.0,0.0,0.0,0.0,0.0,0.0,0.0,0.0,0.0,0.0,0.0,0.0,0.0,0.0,0.0,0.0,0.0,0.0,0.0,0.0,0.0,0.0,0.0,0.0,0.0,0.0,0.0,0.0,0.0,0.0,0.0,0.0,0.0,0.0,0.0,0.0,0.0,0.0,0.0,0.0,0.0,0.0,0.0,0.0,0.0,0.0,0.0,0.0,0.0,0.0,0.0,0.0,0.0,0.0,0.0,0.0,0.0,0.0,0.0,0.0,0.0,0.0,0.0,0.0,0.0,0.0,0.0,0.0,0.0,0.0,0.0,0.0,0.0,0.0,0.0,0.0,0.0,-0.6675,-0.7917,-0.856,-0.8838,-0.8784,-0.8411,-0.7699,-0.662,0.0,0.0,0.0,0.0,0.0,0.0,0.0,0.0,0.0,0.0,0.0,0.0,0.0,0.0,0.0,0.0,0.0,0.0,0.0,0.0,0.0,0.0,0.0,0.0,0.0,0.0,0.0,0.0,0.0,0.0,0.0,0.0,0.0,0.0,0.0,0.0,0.0,0.0,0.0,0.0,0.0,0.0,0.0,0.0,0.0,0.0,0.0,0.0,0.0,0.0,0.0,0.0,0.0,0.0,0.0,0.0,0.0,0.0,0.0,0.0,0.0,0.0,0.0,0.0,0.0,0.0,0.0,0.0,0.0,0.0,0.0,0.0,0.0,0.0,0.0,0.0,0.0,0.0,0.0,0.0,0.0,0.0,0.0,0.0,0.0,0.0,0.0,0.0,0.0,0.0,0.0,0.0,0.0,0.0,0.0,0.0,0.0,0.0,0.0,0.0,0.0,0.0,0.0,-0.6718,-0.7014,-0.8038,-0.8472,-0.8662,-0.8594,-0.8174,-0.7536,-0.6654,-0.6369,0.0,0.0,0.0,0.0,0.0,0.0,0.0,0.0,0.0,0.0,0.0,0.0,0.0,0.0,0.0,0.0,0.0,0.0,0.0,0.0,0.0,0.0,0.0,0.0,0.0,0.0,0.0,0.0,0.0,0.0,0.0,0.0,0.0,0.0,0.0,0.0,0.0,0.0,0.0,0.0,0.0,0.0,0.0,0.0,0.0,0.0,0.0,0.0,0.0,0.0,0.0,0.0,0.0,0.0,0.0,0.0,0.0,0.0,0.0,0.0,0.0,0.0,0.0,0.0,0.0,0.0,0.0,0.0,0.0,0.0,0.0,0.0,0.0,0.0,0.0,0.0,0.0,0.0,0.0,0.0,0.0,0.0,0.0,0.0,0.0,0.0,0.0,0.0,0.0,0.0,0.0,0.0,0.0,0.0,0.0,0.0,0.0,0.0,0.0,0.0,0.0,0.0,-0.679,-0.7206,-0.7914,-0.8275,-0.8418,-0.8384,-0.7902,-0.7333,-0.6688,-0.6349,0.0,0.0,0.0,0.0,0.0,0.0,0.0,0.0,0.0,0.0,0.0,0.0,0.0,0.0,0.0,0.0,0.0,0.0,0.0,0.0,0.0,0.0,0.0,0.0,0.0,0.0,0.0,0.0,0.0,0.0,0.0,0.0,0.0,0.0,0.0,0.0,0.0,0.0,0.0,0.0,0.0,0.0,0.0,0.0,0.0,0.0,0.0,0.0,0.0,0.0,0.0,0.0,0.0,0.0,0.0,0.0,0.0,0.0,0.0,0.0,0.0,0.0,0.0,0.0,0.0,0.0,0.0,0.0,0.0,0.0,0.0,0.0,0.0,0.0,0.0,0.0,0.0,0.0,0.0,0.0,0.0,0.0,0.0,0.0,0.0,0.0,0.0,0.0,0.0,0.0,0.0,0.0,0.0,0.0,0.0,0.0,0.0,0.0,0.0,0.0,0.0,0.0,-0.6903,-0.7314,-0.7928,-0.8187,-0.8228,-0.8029,-0.7361,-0.6844,-0.6552,-0.6595,0.0,0.0,0.0,0.0,0.0,0.0,0.0,0.0,0.0,0.0,0.0,0.0,0.0,0.0,0.0,0.0,0.0,0.0,0.0,0.0,0.0,0.0,0.0,0.0,0.0,0.0,0.0,0.0,0.0,0.0,0.0,0.0,0.0,0.0,0.0,0.0,0.0,0.0,0.0,0.0,0.0,0.0,0.0,0.0,0.0,0.0,0.0,0.0,0.0,0.0,0.0,0.0,0.0,0.0,0.0,0.0,0.0,0.0,0.0,0.0,0.0,0.0,0.0,0.0,0.0,0.0,0.0,0.0,0.0,0.0,0.0,0.0,0.0,0.0,0.0,0.0,0.0,0.0,0.0,0.0,0.0,0.0,0.0,0.0,0.0,0.0,0.0,0.0,0.0,0.0,0.0,0.0,0.0,0.0,0.0,0.0,0.0,0.0,0.0,0.0,0.0,0.0,-0.6736,-0.7061,0.0,-0.776,-0.7828,-0.7773,-0.7206,-0.6837,-0.6627,0.0,0.0,0.0,0.0,0.0,0.0,0.0,0.0,0.0,0.0,0.0,0.0,0.0,0.0,0.0,0.0,0.0,0.0,0.0,0.0,0.0,0.0,0.0,0.0,0.0,0.0,0.0,0.0,0.0,0.0,0.0,0.0,0.0,0.0,0.0,0.0,0.0,0.0,0.0,0.0,0.0,0.0,0.0,0.0,0.0,0.0,0.0,0.0,0.0,0.0,0.0,0.0,0.0,0.0,0.0,0.0,0.0,0.0,0.0,0.0,0.0,0.0,0.0,0.0,0.0,0.0,0.0,0.0,0.0,0.0,0.0,0.0,0.0,0.0,0.0,0.0,0.0,0.0,0.0,0.0,0.0,0.0,0.0,0.0,0.0,0.0,0.0,0.0,0.0,0.0,0.0,0.0,0.0,0.0,0.0,0.0,0.0,0.0,0.0,0.0,0.0,0.0,-0.6796,-0.6668,-0.6871,0.0,-0.7461,-0.7529,-0.7529,-0.6987,-0.6661,-0.6702,0.0,0.0,0.0,0.0,0.0,0.0,0.0,0.0,0.0,0.0,0.0,0.0,0.0,0.0,0.0,0.0,0.0,0.0,0.0,0.0,0.0,0.0,0.0,0.0,0.0,0.0,0.0,0.0,0.0,0.0,0.0,0.0,0.0,0.0,0.0,0.0,0.0,0.0,0.0,0.0,0.0,0.0,0.0,0.0,0.0,0.0,0.0,0.0,0.0,0.0,0.0,0.0,0.0,0.0,0.0,0.0,0.0,0.0,0.0,0.0,0.0,0.0,0.0,0.0,0.0,0.0,0.0,0.0,0.0,0.0,0.0,0.0,0.0,0.0,0.0,0.0,0.0,0.0,0.0,0.0,0.0,0.0,0.0,0.0,0.0,0.0,0.0,0.0,0.0,0.0,0.0,0.0,0.0,0.0,0.0,0.0,0.0,0.0,0.0,0.0,0.0,0.0,-0.7098,-0.6797,-0.6871,-0.7364,-0.7412,-0.7412,-0.7412,-0.6546,-0.6182,0.0,0.0,0.0,0.0,0.0,0.0,0.0,0.0,0.0,0.0,0.0,0.0,0.0,0.0,0.0,0.0,0.0,0.0,0.0,0.0,0.0,0.0,0.0,0.0,0.0,0.0,0.0,0.0,0.0,0.0,0.0,0.0,0.0,0.0,0.0,0.0,0.0,0.0,0.0,0.0,0.0,0.0,0.0,0.0,0.0,0.0,0.0,0.0,0.0,0.0,0.0,0.0,0.0,0.0,0.0,0.0,0.0,0.0,0.0,0.0,0.0,0.0,0.0,0.0,0.0,0.0,0.0,0.0,0.0,0.0,0.0,0.0,0.0,0.0,0.0,0.0,0.0,0.0,0.0,0.0,0.0,0.0,0.0,0.0,0.0,0.0,0.0,0.0,0.0,0.0,0.0,0.0,0.0,0.0,0.0,0.0,0.0,0.0,0.0,0.0,0.0,0.0,0.0,-0.7098,-0.6702,-0.6709,-0.7163,-0.721,-0.717,-0.7068,-0.6525,-0.6295,-0.6525,0.0,0.0,0.0,0.0,0.0,0.0,0.0,0.0,0.0,0.0,0.0,0.0,0.0,0.0,0.0,0.0,0.0,0.0,0.0,0.0,0.0,0.0,0.0,0.0,0.0,0.0,0.0,0.0,0.0,0.0,0.0,0.0,0.0,0.0,0.0,0.0,0.0,0.0,0.0,0.0,0.0,0.0,0.0,0.0,0.0,0.0,0.0,0.0,0.0,0.0,0.0,0.0,0.0,0.0,0.0,0.0,0.0,0.0,0.0,0.0,0.0,0.0,0.0,0.0,0.0,0.0,0.0,0.0,0.0,0.0,0.0,0.0,0.0,0.0,0.0,0.0,0.0,0.0,0.0,0.0,0.0,0.0,0.0,0.0,0.0,0.0,0.0,0.0,0.0,0.0,0.0,0.0,0.0,0.0,0.0,0.0,0.0,0.0,0.0,0.0,0.0,0.0,-0.7182,-0.6695,-0.662,-0.697,-0.7011,-0.695,-0.6851,-0.643,-0.6381,-0.692,0.0,0.0,0.0,0.0,0.0,0.0,0.0,0.0,0.0,0.0,0.0,0.0,0.0,0.0,0.0,0.0,0.0,0.0,0.0,0.0,0.0,0.0,0.0,0.0,0.0,0.0,0.0,0.0,0.0,0.0,0.0,0.0,0.0,0.0,0.0,0.0,0.0,0.0,0.0,0.0,0.0,0.0,0.0,0.0,0.0,0.0,0.0,0.0,0.0,0.0,0.0,0.0,0.0,0.0,0.0,0.0,0.0,0.0,0.0,0.0,0.0,0.0,0.0,0.0,0.0,0.0,0.0,0.0,0.0,0.0,0.0,0.0,0.0,0.0,0.0,0.0,0.0,0.0,0.0,0.0,0.0,0.0,0.0,0.0,0.0,0.0,0.0,0.0,0.0,0.0,0.0,0.0,0.0,0.0,0.0,0.0,0.0,0.0,0.0,0.0,0.0,0.0,-0.7266,-0.6749,-0.6586,-0.6856,-0.6876,-0.6844,-0.6695,-0.632,-0.6528,-0.7507,0.0,0.0,0.0,0.0,0.0,0.0,0.0,0.0,0.0,0.0,0.0,0.0,0.0,0.0,0.0,0.0,0.0,0.0,0.0,0.0,0.0,0.0,0.0,0.0,0.0,0.0,0.0,0.0,0.0,0.0,0.0,0.0,0.0,0.0,0.0,0.0,0.0,0.0,0.0,0.0,0.0,0.0,0.0,0.0,0.0,0.0,0.0,0.0,0.0,0.0,0.0,0.0,0.0,0.0,0.0,0.0,0.0,0.0,0.0,0.0,-0.7224,0.0,0.0,0.0,0.0,0.0,0.0,0.0,0.0,0.0,0.0,0.0,0.0,0.0,0.0,0.0,0.0,0.0,0.0,0.0,0.0,0.0,0.0,0.0,0.0,0.0,0.0,0.0,0.0,0.0,0.0,0.0,0.0,0.0,0.0,0.0,0.0,0.0,0.0,0.0,0.0,0.0,-0.733,-0.6749,-0.6586,-0.6856,-0.6824,-0.6688,-0.6573,-0.682,-0.7138,-0.7356,0.0,0.0,0.0,0.0,0.0,0.0,0.0,0.0,0.0,0.0,0.0,0.0,0.0,0.0,0.0,0.0,0.0,0.0,0.0,0.0,0.0,0.0,0.0,0.0,0.0,0.0,0.0,0.0,0.0,0.0,0.0,0.0,0.0,0.0,0.0,0.0,0.0,0.0,0.0,0.0,0.0,0.0,0.0,0.0,0.0,0.0,0.0,0.0,0.0,0.0,0.0,0.0,0.0,0.0,0.0,0.0,0.0,0.0,0.0,0.0,0.0,-1.0645,0.0,0.0,0.0,0.0,0.0,0.0,0.0,0.0,0.0,0.0,0.0,0.0,0.0,0.0,0.0,0.0,0.0,0.0,0.0,0.0,0.0,0.0,0.0,0.0,0.0,0.0,0.0,0.0,0.0,0.0,0.0,0.0,0.0,0.0,0.0,0.0,0.0,0.0,0.0,0.0,-0.8006,-0.7075,-0.6532,-0.6695,-0.658,-0.669,-0.7077,-0.724,-0.7672,-0.8499,-0.9384,0.0,0.0,0.0,0.0,0.0,0.0,0.0,0.0,0.0,0.0,0.0,0.0,0.0,0.0,0.0,0.0,0.0,0.0,0.0,0.0,0.0,0.0,0.0,0.0,0.0,0.0,0.0,0.0,0.0,0.0,0.0,0.0,0.0,0.0,0.0,0.0,0.0,0.0,0.0,0.0,0.0,0.0,0.0,0.0,0.0,0.0,0.0,0.0,0.0,0.0,0.0,0.0,0.0,-0.0826,-0.299,-0.5445,-0.7274,-0.9896,-1.3083,-1.2455,-1.2723,-1.3668,0.0,0.0,0.0,0.0,0.0,0.0,0.0,0.0,0.0,0.0,0.0,0.0,0.0,0.0,0.0,0.0,0.0,0.0,0.0,0.0,0.0,0.0,0.0,0.0,0.0,-1.3437,-1.2696,0.0,0.0,0.0,0.0,0.0,0.0,0.0,0.0,0.0,0.0,0.0,0.0,-0.8732,-0.7349,-0.6484,-0.6511,-0.6381,-0.6718,-0.771,-0.764,-0.825,-0.9869,-1.0194,-1.0554,0.0,0.0,0.0,0.0,0.0,0.0,0.0,0.0,0.0,0.0,0.0,0.0,0.0,0.0,0.0,0.0,0.0,0.0,0.0,0.0,0.0,0.0,0.0,0.0,0.0,0.0,0.0,0.0,0.0,0.0,0.0,0.0,-0.4042,-0.616,0.0,0.0,0.0,0.0,0.0,0.0,0.0,0.0,0.0,0.0,0.0,0.0,0.0,0.0,0.0241,0.0255,-0.0653,-0.2456,-0.4039,-0.5929,-0.8049,-0.9321,-1.187,-1.5072,-1.4508,0.0,-1.5875,-1.5798,0.0,0.0,0.0,0.0,0.0,0.0,0.0,0.0,0.0,0.0,0.0,0.0,0.0,0.0,0.0,0.0,0.0,0.0,0.0,0.0,0.0,0.0,-1.3908,-1.344,-1.266,-1.1717,0.0,-1.0355,-0.9857,-0.7439,0.0,0.0,0.0,0.0,0.0,0.0,0.0,0.0,-0.8444,-0.7143,-0.6375,-0.6497,-0.6381,-0.6718,-0.771,-0.8273,-0.9078,-1.0241,-1.0896,-1.1273,-1.1335,-1.1129,0.0,0.0,0.0,0.0,0.0,0.0,0.0,0.0,0.0,0.0,0.0,0.0,0.0,0.0,0.0,0.0,0.0,0.0,0.0,0.0,0.0,0.0,0.0,0.0,0.0,0.0,0.0,0.0,0.0,-0.3905,-0.6246,-0.6837,-0.7414,-0.7658,0.0,0.0,0.0,0.0,0.0,0.0,0.0,0.0,0.0,0.0,-0.12,-0.1811,-0.1768,-0.3088,-0.4128,-0.4938,-0.6803,-0.8054,-0.8786,-1.0367,-1.2982,-1.6241,-1.5764,-1.6909,-1.8961,-1.871,-1.8261,-1.7822,0.0,0.0,0.0,0.0,-1.6794,-1.7007,-1.7048,-1.6981,0.0,0.0,0.0,0.0,0.0,0.0,0.0,0.0,0.0,0.0,0.0,0.0,0.0,-1.4082,-1.3171,-1.2,-1.0616,-0.9961,-0.9061,0.0,-0.7786,-0.8991,-1.0236,0.0,0.0,0.0,0.0,0.0,-0.951,-0.7731,-0.6498,-0.6511,-0.6381,-0.6718,-0.771,-0.8533,-0.9384,-1.0335,-1.1201,-1.153,-1.1196,-1.1223,-1.0694,0.0,0.0,0.0,0.0,0.0,0.0,0.0,0.0,0.0,0.0,0.0,0.0,0.0,0.0,0.0,0.0,0.0,0.0,0.0,0.0,0.0,0.0,0.0,0.0,0.0,0.0,0.0,0.0,-0.6133,-0.7719,-0.7156,-0.7746,-0.7932,0.0,0.0,0.0,0.0,0.0,0.0,-0.187,-0.1487,-0.1157,-0.0882,-0.2439,-0.3541,-0.3992,-0.581,-0.6872,-0.7244,-0.8716,-0.9569,-0.9944,-1.1817,-1.4332,-1.7157,-1.7368,-1.9299,-2.2157,-2.1437,-2.0771,-2.021,-2.0612,-2.0344,-1.9638,-1.8698,-1.8155,-1.7943,-1.809,-1.805,-1.7903,-1.7809,0.0,-1.7214,-1.7675,0.0,0.0,0.0,0.0,-1.6814,-1.7581,-1.6892,-1.5796,-1.4757,-1.3441,-1.2104,-1.0883,-0.9489,-0.8201,0.0,-0.7321,-0.8278,-1.0211,0.0,0.0,0.0,0.0,-1.071,-1.0315,-0.8445,-0.6983,-0.6579,-0.6443,-0.6776,-0.7777,-0.843,-0.9149,-1.0064,-1.0995,-1.1274,-1.0748,-1.0898,-1.0367,-0.9049,0.0,0.0,0.0,0.0,0.0,0.0,0.0,0.0,0.0,0.0,0.0,0.0,0.0,0.0,0.0,0.0,0.0,0.0,0.0,0.0,0.0,0.0,0.0,0.0,0.0,0.0,0.0,0.0,0.0,-0.763,-0.835,0.0,0.0,0.0,0.0,-0.3802,-0.2614,-0.1931,-0.1828,-0.0681,-0.0992,-0.3091,-0.3321,-0.4403,-0.6473,-0.664,-0.7645,-0.9652,-0.9634,-1.0622,-1.2592,-1.4341,-1.6181,-1.8148,-1.9663,-2.222,-2.51,-2.3127,-2.2279,-2.2299,-2.3095,-2.2771,-2.1709,-2.0742,-1.9697,-1.8824,-1.8557,-1.809,-1.7782,-1.8948,-1.8865,-1.8343,-1.8077,-1.8495,0.0,0.0,-1.9571,-1.9625,-1.7857,-1.7613,-1.7231,-1.5031,-1.2998,-1.1403,-1.075,-0.8932,-0.7361,0.0,-0.7703,-0.8802,-1.0166,0.0,-1.2218,-1.3449,-1.2725,-1.1494,-1.0111,-0.8973,-0.791,-0.6812,-0.6552,-0.6896,-0.7913,-0.791,-0.8295,-0.9281,-1.0073,-1.0314,-0.9973,-0.9852,-0.9287,-0.828,-0.7319,0.0,0.0,0.0,0.0,0.0,0.0,0.0,0.0,0.0,0.0,0.0,0.0,0.0,0.0,0.0,0.0,0.0,0.0,0.0,0.0,0.0,0.0,0.0,0.0,0.0,0.0,0.0,0.0,-0.8982,-0.8396,0.0,0.0,-0.546,-0.4013,-0.2701,-0.2113,-0.1443,-0.0656,-0.1565,-0.2529,-0.3337,-0.6161,-0.8063,-0.8698,-1.028,-1.1329,-1.19,-1.1937,-1.2234,-1.2954,-1.482,-1.669,-1.8719,-2.1534,-2.4184,-2.6562,-2.7718,-2.7604,-2.6721,-2.6782,-2.5771,-2.413,-2.3025,-2.1406,-1.9773,-1.9867,-1.9506,-1.8985,-1.8851,-1.9616,-2.0376,-1.9433,-2.0605,-2.2262,-2.2552,-2.2062,-2.1277,-2.0492,-1.946,-1.807,-1.585,-1.3461,-1.1497,-1.1146,-0.9108,-0.7385,-0.7231,-0.7522,-0.8364,-1.0215,-1.0836,-1.1728,-1.3629,-1.2974,-1.2031,-1.1508,-0.9865,-0.8513,-0.8018,-0.7157,-0.6742,-0.6991,-0.75,-0.7931,-0.8313,-0.9116,-0.9396,-0.909,-0.8924,-0.8353,-0.7253,-0.6885,-0.6322,0.0,0.0,0.0,0.0,0.0,0.0,0.0,0.0,0.0,0.0,0.0,0.0,0.0,0.0,0.0,0.0,0.0,0.0,0.0,0.0,0.0,0.0,0.0,0.0,0.0,0.0,-1.0703,-0.9075,-0.831,-0.7296,-0.5814,-0.4254,-0.2819,-0.1433,-0.1237,-0.0826,-0.0079,-0.2078,-0.3646,-0.4475,-0.8115,-1.0349,-1.1007,-1.3329,-1.4027,-1.3193,-1.4539,-1.4823,-1.4216,-1.6649,-1.8528,-2.0113,-2.3603,-2.6242,-2.8123,-3.0561,-3.1285,-3.073,-3.0382,-2.9058,-2.718,-2.5769,-2.3873,-2.1811,-2.1105,-2.0441,-1.9853,-1.9265,-2.0161,-2.1401,-2.075,-2.2303,-2.4372,-2.4721,-2.4194,-2.3311,-2.2182,-2.0735,-1.8962,-1.6429,-1.3684,-1.164,-1.138,-0.9246,-0.7419,-0.7419,-0.7326,-0.8012,-1.0202,-1.0605,-1.1413,-1.3861,-1.3485,-1.2796,-1.2494,-1.0699,-0.9286,-0.8751,-0.7495,-0.6641,-0.6525,-0.7046,-0.7351,-0.7296,-0.8049,-0.8379,-0.8165,-0.8036,-0.761,-0.6899,-0.6569,-0.6143,-0.5589,0.0,0.0,0.0,0.0,0.0,0.0,0.0,0.0,0.0,0.0,0.0,0.0,0.0,0.0,0.0,0.0,0.0,0.0,0.0,0.0,0.0,0.0,0.0,-1.0646,-1.1447,-1.0953,-0.7861,-0.7993,-0.6759,-0.2659,-0.2348,-0.1738,-0.0157,0.0,0.0,0.0,-0.2184,-0.4444,-0.662,-0.8874,-1.1214,-1.348,-1.5597,-1.5597,-1.3638,-1.7403,-1.8265,-1.661,-2.0047,-2.1754,-2.2205,-2.5943,-2.8371,-2.9834,-3.1331,-3.2842,-3.4043,-3.3594,-3.2384,-3.0678,-2.8903,-2.6949,-2.4824,-2.2029,-2.0735,-2.0193,-2.0241,-2.0667,-2.1298,-2.187,-2.3513,-2.5156,-2.5413,-2.5952,-2.5779,-2.2739,-2.1362,-2.0006,-1.6647,-1.3708,-1.166,-1.14,-0.9271,-0.7433,-0.7433,-0.7258,-0.7841,-1.0183,-1.0605,-1.1467,-1.4109,-1.4269,0.0,-1.2937,-1.1565,-1.0181,-0.8887,-0.7545,-0.6689,-0.6532,-0.6518,-0.645,-0.6306,-0.6889,-0.7261,-0.7261,-0.7133,-0.7125,-0.7253,-0.631,-0.5774,-0.5672,0.0,0.0,0.0,0.0,0.0,0.0,0.0,0.0,0.0,0.0,0.0,0.0,0.0,0.0,0.0,0.0,0.0,0.0,0.0,0.0,0.0,0.0,-1.3591,-1.2078,-1.1108,-1.0149,-0.8884,-0.627,-0.4196,-0.3098,-0.1613,-0.0489,0.0,0.0,0.0,0.0,-0.3692,-0.6035,-0.67,-1.0466,-1.3542,-1.5671,-1.6319,-1.7138,-1.8118,-1.9221,-1.9433,-1.8989,-2.1179,-2.2124,-2.2466,-2.7378,-2.9764,-3.0323,-3.2875,-3.4151,-3.4453,-3.3711,-3.1579,-2.8903,-2.8361,-2.6105,-2.3004,-2.1595,-2.1002,-2.0802,-2.0313,-2.1861,-2.3818,-2.3696,-2.5628,-2.7783,-2.7558,-2.7612,-2.7003,-2.3512,-2.2311,-2.1107,-1.7329,-1.4298,-1.2129,-1.1809,-0.9602,-0.7692,-0.7692,-0.7482,-0.8027,-1.0202,-1.0605,-1.1413,-1.3848,-1.4135,0.0,-1.3749,-1.2637,-1.1402,-1.0181,-0.8938,-0.7754,-0.673,-0.6573,-0.645,-0.6306,-0.6338,-0.6358,-0.6358,-0.6244,-0.6172,-0.6216,-0.6038,-0.6273,0.0,0.0,0.0,0.0,0.0,0.0,0.0,0.0,0.0,0.0,0.0,0.0,0.0,0.0,0.0,0.0,0.0,0.0,0.0,0.0,0.0,0.0,-1.6428,-1.4593,-1.2719,-1.0869,-0.8939,-0.6918,-0.4571,-0.2826,-0.201,-0.0763,0.0,0.0,0.0,0.0,0.0,-0.4298,-0.67,-0.67,-1.1048,-1.4458,-1.6565,-1.7547,-1.8607,-1.9907,-2.1665,-2.1996,-2.1259,-2.2817,-2.3972,0.0,-2.8733,-3.0651,-3.1374,-3.3746,-3.459,0.0,0.0,0.0,0.0,0.0,-2.5315,-2.2498,-2.1737,-2.1309,-2.1168,-2.1499,-2.3096,-2.5011,-2.5598,-2.7249,-2.8867,-2.8633,-2.8301,-2.7252,-2.3804,-2.2578,-2.1181,-1.6898,-1.4109,-1.2173,-1.1306,-0.9364,-0.7814,-0.7814,0.0,0.0,-1.0294,-1.0633,-1.1424,-1.39,-1.4162,-1.4135,-1.4255,-1.3144,-1.1861,-1.0645,-0.9349,-0.8039,-0.6736,-0.6566,0.0,0.0,0.0,-0.6152,-0.6213,-0.6193,0.0,0.0,0.0,-0.7273,-0.7804,0.0,0.0,0.0,-1.2015,-1.3244,0.0,0.0,0.0,0.0,0.0,0.0,0.0,0.0,0.0,0.0,0.0,0.0,0.0,0.0,0.0,0.0,-1.7375,-1.5435,-1.3254,-1.0747,-0.7577,-0.3628,-0.3033,-0.2137,-0.0171,0.0,0.0,0.0,0.0,0.0,0.0,0.0,0.0,0.0,0.0,-1.4781,-1.6975,-1.9176,-2.0393,-2.0716,-2.4273,-2.5177,-2.3516,-2.4866,-2.6519,-2.8522,-2.9993,-3.1304,-3.2607,-3.4117,-3.4284,-3.3727,-3.3534,-3.246,-3.0588,-2.7092,-2.4559,-2.2779,-2.2191,0.0,0.0,-2.3106,-2.4248,-2.5353,-2.7163,-2.8314,-2.8965,-2.8867,-2.8194,-2.6793,-2.3699,-2.2218,-2.0409,-1.5872,-1.351,-1.1843,-1.0343,-0.8898,-0.7862,-0.7862,-0.7611,-0.8162,-1.0452,-1.069,-1.1456,-1.4069,-1.4255,-1.4175,-1.4442,-1.3304,-1.2028,-1.0753,0.0,0.0,-0.6855,-0.6626,-0.6477,-0.6334,-0.6327,-0.6428,-0.6692,-0.6832,-0.7014,-0.7282,-0.8164,-0.8608,-0.8599,-1.0567,-1.1591,-1.1707,-1.2492,-1.3144,0.0,0.0,0.0,0.0,0.0,0.0,0.0,0.0,0.0,0.0,0.0,0.0,0.0,0.0,0.0,-2.1503,-1.9435,-1.7133,-1.566,-1.0655,-0.6234,-0.3679,-0.1781,-0.0429,0.0,0.0,0.0,0.0,0.0,0.0,0.0,-0.4261,0.0,-0.6703,-1.2758,-1.7057,-1.9258,-2.1362,-2.338,-2.5171,0.0,0.0,-2.5793,-2.7135,-2.7982,-2.8597,-3.1426,-3.259,-3.2607,-3.4117,-3.3421,-3.1285,-2.9922,-2.9136,-2.8411,-2.481,-2.3242,-2.2779,-2.2191,-2.1911,-2.1997,-2.3189,-2.4561,-2.5971,-2.6928,-2.8295,0.0,-2.8613,-2.7457,-2.5883,-2.3502,-2.1041,-1.8453,-1.564,-1.3039,-1.1028,-1.0432,-0.9195,-0.818,-0.818,-0.7841,-0.8288,-1.0663,-1.079,-1.1402,-1.3809,-1.4122,-1.4108,-1.4162,-1.3939,-1.3269,-1.2039,-1.0889,-0.9672,-0.8388,-0.7303,-0.6593,-0.6477,-0.647,-0.6933,-0.7975,-0.8057,-0.8541,-0.9529,-0.9735,-1.0262,-1.1021,-1.1472,-1.2068,-1.2883,-1.3041,-1.3211,0.0,0.0,0.0,0.0,0.0,0.0,0.0,0.0,0.0,0.0,0.0,-2.0681,0.0,0.0,-2.2552,-2.3581,-2.0866,-1.8037,-1.6487,-1.0771,-0.5864,-0.3608,-0.1365,0.0,0.0,0.0,0.0,0.0,0.0,0.0,0.0,-0.4255,-0.6741,-0.6703,-1.3164,-1.7629,-1.9907,-2.2006,-2.4191,-2.6386,-2.6386,-2.6386,-2.6452,-2.7802,-2.8911,-2.9907,-3.2225,-3.3326,-3.3594,-3.3927,-3.2808,-3.0642,-2.8886,-2.7635,-2.6506,-2.3856,-2.2928,-2.2806,-2.2352,-2.2111,-2.2173,-2.3408,-2.4796,-2.6188,-2.7181,-2.7932,-2.8333,-2.7657,-2.6263,-2.4353,-2.1572,-1.9661,-1.7598,-1.3912,-1.1949,-1.0612,-0.9653,-0.8886,-0.8357,-0.8333,-0.8024,-0.8549,-1.0894,-1.098,-1.1489,-1.3756,-1.4082,-1.4082,-1.4082,-1.4082,-1.3646,-1.2419,-1.175,-1.0615,-0.8869,-0.7413,-0.6552,-0.6518,-0.7023,-0.7652,-0.8352,-0.9064,-0.9705,-1.0407,-1.095,-1.1491,-1.1999,-1.2589,-1.3149,-1.3654,-1.3654,-1.3494,0.0,0.0,0.0,0.0,0.0,0.0,0.0,0.0,-1.9186,-2.1078,-2.2058,-2.2699,-2.306,-2.3474,-2.3917,-2.4472,-2.1533,-1.8579,-1.6747,-1.0815,-0.6035,-0.4193,-0.1625,0.0,0.0,0.0,0.0,0.0,0.0,0.0,0.0,-0.4253,-0.6881,-0.7277,-1.3734,-1.8272,-2.0473,-2.2659,-2.4442,-2.574,-2.6228,-2.6122,-2.5714,-2.7545,-2.9164,-3.0665,-3.2245,-3.3354,-3.4035,-3.3603,-3.2155,-3.0189,-2.8755,-2.6624,-2.4288,-2.3256,-2.2928,-2.2819,-2.2525,-2.2231,-2.22,-2.3534,-2.4688,-2.5736,-2.6939,-2.7133,-2.6721,-2.5961,-2.4401,-2.2261,-1.9147,-1.7802,-1.6236,-1.2156,-1.0849,-1.02,-0.8902,-0.8567,-0.8492,-0.8377,-0.8208,-0.8733,-1.0846,-1.104,-1.1659,-1.3831,-1.4122,-1.4082,-1.4082,-1.4082,-1.373,-1.276,-1.2326,-1.1213,-0.8903,-0.7802,-0.716,-0.6957,-0.7998,-0.8801,-0.9156,-1.02,-1.0932,-1.1252,-1.2163,-1.2632,-1.2632,-1.3646,-1.4082,-1.4082,-1.4082,-1.3841,-1.7876,-1.7355,0.0,-1.7076,-1.7521,-1.847,0.0,0.0,-2.3306,-2.3989,-2.4476,-2.4596,-2.4142,-2.4716,-2.4683,-2.287,-2.0993,-1.9037,-1.6876,-1.0843,-0.6617,-0.6366,-0.2547,0.0,0.0,0.0,0.0,0.0,0.0,0.0,0.0,-0.4284,-0.76,-0.9482,-1.6,-2.0554,-2.274,-2.492,-2.5171,-2.346,-2.5489,-2.5281,-2.3272,-2.6808,-2.8313,-2.8425,-3.0943,-3.1938,-3.1815,-3.2957,-3.1451,-2.8492,-2.8295,-2.5137,-2.0882,-2.2366,-2.2928,-2.2819,-2.2525,-2.2231,-2.22,-2.3534,-2.3953,-2.4055,-2.5256,-2.5525,-2.509,-2.3053,-2.1278,-1.9524,-1.7273,-1.4693,-1.2534,-1.1634,-1.039,-0.9321,-0.9139,-0.8872,-0.8682,-0.8662,-0.8438,-0.8693,-0.9962,-1.0854,-1.2124,-1.4156,-1.4255,-1.4082,-1.4082,-1.4082,-1.4039,-1.3913,-1.2917,-1.1304,-0.8912,-0.948,-0.9535,-0.8506,-0.9535,-1.0679,-1.1804,-1.2008,-1.2608,-1.3688,-1.3828,-1.3913,-1.3913,-1.4039,-1.4082,-1.4082,-1.4082,-1.4055,-1.8771,0.0,0.0,0.0,-1.9369,-2.0648,-2.2319,-2.3934,-2.5304,-2.6226,-2.6386,-2.6279,-2.6026,-2.6012,-2.5296,0.0,-2.1151,-1.9095,-1.6893,-1.087,-0.6701,-0.6738,-0.2744,0.0,0.0,0.0,0.0,0.0,0.0,0.0,0.0,-0.4248,-0.7722,-0.9803,-1.6408,-2.0312,-2.12,-2.338,-2.338,-2.1281,-2.21,-2.1975,-2.1072,-2.4723,-2.732,-2.9146,-2.9948,-3.0743,-3.1432,-3.1746,-3.0466,-2.8163,-2.8163,-2.5554,-2.1665,-2.139,-2.1252,-2.1227,-2.1115,-2.1581,-2.2351,-2.2863,-2.3508,-2.4101,-2.4117,-2.3489,-2.25,-2.1117,-1.8869,-1.6406,-1.453,-1.3022,-1.1737,-1.0626,-0.9852,-0.9344,-0.9344,-0.9191,-0.9049,-0.8879,-0.8743,-0.8966,-1.0063,-1.0456,-1.1444,-1.3897,-1.4495,-1.4536,-1.4362,-1.4335,-1.4269,-1.4108,-1.3027,-1.1892,-1.09,-1.0553,-1.0188,-0.9737,-1.0783,-1.163,-1.2152,-1.2952,-1.3603,-1.4082,-1.4082,-1.4082,-1.4082,-1.4082,-1.4082,-1.4082,-1.4082,-1.4082,-1.9359,0.0,0.0,-2.0674,-2.2025,-2.3337,-2.4569,-2.5972,-2.7175,-2.8016,-2.7829,-2.7455,-2.7295,-2.672,0.0,-2.2544,-2.0772,-1.8865,-1.6073,-1.0967,-0.7506,-0.742,-0.3961,-0.131,-0.0838,0.026,0.097,0.096,0.0964,0.0961,0.095,-0.3905,-0.7722,-0.9848,-1.5787,-1.9258,-1.9907,-2.0835,-2.0179,-1.8082,-1.857,-1.8465,-1.7919,-2.1582,-2.4442,-2.6658,-2.7285,-2.8109,-2.9075,-2.9757,-2.9017,-2.7437,-2.7437,-2.5292,-2.2056,-2.0641,-2.0409,-2.0894,-2.0894,-2.1556,-2.2418,-2.2418,-2.3001,-2.3537,-2.2469,-2.1326,-2.0093,-1.8458,-1.6234,-1.3905,-1.2213,-1.1574,-1.1129,-0.9912,-0.9551,-0.9442,-0.9442,-0.9757,-1.0004,-0.9771,-1.0054,-1.0555,-1.1203,-1.1401,-1.2159,-1.4032,-1.4902,-1.519,-1.4803,-1.4616,-1.4402,-1.4122,-1.3336,-1.2674,-1.2322,-1.1778,-1.1299,-1.0952,-1.2022,-1.2659,-1.2659,-1.3584,-1.4082,-1.4082,-1.4082,-1.4082,-1.4082,-1.4082,-1.4082,-1.4082,-1.4082,-1.4082,0.0,0.0,-2.2378,-2.4389,-2.6001,-2.7399,-2.8572,-2.9165,-2.9379,-2.9419,-2.8724,-2.802,-2.7375,-2.656,-2.4606,-2.0289,-1.9563,-1.813,-1.4031,-1.1172,-0.9437,-0.9322,-0.7018,-0.4663,0.0,0.0916,0.3276,0.3517,0.3314,0.331,0.3519,-0.3013,-0.7642,-0.9795,-1.4293,-1.771,-1.9907,-1.7774,-1.5633,-1.3542,-1.5633,-1.5383,-1.3226,-1.7198,-1.8683,-1.8477,-2.2007,-2.3316,-2.327,-2.6808,-2.7238,-2.5584,-2.5584,-2.3502,-2.0533,-2.0215,-2.1252,-2.2791,-2.2791,-2.2604,-2.2418,-2.2418,-2.2218,-2.1727,-1.9756,-1.9084,-1.8239,-1.441,-1.3212,-1.2689,-1.0614,-1.0039,-0.9998,-0.9849,-0.9707,-0.9605,-0.9605,-1.0704,-1.1725,-1.1708,-1.2946,-1.3887,-1.3653,-1.4516,-1.5188,-1.4995,-1.5695,-1.6067,-1.5444,-1.487,-1.4402,-1.4122,-1.4082,-1.3561,-1.2419,-1.3336,-1.3506,-1.231,-1.3366,-1.4026,-1.4026,-1.4082,-1.4082,-1.4082,-1.4082,-1.4082,-1.4082,-1.4082,-1.4082,-1.4082,-1.4082,-1.4082,0.0,0.0,-2.473,-2.64,-2.7923,-2.9285,-3.0261,-3.0274,-3.0007,-2.9806,-2.8283,-2.6493,-2.4672,-2.3317,-2.1652,-1.9116,-1.9065,-1.8867,-1.7619,-1.5578,-1.3936,-1.3304,-1.1382,0.0,0.0,0.0,0.0,0.365,0.3498,0.3432,0.3737,-0.1491,-0.6144,-0.9824,-1.2843,-1.4735,-1.5525,-1.4765,-1.2548,-0.8934,-1.1083,-1.2268,-1.2762,-1.5512,-1.7339,-1.8265,-1.9411,-2.0983,-2.2911,-2.4146,-2.5028,-2.5517,-2.5517,-2.4229,-2.2377,-2.2274,-2.2797,-2.3293,-2.1798,-2.223,-2.3287,-2.3086,-2.21,-2.0808,-1.9749,-1.7709,-1.544,-1.3851,-1.2479,-1.1308,-1.052,-1.0195,-0.9977,-0.9923,-1.064,-1.1355,-1.1355,-1.2548,-1.3635,-1.3548,-1.3924,-1.4147,-1.377,-1.4022,-1.4331,-1.4613,-1.5393,-1.5765,-1.5236,-1.4763,-1.4402,-1.4122,-1.4082,-1.3955,-1.3519,-1.387,-1.3913,-1.3519,-1.387,-1.4082,-1.4082,-1.4082,-1.4082,-1.4082,-1.4082,-1.4082,-1.4082,-1.4082,-1.4082,-1.4082,-1.4082,-1.4082,-2.2164,-2.4356,-2.652,-2.8096,-2.9446,-3.0555,-3.1236,-3.0849,-3.0,-2.8754,-2.7227,-2.5268,-2.2595,-2.1368,-2.0179,-1.8709,-1.8595,-1.8822,-1.9,-1.7653,-1.6809,-1.744,-1.5501,0.0,0.0,0.0,0.0,0.351,0.4466,0.49,0.497,0.0628,-0.3996,-0.8765,-1.1052,-1.2192,-1.2219,-1.1461,-0.9184,-0.5479,-0.6832,-0.8957,-1.1659,-1.3034,-1.4587,-1.6303,-1.685,-1.8214,-2.0108,-2.0757,-2.209,-2.3791,-2.3791,-2.3678,-2.3474,-2.3367,-2.3581,-2.3731,-2.2195,-2.2589,-2.3741,-2.3554,-2.2102,-2.0286,-1.9162,-1.6698,-1.3999,-1.2911,-1.1672,-1.0751,-1.0548,-1.031,-1.0239,-1.0736,-1.1569,-1.2337,-1.2928,-1.4302,-1.5446,-1.5343,-1.5787,-1.6046,-1.5478,-1.524,-1.5167,-1.5263,-1.5776,-1.5858,-1.5115,-1.4803,-1.4522,-1.4135,-1.4082,-1.4082,-1.4082,-1.4447,-1.4657,-1.4657,-1.5019,-1.5228,-1.5228,-1.5228,-1.5061,-1.4699,-1.4657,-1.4489,-1.4082,-1.4082,-1.4082,-1.4082,-1.4082,-1.4292,-2.4115,-2.6052,-2.7843,-2.9553,-3.0621,-3.1316,-3.1543,-3.0902,-2.9438,-2.6549,-2.5583,-2.4275,0.0,0.0,-2.0103,-1.889,-1.8365,-1.8183,-1.8435,-1.7895,-1.8574,0.0,0.0,0.0,0.0,0.0,0.0,0.2692,0.0,0.6944,0.673,0.2854,-0.1649,-0.6546,-0.8896,-1.0058,-0.9951,-0.7694,-0.5421,-0.3159,-0.3207,-0.5502,-0.9472,-0.9712,-1.0753,-1.2451,-1.4353,-1.5051,-1.5081,-1.6838,-1.8727,-2.0538,-2.0682,-2.1941,-2.3612,-2.339,-2.3714,-2.4168,-2.3888,-2.3808,-2.3808,-2.3723,-2.2195,-1.9979,-1.7963,-1.585,-1.3608,-1.1521,-1.09,-1.0826,-1.0595,-1.0405,-1.0693,-1.2077,-1.2378,-1.2775,-1.4381,-1.5983,-1.7161,-1.7149,-1.8331,-1.9172,-1.8611,-1.8009,-1.746,-1.6935,-1.6827,-1.6384,-1.5182,-1.5022,-1.4794,-1.4247,-1.4179,-1.4208,-1.425,-1.5186,-1.5779,-1.5779,-1.6723,-1.7293,-1.7293,-1.7253,-1.6723,-1.5737,-1.5655,-1.513,-1.4082,-1.4082,-1.4082,-1.4082,-1.4082,-1.4657,-2.5812,-2.7883,-2.978,-3.0675,-3.1223,-3.141,-3.0822,-2.9748,-2.8105,-2.578,-2.3509,-2.1058,0.0,0.0,0.0,-1.8455,-1.9586,0.0,-2.3303,-2.509,0.0,-2.6436,0.0,-2.5079,-2.3197,-1.8967,0.0,0.0,-0.1127,0.1902,0.197,0.0843,-0.1213,-0.4091,-0.6504,-0.6905,-0.517,-0.2937,-0.1457,-0.0855,-0.2533,-0.3938,-0.5174,-0.8345,-1.0075,-1.0625,-1.2516,-1.4098,-1.5244,-1.5627,-1.6804,-1.8643,-2.0104,-2.1173,-2.1983,-2.3255,-2.3888,-2.4195,-2.4115,-2.4235,-2.415,-2.2445,-2.0424,-1.829,-1.6065,-1.3953,-1.2151,-1.1468,-1.1192,-1.1063,-1.088,-1.0636,-1.087,-1.2537,-1.3751,-1.4911,-1.638,-1.7923,-1.9011,-1.8803,-1.8897,-1.8985,-1.8838,-1.8317,-1.8115,-1.878,-1.8369,-1.7363,-1.5543,-1.5142,-1.5157,-1.5561,-1.54,-1.5628,-1.6412,-1.6723,-1.6887,-1.6887,-1.7131,-1.7293,-1.7293,-1.6519,-1.5985,-1.5696,-1.4936,-1.4363,-1.4082,-1.4082,-1.4082,-1.4082,-1.4082,-1.4657,-2.7402,-2.9232,-3.0822,-3.1142,-3.1249,-3.0915,-2.9513,-2.8056,-2.6135,-2.2891,-2.0876,0.0,0.0,0.0,0.0,0.0,0.0,0.0,-2.5531,-2.7335,-2.8934,0.0,-2.9486,0.0,-2.7822,-2.3387,-1.9194,0.0,-0.7585,-0.234,-0.149,-0.047,-0.1414,-0.4995,-0.5354,-0.4803,-0.3484,-0.1134,0.0,0.0,-0.1271,-0.2436,-0.3441,-0.5909,-0.802,-0.9861,0.0,-1.241,-1.4129,-1.403,-1.5621,-1.8198,-1.9307,-2.0897,-2.2616,-2.3576,-2.3981,-2.4008,-2.4008,-2.3595,-2.2812,-2.1666,-1.9198,-1.644,-1.518,-1.3305,-1.1586,-1.1436,-1.128,-1.1131,-1.0921,-1.0724,-1.1135,-1.355,-1.4726,-1.5864,-1.8021,-1.9179,-1.972,-1.9426,-1.9676,-1.985,-1.985,-2.0033,-2.0332,-2.082,-2.0827,-2.0313,-1.9052,-1.7675,-1.692,-1.7161,-1.7043,-1.7163,-1.7582,-1.8033,-1.8301,-1.8301,-1.8607,-1.8901,-1.9299,-1.8354,-1.7548,-1.6875,-1.6121,-1.5305,-1.4469,-1.4469,-1.4469,-1.4469,-1.4469,-1.506,-2.8898,-3.0261,-3.1289,-3.1289,-3.0982,-3.0127,-2.8003,-2.6306,-2.3865,-1.9346,0.0,-1.7512,-1.5369,0.0,-1.6962,-1.8957,0.0,-2.1928,-2.6679,-2.7578,-2.9373,-3.4045,-3.1097,-2.9431,-3.1286,-2.6434,-2.3238,-2.3353,-1.414,-0.7431,-0.5106,-0.2141,-0.2639,-0.7184,-0.489,-0.362,-0.3638,-0.1237,0.0,0.0,0.0,-0.1009,-0.2855,-0.3191,-0.5418,-0.8985,0.0,0.0,-1.2266,-1.2434,-1.4576,-1.7815,-1.8421,-2.0556,-2.3508,-2.3951,-2.3981,-2.3768,-2.3728,-2.2283,-2.048,-2.0804,-1.8248,-1.489,-1.4608,-1.3191,-1.1613,-1.1463,-1.1307,-1.1165,-1.1036,-1.0912,-1.1713,-1.4849,-1.5625,-1.6516,-1.9301,-2.0032,-2.006,-1.9979,-2.0756,-2.1526,-2.1677,-2.2543,-2.3265,-2.341,-2.3917,-2.4298,-2.4249,-2.1616,-1.9624,-1.9264,-1.9179,-1.905,-1.8756,-1.9442,-1.9952,-2.0098,-2.0521,-2.1134,-2.1855,-2.0893,-1.971,-1.845,-1.777,-1.6629,-1.5008,-1.5008,-1.5008,-1.5008,-1.5187,-1.5828,-3.0221,-3.1036,-3.1597,-3.1597,-3.0822,-2.9459,-2.7148,-2.4903,0.0,0.0,0.0,-1.6016,-1.5139,-1.5695,0.0,-2.0914,0.0,0.0,0.0,0.0,-3.2552,0.0,0.0,0.0,0.0,0.0,0.0,0.0,0.0,0.0,-1.2246,-0.791,-0.6058,-0.7131,-0.4945,-0.3711,-0.3638,-0.1247,0.0,0.0,0.0,-0.0168,-0.0673,-0.2436,-0.3772,-0.4679,0.0,0.0,-1.0238,-1.1956,-1.3,-1.3868,-1.7284,-1.9005,-1.9896,-2.2841,-2.3808,-2.3728,-2.3487,-2.0943,-1.7957,-1.8487,-1.7035,-1.4727,-1.3119,-1.2206,-1.1762,-1.1619,-1.147,-1.1348,-1.1321,-1.2171,-1.3511,-1.5544,-1.7001,-1.8427,-2.0142,-2.1128,-2.1916,-2.2837,-2.3215,-2.369,-2.4815,-2.4969,-2.574,-2.7965,-2.7873,-2.7962,-2.9052,-2.5632,-2.2974,-2.2448,-2.2144,-2.2154,-2.2494,-2.1924,-2.1902,-2.2776,-2.2109,-2.1719,-2.1875,-1.9877,-1.8676,-1.8407,-1.6462,-1.5356,-1.5008,-1.5008,-1.5008,-1.5008,-1.6036,-1.7077,-3.3918,-3.5013,-3.5479,-3.5207,-3.362,-3.136,-2.8238,0.0,0.0,0.0,0.0,-1.6876,-1.6004,0.0,0.0,0.0,0.0,0.0,0.0,0.0,0.0,0.0,0.0,0.0,0.0,0.0,0.0,0.0,0.0,0.0,-1.5719,-1.1298,-0.7751,-0.5255,-0.4173,-0.3055,-0.1744,-0.054,0.0,0.0,0.0,0.0,0.0,-0.1093,-0.2268,-0.3605,-0.666,0.0,-0.9783,-1.1748,-1.3176,-1.4253,-1.6218,-1.827,-2.0358,-2.2068,-2.3143,-2.3754,-2.3607,-2.0756,-1.7268,-1.7749,-1.5874,-1.3177,-1.2234,-1.1891,-1.1816,-1.1748,-1.1565,-1.16,-1.2562,-1.334,-1.4423,-1.7163,-1.8859,-2.0194,-2.1366,-2.1846,-2.2364,-2.3552,-2.4989,-2.6263,-2.6873,-2.8609,-3.029,-3.1258,-3.1734,-3.2113,-3.2461,-3.0167,-2.7648,-2.5454,-2.5396,-2.5253,-2.464,-2.4744,-2.4638,-2.4323,-2.3557,-2.2935,-2.2519,-2.0388,-1.9152,-1.8968,-1.7026,-1.5836,-1.5418,-1.5418,-1.5773,-1.6415,-1.6979,-1.7868,-3.6964,-3.8382,-3.8877,-3.8342,-3.6047,-3.2908,-2.933,-2.6248,0.0,0.0,-1.8671,-1.8002,-1.6752,0.0,0.0,0.0,0.0,0.0,0.0,0.0,0.0,0.0,0.0,0.0,0.0,0.0,0.0,0.0,0.0,0.0,0.0,-1.417,-1.0145,-0.5762,-0.4795,-0.3235,-0.083,-0.0272,0.0,0.0,0.0,0.0,0.0,0.0,-0.1009,-0.2768,-0.5344,0.0,0.0,-1.1584,-1.3479,-1.4935,-1.531,-1.7426,-2.038,-2.1233,-2.2203,-2.3171,-2.3545,-2.0816,-1.7248,-1.7569,-1.5001,-1.1884,-1.1918,-1.1904,-1.1944,-1.2349,-1.2208,-1.2489,-1.4473,-1.5072,-1.6021,-1.915,-2.0786,-2.1909,-2.248,-2.2836,-2.3336,-2.4228,-2.668,-2.8668,-2.8983,-3.1878,-3.4117,-3.4074,-3.4969,-3.5434,-3.4676,-3.3672,-3.1667,-2.8049,-2.8095,-2.7789,-2.6366,-2.7102,-2.705,-2.5701,-2.4998,-2.4111,-2.298,-2.1062,-1.9761,-1.9295,-1.7688,-1.6686,-1.6293,-1.6238,-1.6842,-1.8087,-1.8365,-1.9042,-3.678,-3.8095,-3.8828,-3.7956,-3.531,-3.2005,-2.8785,0.0,0.0,0.0,-1.8715,-1.7965,-1.6579,-1.6249,0.0,0.0,0.0,0.0,0.0,0.0,0.0,0.0,0.0,0.0,0.0,0.0,0.0,0.0,0.0,0.0,0.0,-1.7991,-1.5572,-1.2808,-0.909,-0.5834,-0.3279,-0.1082,0.0,0.0,0.0,0.0,0.0,0.0,-0.0084,-0.0589,0.0,0.0,0.0,-1.1222,-1.291,-1.2958,-1.4782,-1.5769,-1.6505,-1.9988,-2.1146,-2.1234,-2.28,-2.066,-1.7218,-1.746,-1.5057,-1.2067,-1.2203,-1.2149,-1.2377,-1.397,-1.4281,-1.4654,-1.6829,-1.8256,-1.9511,-2.1045,-2.2616,-2.3577,-2.3002,-2.4832,-2.6544,-2.6285,-2.8349,-3.0493,-3.1702,-3.3281,-3.4944,-3.6577,-3.6916,-3.6576,-3.53,-3.4625,-3.3007,-2.9799,-2.9358,-2.9014,-2.8388,-2.8141,-2.7936,-2.7653,-2.6303,-2.4573,-2.2571,-2.0793,-1.9509,-1.86,-1.7155,-1.687,-1.7894,-1.7646,-1.8133,-1.936,-2.0432,-2.1275,-3.8933,-4.1104,-4.2001,-4.1196,-3.8006,-3.4335,-3.1194,0.0,0.0,-2.131,-2.0655,-1.9782,-1.7358,-1.6848,-1.6855,0.0,0.0,0.0,0.0,0.0,0.0,0.0,0.0,0.0,0.0,0.0,0.0,0.0,0.0,0.0,0.0,-1.958,-1.6058,-1.3613,-1.0779,-0.8088,-0.5721,-0.3329,-0.2127,-0.2169,-0.0685,0.0,0.0,0.0,0.0,-0.0168,0.0,0.0,0.0,-0.9557,-1.1456,-1.2449,-1.3275,-1.4263,-1.5426,-1.6971,-1.8124,-1.8997,-1.9693,-1.8007,-1.5541,-1.5858,-1.4203,-1.2162,-1.2244,-1.2996,-1.3948,-1.4604,-1.5453,-1.6564,-1.8628,-2.034,-2.1632,-2.1819,-2.2326,-2.2744,-2.2657,-2.3554,-2.4688,-2.6018,-2.7726,-2.9463,-3.0854,-3.2814,-3.436,-3.4728,-3.53,-3.5302,-3.4143,-3.3016,-3.1731,-3.0252,-3.0842,-3.102,-3.007,-3.0963,-3.0829,-2.9015,-2.8055,-2.5965,-2.2557,-2.1057,-1.975,-1.8508,-1.7224,-1.7155,-1.8461,-1.8327,-1.9352,-2.1375,-2.1606,-2.2354,-3.9196,-4.1914,-4.3418,-4.2539,-3.9082,-3.5176,0.0,0.0,0.0,-2.25,-2.1875,-2.0914,-1.8458,-1.762,-1.6968,-1.5861,0.0,-1.687,0.0,0.0,0.0,0.0,0.0,0.0,0.0,0.0,0.0,0.0,0.0,0.0,0.0,-2.1513,-1.8043,-1.6467,-1.3172,-1.0578,-0.9019,-0.6042,-0.4218,-0.3537,-0.1795,-0.0678,0.0,0.0,0.0,-0.0084,0.0,0.0,0.0,-0.8593,-1.0565,-1.2345,-1.2305,-1.3086,-1.426,-1.4843,-1.5821,-1.6865,-1.752,-1.6268,-1.4496,-1.4807,-1.3632,-1.2155,-1.2311,-1.3552,-1.5055,-1.5571,-1.7273,-1.9307,-2.0572,-2.1949,-2.2832,-2.2151,-2.2372,-2.2591,-2.2162,-2.2736,-2.3815,-2.5535,-2.7269,-2.8906,-3.0442,-3.2403,-3.3707,-3.3434,-3.3889,-3.3853,-3.2709,-3.1686,-3.0673,-2.9816,-3.1406,-3.2174,-3.1147,-3.2601,-3.2464,-2.9941,-2.8944,-2.6563,-2.2373,-2.1221,-1.9954,-1.8254,-1.7717,-1.806,-1.9367,-1.9714,-2.0971,-2.3121,-2.2843,-2.3399,-3.6367,-3.9219,-4.1621,-4.0762,-3.7305,-3.3535,0.0,0.0,-2.3555,-2.2695,-2.1795,-2.0849,-1.9779,-1.8318,-1.6968,-1.5861,-1.6049,0.0,0.0,0.0,0.0,0.0,0.0,0.0,0.0,0.0,0.0,0.0,0.0,0.0,0.0,0.0,-2.3108,-2.3295,-1.6875,-1.3468,-1.3416,-0.8895,-0.5604,-0.3415,-0.3377,-0.2186,0.0,0.0,0.0,0.0,0.0,0.0,0.0,-0.8702,-1.0775,-1.2488,-1.2345,-1.2196,-1.2359,-1.4334,-1.4953,-1.5009,-1.7008,-1.6371,-1.4745,-1.4849,-1.3716,-1.2318,-1.2454,-1.3635,-1.5276,-1.7175,-2.0352,-2.3177,-2.2939,-2.3086,-2.31,-2.2205,-2.3196,-2.3787,-2.1597,-2.3275,-2.5304,-2.5304,-2.7398,-2.9727,-3.1345,-3.2389,-3.3175,-3.3742,-3.3458,-3.2731,-3.1317,-3.1106,-3.0376,-2.8554,-3.07,-3.2079,-3.1538,-3.2249,-3.1996,-3.0298,-2.8567,-2.5847,-2.1879,-2.1246,-1.9926,-1.7674,-1.865,-1.9772,-2.0999,-2.207,-2.3186,-2.4368,-2.4368,-2.4648,-3.2285,-3.4355,-3.5879,-3.5019,-3.2656,-3.0156,-2.8594,0.0,-2.3105,-2.2266,-2.1641,-2.0813,-1.9432,-1.8807,-1.8273,-1.7784,-1.7776,0.0,0.0,0.0,0.0,0.0,0.0,0.0,0.0,0.0,0.0,0.0,0.0,0.0,0.0,0.0,-2.4726,-2.3446,-1.9917,-1.7348,-1.6002,-1.29,-1.0302,-0.809,-0.6401,-0.5282,-0.4528,-0.2939,0.0,0.0,0.0,0.0,0.0,-0.4885,-0.7183,-1.0219,-1.0173,-1.0969,-1.2121,-1.2669,-1.2817,-1.2831,-1.3362,-1.3115,-1.2663,-1.2926,-1.2611,-1.2477,-1.4091,-1.574,-1.7699,-2.0662,-2.2243,-2.2993,-2.2886,-2.2939,-2.2886,-2.2392,-2.2508,-2.2456,-2.1356,-2.1666,-2.2413,-2.3261,-2.4039,-2.5094,-2.6593,-2.7151,-2.7343,-2.7308,-2.8273,-2.8694,-2.7809,-2.9938,-3.1082,-2.9784,-3.2418,-3.3279,-3.0888,-3.2248,-3.2291,-2.999,-2.8951,-2.6963,-2.3624,-2.2435,-2.0988,-1.902,-1.928,-2.0127,-2.1478,-2.2719,-2.3873,-2.4863,-2.5176,-2.5234,0.0,-3.0781,-3.207,-3.1562,-2.9805,0.0,0.0,0.0,-2.2519,-2.1992,-2.1406,-2.0701,-1.9764,-1.9274,-1.8959,-1.8763,0.0,0.0,0.0,0.0,0.0,0.0,0.0,0.0,0.0,0.0,0.0,0.0,0.0,0.0,0.0,0.0,-2.7572,-2.554,-2.2728,-2.0662,-1.941,-1.6261,-1.3541,-1.1389,-0.9063,-0.7539,-0.662,-0.436,0.0,0.0,0.0,0.0,0.0,-0.3103,-0.5045,-0.8167,-0.888,-0.9899,-1.099,-1.1656,-1.1877,-1.1816,-1.1728,-1.1701,-1.1728,-1.1918,-1.2526,-1.3431,-1.4967,-1.6701,-1.8664,-2.1457,-2.1608,-2.0877,-2.078,-2.0756,-2.082,-2.1243,-2.1187,-2.1145,-2.1407,-2.1216,-2.1436,-2.2818,-2.299,-2.3384,-2.4952,-2.5015,-2.4851,-2.468,-2.6076,-2.6942,-2.655,-2.958,-3.159,-3.0948,-3.3464,-3.3954,-3.0862,-3.2101,-3.2112,-2.9859,-2.8879,-2.7247,-2.4666,-2.3117,-2.1534,-1.9926,-2.0205,-2.0845,-2.1693,-2.406,-2.546,-2.6054,-2.6308,-2.574,0.0,-2.8256,0.0,0.0,0.0,0.0,0.0,0.0,0.0,-2.1855,-2.1152,-2.0625,-2.0644,-1.9784,-1.9152,0.0,0.0,0.0,0.0,0.0,0.0,0.0,0.0,0.0,0.0,0.0,0.0,0.0,0.0,0.0,0.0,0.0,0.0,-2.926,-2.5479,-2.3321,-2.3081,-1.9037,-1.5926,-1.3692,-1.1494,-0.9354,-0.7274,-0.4853,0.0,0.0,0.0,0.0,0.0,-0.2951,-0.4112,-0.6284,-0.8229,-0.9005,-0.9216,-1.1314,-1.1972,-1.1843,-1.1823,-1.1816,-1.1816,-1.183,-1.3243,-1.4942,-1.5201,-1.6591,-1.8349,-1.99,-1.897,-1.748,-1.7258,-1.7348,-1.7778,-1.9278,-1.9755,-2.0214,-2.174,-2.1777,-2.2052,-2.3559,-2.361,-2.3869,-2.5375,-2.5282,-2.5039,-2.5142,-2.6213,-2.7043,-2.7236,-3.0048,-3.1984,-3.2029,-3.4034,-3.4268,-3.1433,-3.1885,-3.1497,-2.9566,-2.8301,-2.6803,-2.5084,-2.3219,-2.1663,-2.0597,-2.1517,-2.2047,-2.2181,-2.5915,-2.7673,-2.76,-2.76,-2.6224,-2.523,0.0,-2.5215,-2.4883,-2.4368,-2.39,0.0,0.0,-2.1797,-2.1465,0.0,-2.0703,-2.1016,0.0,0.0,0.0,0.0,0.0,0.0,0.0,0.0,0.0,0.0,0.0,0.0,0.0,0.0,0.0,0.0,0.0,0.0,0.0,0.0,-3.1136,-2.8534,-2.5638,-2.2553,-2.1447,-2.0016,-1.8003,-1.5706,-1.4436,-1.398,-0.9978,0.0,0.0,0.0,0.0,-0.0757,-0.0746,-0.1961,-0.4031,-0.6191,-0.7911,-0.9505,-1.1384,-1.204,-1.1972,-1.1748,-1.1667,-1.1687,-1.1796,-1.3316,-1.5098,-1.5276,-1.649,-1.7923,-1.8508,-1.8175,-1.7639,-1.748,-1.8496,-1.9653,-1.9889,-2.0854,-2.1854,-2.2191,-2.1911,-2.1679,-2.2116,-2.1933,-2.179,-2.2215,-2.2145,-2.2439,-2.346,-2.4838,-2.6522,-2.8689,-3.1847,-3.4078,-3.4347,-3.6178,-3.5909,-3.2323,-3.2196,-3.0769,-2.7176,-2.6658,-2.6116,-2.5324,-2.2585,-2.1799,-2.334,-2.4189,-2.5265,-2.6683,-2.8224,-2.8495,-2.76,-2.76,-2.6744,-2.5714,-2.4567,-2.3379,-2.2906,-2.2808,-2.2734,-2.2324,0.0,0.0,0.0,0.0,0.0,0.0,0.0,0.0,0.0,0.0,0.0,0.0,0.0,0.0,0.0,0.0,0.0,0.0,0.0,0.0,0.0,0.0,0.0,0.0,0.0,0.0,-3.2784,-3.0357,-2.7762,-2.4921,-2.3153,-2.1679,-2.0511,-1.8377,-1.6933,-1.6082,-1.2602,0.0,0.0,0.0,0.0,-0.1325,-0.0414,-0.0657,-0.1865,-0.4001,-0.6105,-0.8167,-1.0041,-1.1358,-1.2026,-1.1796,-1.2244,-1.3039,-1.3985,-1.5722,-1.7077,-1.5536,-1.625,-1.7534,-1.6963,-1.608,-1.5371,-1.6195,-1.7086,-1.8122,-1.9912,-2.08,-2.1573,-2.2415,-2.2271,-2.1951,-2.1951,-2.171,-2.151,-2.151,-2.2204,-2.2906,-2.345,-2.5526,-2.7742,-2.9773,-3.287,-3.5184,-3.5829,-3.6594,-3.5901,-3.296,-3.1278,-2.9161,-2.6264,-2.5426,-2.4954,-2.4691,-2.2252,-2.1742,-2.3548,-2.5114,-2.7081,-2.944,-3.028,-2.9986,-2.8773,-2.8556,-2.7132,-2.6994,-2.5147,-2.3299,-2.2758,-2.2617,-2.248,-2.1992,0.0,0.0,0.0,0.0,0.0,0.0,0.0,0.0,0.0,0.0,0.0,0.0,0.0,0.0,0.0,0.0,0.0,0.0,0.0,0.0,0.0,0.0,0.0,0.0,0.0,0.0,-3.4186,-3.16,-2.9607,-2.8034,-2.4347,-2.2441,-2.211,-2.0188,-1.8436,-1.6782,-1.4507,-1.2146,0.0,0.0,0.0,-0.3399,-0.164,-0.0737,-0.0648,-0.2802,-0.4693,-0.6569,-0.8415,-1.0411,-1.2108,-1.215,-1.3354,-1.5062,-1.6646,-1.8245,-1.9055,-1.5935,-1.591,-1.6774,-1.5872,-1.416,-1.304,-1.4671,-1.5366,-1.6362,-1.9719,-2.0519,-2.0963,-2.2585,-2.2632,-2.2418,-2.2418,-2.2178,-2.1991,-2.1991,-2.3457,-2.4555,-2.4414,-2.7086,-2.9564,-3.0839,-3.3332,-3.5328,-3.6268,-3.5935,-3.4904,-3.3034,-2.972,-2.7179,-2.5809,-2.4322,-2.3359,-2.3071,-2.2182,-2.2048,-2.2778,-2.5648,-2.8383,-3.0987,-3.2018,-3.1828,-3.0463,-3.0123,-2.7925,-2.7884,-2.6459,-2.4725,-2.3363,-2.3003,-2.2789,-2.207,0.0,0.0,0.0,0.0,0.0,0.0,0.0,0.0,0.0,0.0,0.0,0.0,0.0,0.0,0.0,0.0,0.0,0.0,0.0,0.0,0.0,0.0,0.0,0.0,0.0,0.0,-3.5722,-3.3376,-3.0994,-2.8698,-2.5257,-2.3694,-2.3805,-2.1521,-2.0547,-2.0642,-1.8311,-1.5269,0.0,0.0,-0.8912,-0.5513,-0.5414,-0.4275,-0.2797,-0.4942,-0.6013,-0.6488,-0.8313,-1.0266,-1.2317,-1.3522,-1.523,-1.6797,-1.6807,-1.7093,-1.7172,-1.652,-1.5487,-1.4877,-1.6477,-1.5775,-1.458,-1.4999,-1.7247,-1.9588,-2.0297,-2.152,-2.2585,-2.2859,-2.2632,-2.2418,-2.2418,-2.2178,-2.1991,-2.1991,-2.3457,-2.4924,-2.5893,-2.7764,-3.0002,-3.2416,-3.3113,-3.3763,-3.4625,-3.4366,-3.3398,-3.1466,-2.814,-2.5575,-2.4267,-2.2758,-2.124,-1.9709,-2.2689,-2.4068,-2.3319,-2.7844,-3.0599,-3.1404,-3.3379,-3.3444,-3.1803,-3.2157,-3.0437,-2.7837,-2.684,-2.5694,-2.4363,-2.3604,-2.2871,-2.1777,-2.1719,0.0,0.0,0.0,0.0,0.0,0.0,0.0,0.0,0.0,0.0,0.0,0.0,0.0,0.0,0.0,0.0,0.0,0.0,0.0,0.0,0.0,0.0,0.0,0.0,0.0,0.0,-3.323,-3.1345,-3.0244,-2.7546,-2.5345,-2.3728,-2.2801,-2.192,-2.1105,-2.0027,-1.794,-1.5118,0.0,-1.1874,-0.9014,-0.7933,-0.6373,-0.4686,-0.5621,-0.6693,-0.8026,-1.0965,-1.259,-1.3737,-1.6542,-1.8019,-1.8894,-1.9609,-1.9855,-1.9628,-1.8405,-1.7423,-1.6783,-1.6767,-1.5809,-1.5302,-1.752,-1.9194,-2.0592,-2.1732,-2.2449,-2.2928,-2.2928,-2.2752,-2.2659,-2.2659,-2.2552,-2.2781,-2.3757,-2.5398,-2.689,-2.7895,-2.9653,-3.1324,-3.2877,-3.3077,-3.345,-3.4324,-3.3407,-3.2255,-3.1116,-2.7895,-2.4658,-2.1601,-2.0816,-2.0415,-2.0373,-2.2737,-2.4291,-2.4835,-2.842,-3.0833,-3.1945,-3.3363,-3.3687,-3.2981,-3.2933,-3.1178,-2.7718,-2.7057,-2.6372,-2.5304,-2.4199,-2.3113,-2.2171,-2.2324,0.0,0.0,0.0,0.0,0.0,0.0,0.0,0.0,0.0,0.0,0.0,0.0,0.0,0.0,0.0,0.0,0.0,0.0,0.0,0.0,0.0,0.0,0.0,0.0,0.0,0.0,-3.303,-3.1614,-3.1114,-2.9405,-2.7108,-2.4259,-2.4567,-2.3604,-2.1678,-2.174,-2.0484,-1.8197,-1.671,-1.4925,-1.2963,-1.1346,-0.9345,-0.7169,-0.7169,-0.8147,-1.0,-1.3929,-1.5516,-1.6112,-1.8999,-2.035,-2.0914,-2.196,-2.2365,-2.207,-2.031,-1.9471,-1.8928,-1.7906,-1.6736,-1.6429,-1.969,-2.0674,-2.1221,-2.2937,-2.3086,-2.2928,-2.2928,-2.2928,-2.2928,-2.2928,-2.2928,-2.3461,-2.5181,-2.6639,-2.8014,-2.9457,-3.076,-3.1836,-3.2625,-3.2649,-3.2797,-3.3343,-3.2213,-3.1031,-3.0079,-2.7668,-2.459,-2.0658,-2.0028,-2.0516,-2.2024,-2.32,-2.4496,-2.61,-2.8553,-3.0665,-3.228,-3.3254,-3.3839,-3.4124,-3.3504,-3.1498,-2.8187,-2.7575,-2.683,-2.5948,-2.482,-2.3966,-2.4106,-2.4531,0.0,-2.5898,0.0,0.0,0.0,0.0,0.0,0.0,0.0,0.0,0.0,0.0,0.0,0.0,0.0,0.0,0.0,0.0,0.0,0.0,0.0,0.0,0.0,0.0,0.0,0.0,0.0,-3.2296,-3.0284,-2.9699,-2.8674,-2.7182,-2.7214,-2.6299,-2.4613,-2.4838,-2.3119,-1.9924,-2.0126,-1.9033,-1.71,-1.7044,-1.4744,-1.1311,-1.1311,-1.1308,-1.1769,-1.583,-1.829,-1.9669,-1.9644,-2.0959,-2.2629,-2.2205,-2.2205,-2.2245,-2.162,-2.0318,-1.9316,-2.0786,-2.003,-1.8904,-1.9922,-2.1171,-2.2415,-2.3124,-2.3086,-2.2928,-2.2928,-2.2928,-2.2928,-2.2928,-2.2928,-2.3461,-2.5181,-2.5584,-2.6713,-2.9704,-2.9896,-3.0131,-3.1444,-3.1309,-3.0935,-3.0519,-3.0384,-2.939,-2.7215,-2.6808,-2.5775,-2.3631,-2.1902,-2.176,-2.3582,-2.4785,-2.5631,-2.61,-2.8853,-3.0936,-3.228,-3.3677,-3.4679,-3.5369,-3.4607,-3.2117,-2.7745,-2.7146,-2.6663,-2.6317,-2.5622,0.0,0.0,-2.5878,-2.6697,-2.6458,-2.7441,0.0,0.0,0.0,0.0,0.0,0.0,0.0,0.0,0.0,0.0,0.0,0.0,0.0,0.0,0.0,0.0,0.0,0.0,0.0,0.0,0.0,0.0,0.0,0.0,-3.2231,-3.1442,-3.1271,-3.0771,-2.9984,-2.8014,-2.6793,-2.615,-2.6277,-2.5609,-2.4284,-2.3412,-2.1865,-1.9979,-1.9038,-1.7066,-1.4596,-1.4596,-1.5214,-1.6343,-1.9061,-2.1108,-2.2734,-2.3782,-2.4704,-2.5287,-2.4879,-2.4262,-2.3542,-2.3178,-2.2779,-2.2554,-2.2979,-2.3403,-2.3377,-2.1673,-2.1684,-2.2258,-2.2672,-2.2672,-2.2632,-2.2819,-2.2928,-2.2928,-2.2928,-2.2928,-2.3802,-2.6706,-2.6239,-2.6912,-3.1169,-3.0493,-2.9965,-3.1324,-3.1152,-3.082,-3.0644,-3.0371,-2.9734,-2.8631,-2.7602,-2.7026,-2.7013,-2.4305,-2.3507,-2.5151,-2.5684,-2.6388,-2.7438,-2.8509,-3.012,-3.228,-3.2833,-3.3541,-3.4384,-3.324,-3.071,-2.6892,-2.6499,-2.6227,-2.6202,0.0,0.0,-2.6973,-2.7767,-2.8562,-2.8978,-2.9569,0.0,0.0,0.0,0.0,0.0,0.0,0.0,0.0,0.0,0.0,0.0,0.0,0.0,0.0,0.0,0.0,0.0,0.0,0.0,0.0,0.0,0.0,0.0,0.0,0.0,-3.1953,-3.1836,-3.1543,-3.1035,-2.8931,-2.7693,-2.7199,-2.7255,-2.6927,-2.6267,-2.525,-2.4044,-2.2708,-2.1163,-1.94,-1.7719,-1.8236,-1.912,-2.032,-2.2167,-2.3588,-2.4715,-2.5893,-2.6461,-2.6654,-2.6277,-2.5738,-2.5114,-2.4839,-2.5026,-2.5291,-2.4966,-2.5816,-2.6305,-2.4045,-2.3429,-2.3436,-2.3765,-2.3837,-2.3762,-2.3468,-2.3444,-2.3392,-2.2862,-2.3256,-2.4627,-2.749,-2.6946,-2.7605,-3.1956,-3.076,-2.9819,-3.1304,-3.1152,-3.1171,-3.1794,-3.1451,-3.1277,-3.1456,-2.9934,-2.9174,-2.9579,-2.6865,-2.5864,-2.7381,-2.7435,-2.7883,-2.89,-2.8495,-2.9408,-3.1673,-3.1519,-3.1806,-3.2425,-3.0936,-2.8359,-2.5762,-2.5611,-2.5611,0.0,0.0,0.0,-3.0628,-3.0361,-3.0789,-3.4149,0.0,0.0,0.0,0.0,0.0,0.0,0.0,0.0,0.0,0.0,0.0,0.0,0.0,0.0,0.0,0.0,0.0,0.0,0.0,0.0,0.0,0.0,0.0,0.0,0.0,0.0,-3.1504,-3.1094,-3.0644,-3.0195,-3.0195,-2.9374,-2.7849,-2.811,-2.7106,-2.5158,-2.5456,-2.5603,-2.5481,-2.3977,-2.2193,-2.0684,-2.2205,-2.2824,-2.3071,-2.496,-2.5603,-2.5615,-2.5256,-2.5598,-2.6183,-2.59,-2.6356,-2.6818,-2.6504,-2.6714,-2.7071,-2.6707,-2.6998,-2.726,-2.6753,-2.6529,-2.6533,-2.6802,-2.69,-2.6455,-2.4789,-2.4669,-2.4444,-2.274,-2.4103,-2.5932,-2.7296,-2.7489,-2.8592,-3.1719,-3.033,-2.9525,-3.1265,-3.1152,-3.1658,-3.3707,-3.3543,-3.3923,-3.5376,-3.3746,-3.215,-3.1169,-2.9353,-2.89,-3.0224,-3.0255,-3.0255,-3.0255,-2.8953,-2.8933,-3.0255,-2.9845,-2.9653,-2.9606,-2.7784,-2.5293,-2.6499,-2.6223,0.0,0.0,0.0,0.0,0.0,-3.3006,0.0,0.0,0.0,0.0,0.0,0.0,0.0,0.0,0.0,0.0,0.0,0.0,0.0,0.0,0.0,0.0,0.0,0.0,0.0,0.0,0.0,0.0,0.0,0.0,0.0,0.0,0.0,0.0,-3.0156,-3.0019,-2.9902,-2.9766,-2.9766,-2.9521,-2.9069,-2.9127,-2.888,-2.8236,-2.712,-2.665,-2.6533,-2.493,-2.3964,-2.3515,-2.3992,-2.4822,-2.588,-2.6457,-2.7405,-2.8384,-2.833,-2.8384,-2.857,-2.8498,-2.7998,-2.7434,-2.7634,-2.8009,-2.8368,-2.8246,-2.9173,-3.0181,-2.9711,-2.9599,-2.9075,-2.703,-2.6553,-2.651,-2.6216,-2.6216,-2.6167,-2.5652,-2.6053,-2.6986,-2.865,-2.7875,-2.8152,-3.1216,-3.0102,-2.9415,-3.0878,-3.2226,-3.3219,-3.3865,-3.471,-3.5279,-3.5366,-3.3581,-3.2041,-3.1063,-3.0523,-2.9786,-2.892,-2.89,-2.876,-2.8461,-2.7088,-2.6898,-2.7974,-2.6897,-2.6238,-2.5875,-2.4398,-2.2502,-2.5988,0.0,0.0,0.0,0.0,0.0,0.0,0.0,0.0,0.0,0.0,0.0,0.0,0.0,0.0,0.0,0.0,0.0,0.0,0.0,0.0,0.0,0.0,0.0,0.0,0.0,0.0,0.0,0.0,0.0,0.0,0.0,0.0,0.0,0.0,0.0,-2.9626,-2.9626,-2.9492,-2.9316,-2.9316,-2.9219,-2.9062,-2.9238,-2.9219,-2.9008,-2.8031,-2.7233,-2.6655,-2.6299,-2.5791,-2.5321,-2.5905,-2.6711,-2.7568,-2.7568,-2.8197,-2.9062,-2.9062,-2.918,-2.9316,-2.9316,-2.8897,-2.842,-2.8661,-2.9071,-2.9387,-2.9387,-3.0441,-3.1426,-3.0996,-3.1463,-3.1387,-2.8811,-2.8655,-2.8932,-2.8455,-2.8448,-2.8368,-2.773,-2.8241,-2.9101,-3.0002,-3.0121,-3.0832,-3.2731,-3.2127,-3.1716,-3.2571,-3.3876,-3.5076,-3.5878,-3.6748,-3.7123,-3.6616,-3.4603,-3.2673,-3.1116,-3.0323,-2.916,-2.7511,-2.8351,-2.8501,-2.7682,-2.6132,-2.5386,-2.5385,-2.4396,-2.3513,-2.269,-2.1683,-2.0369,0.0,0.0,0.0,0.0,0.0,0.0,0.0,0.0,0.0,0.0,0.0,0.0,0.0,0.0,0.0,0.0,0.0,0.0,0.0,0.0,0.0,0.0,0.0,0.0,0.0,0.0,0.0,0.0,0.0,0.0,0.0,0.0,0.0,0.0,0.0,0.0,-2.9453,-2.9453,-2.9258,0.0,-2.8867,-2.8652,-2.8301,-2.8691,-2.8652,-2.8301,-2.8301,-2.7546,-2.6336,-2.7707,-2.7473,-2.639,-2.7722,-2.8242,-2.8242,-2.8242,-2.8242,-2.8242,-2.8281,-2.8535,-2.8867,-2.8867,-2.9121,-2.9509,-2.9548,-2.9785,-3.0078,-3.0137,-3.0723,-3.125,-3.0859,-3.216,-3.3074,-3.1363,-3.2146,-3.2866,-3.1357,-3.1249,-3.1014,-2.9531,-3.0768,-3.1919,-3.1525,-3.3473,-3.5178,-3.5288,-3.5244,-3.5244,-3.5288,-3.5992,-3.7137,-3.8848,-3.9283,-3.9097,-3.8383,-3.6102,-3.3661,-3.1212,-2.9333,-2.7726,-2.6372,-2.8264,-2.8655,-2.7214,-2.5488,-2.3965,-2.2695,-2.2176,-2.1281,-2.0068,-1.9635,-1.876,0.0,0.0,0.0,0.0,0.0,0.0,0.0,0.0,0.0,0.0,0.0,0.0,0.0,0.0,0.0,0.0,0.0,0.0,0.0,0.0,0.0,0.0,0.0,0.0,0.0,0.0,0.0,0.0,0.0,0.0,0.0,0.0,0.0,0.0,0.0,-2.8906,-2.8574,-2.8574,-2.8516,0.0,-2.8437,-2.8379,-2.8301,-2.8379,-2.8379,-2.8301,-2.8301,-2.7927,-2.7391,-2.8038,-2.7927,-2.7405,-2.7688,-2.7865,-2.7865,-2.7865,-2.7865,-2.7851,-2.8184,-2.8359,-2.8437,-2.8437,-2.8496,-2.8633,-2.8965,-2.9121,-2.9258,-2.9609,-2.9844,-2.9961,-2.9883,-3.0929,-3.1947,-3.1533,-3.3197,-3.4736,-3.436,-3.4336,-3.4267,-3.3966,-3.422,-3.451,-3.4423,-3.4891,-3.5288,-3.5288,-3.5007,-3.4894,-3.5244,-3.7648,-3.9082,-3.8544,-4.042,-4.0461,-3.7412,-3.531,-3.3099,-3.0621,-2.9099,-2.8174,-2.7833,-2.6949,-2.5733,-2.4181,-2.2484,-2.141,-2.1032,-1.9603,-1.8777,-1.8508,-1.8193,-1.7898,0.0,0.0,0.0,0.0,0.0,0.0,0.0,0.0,0.0,0.0,0.0,0.0,0.0,0.0,0.0,0.0,0.0,0.0,0.0,0.0,0.0,0.0,0.0,0.0,0.0,0.0,0.0,0.0,0.0,0.0,0.0,0.0,0.0,0.0,-2.8613,-2.8516,-2.8301,-2.8301,-2.8301,-2.8301,-2.8301,-2.8184,-2.8008,-2.8203,-2.8301,-2.8301,-2.8301,-2.8047,-2.7748,-2.8125,-2.8047,-2.7748,-2.7891,-2.7969,-2.7969,-2.7969,-2.7969,-2.7988,-2.8223,-2.8301,-2.8301,-2.8301,-2.8301,-2.834,-2.8555,-2.8613,-2.8672,-2.8887,-2.9101,-2.9258,-2.9258,-3.0478,-3.1692,-3.1692,-3.3908,-3.5956,-3.5956,-3.6164,-3.6379,-3.6379,-3.6379,-3.6379,-3.6379,-3.6942,-3.7299,-3.7038,-3.7044,-3.7115,-3.74,-3.9132,-4.0012,-3.9075,-3.9686,-3.8901,-3.5736,-3.372,-3.1677,-2.9501,-2.8708,-2.8014,-2.7276,-2.5505,-2.4076,-2.3083,-2.1348,-1.9979,-1.9085,-1.8211,-1.7822,-1.7822,-1.7662,-1.7582,0.0,0.0,0.0,0.0,0.0,0.0,0.0,0.0,0.0,0.0,0.0,0.0,0.0,0.0,0.0,0.0,0.0,0.0,0.0,0.0,0.0,0.0,0.0,0.0,0.0,0.0,0.0,0.0,0.0,0.0,0.0,0.0,-2.8652,-2.8301,-2.8301,-2.8301,-2.8301,-2.8223,-2.8184,-2.8184,-2.8105,-2.7891,-2.7559,-2.791,-2.8066,-2.8066,-2.8066,-2.7832,-2.748,-2.7988,-2.7891,-2.7532,-2.791,-2.8066,-2.8066,-2.8066,-2.8125,-2.8203,-2.8262,-2.8301,-2.8301,-2.8301,-2.8301,-2.8301,-2.8301,-2.8301,-2.8301,-2.8301,-2.8697,-2.9061,-2.8863,-3.0329,-3.1838,-3.1623,-3.4027,-3.6482,-3.6578,-3.7006,-3.744,-3.7705,-3.7853,-3.7849,-3.7849,-3.8847,-3.9396,-3.8994,-3.917,-3.9396,-3.9396,-4.0004,-4.0028,-3.9164,-3.8264,-3.6554,-3.3742,-3.2007,-3.0302,-2.8427,-2.8301,-2.7726,-2.6554,-2.48,-2.359,-2.3008,-2.091,-1.9163,-1.7809,-1.7716,-1.7662,-1.7662,-1.7609,-1.7582,0.0,0.0,0.0,0.0,0.0,0.0,0.0,0.0,0.0,0.0,0.0,0.0,0.0,0.0,0.0,0.0,0.0,0.0,0.0,0.0,0.0,0.0,0.0,0.0,0.0,0.0,0.0,0.0,0.0,0.0,0.0,-2.8379,-2.8359,-2.8301,-2.8301,-2.8301,-2.8301,-2.793,-2.7806,-2.7806,-2.7363,-2.7148,-2.7109,-2.7168,-2.7187,-2.7187,-2.7187,-2.6953,-2.6621,-2.7474,-2.7285,-2.6602,-2.7031,-2.7187,-2.7187,-2.7187,-2.7422,-2.7865,-2.8164,-2.8301,-2.8301,-2.8301,-2.8301,-2.8301,-2.8301,-2.8301,-2.8301,-2.8301,-2.9205,-2.9858,-2.868,-3.0297,-3.1922,-3.0757,-3.2993,-3.5556,-3.6009,-3.651,-3.728,-3.8486,-3.9089,-3.9413,-3.9413,-3.9193,-3.8994,-3.8919,-3.8517,-3.8241,-3.8241,-3.9249,-3.9077,-3.6734,-3.7318,-3.6148,-3.1847,-3.1254,-3.0302,-2.8427,-2.8301,-2.8228,-2.8014,-2.6553,-2.4961,-2.339,-2.0296,-1.8697,-1.8744,-1.8182,-1.7929,-1.7929,-1.7702,-1.7582,0.0,0.0,0.0,0.0,0.0,0.0,0.0,0.0,0.0,0.0,0.0,0.0,0.0,0.0,0.0,0.0,0.0,0.0,0.0,0.0,0.0,0.0,0.0,0.0,0.0,0.0,0.0,0.0,0.0,0.0,-2.7578,-2.7578,-2.7578,-2.7578,-2.7578,-2.7578,-2.7578,-2.7402,-2.7305,-2.7305,-2.7109,-2.6894,-2.666,-2.666,-2.6797,-2.7031,-2.7285,-2.6992,-2.6445,-2.7356,-2.7219,-2.6445,-2.7129,-2.7383,-2.7402,-2.7637,-2.7851,-2.8047,-2.8223,-2.8301,-2.8301,-2.8301,-2.8301,-2.8441,-2.9197,-2.9408,-2.9565,-3.0307,-3.0979,-3.1265,-3.0669,-3.1418,-3.2129,-3.1571,-3.2488,-3.3846,-3.4904,-3.6349,-3.7763,-3.8692,-3.8793,-3.8843,-3.917,-3.8768,-3.8391,-3.8391,-3.8165,-3.8015,-3.8015,-3.7816,-3.7171,-3.5681,-3.4653,-3.3144,-3.0852,-2.9958,-2.9153,-2.8354,-2.8301,-2.8301,-2.8301,-2.6879,-2.53,-2.3646,-2.1229,-1.9584,-1.8677,-1.8195,-1.7995,-1.7982,-1.7729,-1.7582,0.0,0.0,0.0,0.0,0.0,0.0,0.0,0.0,0.0,0.0,0.0,0.0,0.0,0.0,0.0,0.0,0.0,0.0,0.0,0.0,0.0,0.0,0.0,0.0,0.0,0.0,0.0,0.0,0.0,0.0,-2.6855,-2.6855,-2.6914,-2.7012,-2.7012,-2.7012,-2.7012,-2.6914,-2.6797,-2.6699,-2.6699,-2.6523,-2.623,-2.623,-2.6387,-2.6699,-2.7031,-2.6816,-2.6289,-2.7031,-2.6894,-2.6309,-2.7168,-2.75,-2.7559,-2.7969,-2.8203,-2.8301,-2.8301,-2.8301,-2.8301,-2.8301,-2.8548,-2.9006,-3.0016,-3.0514,-3.103,-3.2028,-3.2532,-3.2733,-3.2381,-3.2582,-3.2733,-3.2381,-3.2582,-3.3178,-3.4331,-3.6309,-3.7965,-3.8542,-3.8291,-3.814,-3.8567,-3.8165,-3.769,-3.732,-3.7171,-3.6974,-3.6603,-3.5654,-3.4782,-3.4032,-3.2096,-3.058,-2.9848,-2.8847,-2.8301,-2.8301,-2.8301,-2.8301,-2.8301,-2.7222,-2.5936,-2.4433,-2.3116,-2.1173,-1.8597,-1.8303,-1.8062,-1.7982,-1.7809,-1.7662,0.0,0.0,0.0,0.0,0.0,0.0,0.0,0.0,0.0,0.0,0.0,0.0,0.0,0.0,0.0,0.0,0.0,0.0,0.0,0.0,0.0,0.0,0.0,0.0,0.0,0.0,0.0,0.0,0.0,0.0,-2.6426,-2.6426,-2.6602,-2.7012,-2.7012,-2.7012,-2.7012,-2.6621,-2.6211,-2.5752,-2.5752,-2.5752,-2.5732,-2.5732,-2.5732,-2.5752,-2.5771,-2.5771,-2.5752,-2.6269,-2.6191,-2.581,-2.6719,-2.7051,-2.7109,-2.7539,-2.7949,-2.8301,-2.8301,-2.8301,-2.8301,-2.8301,-2.9164,-3.0224,-3.0255,-3.1184,-3.223,-3.228,-3.3254,-3.397,-3.2632,-3.3304,-3.397,-3.2632,-3.3304,-3.4455,-3.503,-3.626,-3.7387,-3.7939,-3.8015,-3.8015,-3.804,-3.7588,-3.6798,-3.5519,-3.4914,-3.4113,-3.2773,-3.2572,-3.1993,-3.0712,-3.0453,-2.9848,-2.8495,-2.8335,-2.8301,-2.8301,-2.8301,-2.8301,-2.8301,-2.8228,-2.7511,-2.5991,-2.5918,-2.3552,-1.8905,-1.8611,-1.833,-1.7995,-1.7969,-1.7862,0.0,0.0,0.0,0.0,0.0,0.0,0.0,0.0,0.0,0.0,0.0,0.0,0.0,0.0,0.0,0.0,0.0,0.0,0.0,0.0,0.0,0.0,0.0,0.0,0.0,0.0,0.0,0.0,0.0,0.0,-2.5117,-2.5117,-2.5195,-2.5332,-2.5625,-2.5898,-2.6142,-2.6005,-2.5898,-2.5693,-2.5693,-2.5693,-2.5693,-2.5693,-2.5693,-2.5693,-2.5693,-2.5693,-2.5732,-2.6211,-2.6133,-2.5771,-2.668,-2.7012,-2.7109,-2.7812,-2.8164,-2.8301,-2.8301,-2.8301,-2.8301,-2.8301,-2.9197,-3.0463,-3.1316,-3.2555,-3.3822,-3.4703,-3.5307,-3.5571,-3.5041,-3.5307,-3.5571,-3.5041,-3.5307,-3.5716,-3.5937,-3.6347,-3.6883,-3.7362,-3.7186,-3.7061,-3.7412,-3.701,-3.6251,-3.4893,-3.4504,-3.3871,-3.2482,-3.152,-3.0824,-3.0359,-2.9513,-2.8794,-2.8335,-2.8301,-2.8301,-2.8301,-2.8301,-2.8301,-2.8301,-2.8301,-2.7618,-2.6155,-2.61,-2.4751,-2.2025,-2.0759,-2.0111,-2.0051,-1.8646,-1.7929,-2.6021,0.0,0.0,0.0,0.0,0.0,0.0,0.0,0.0,0.0,0.0,0.0,0.0,0.0,0.0,0.0,0.0,0.0,0.0,0.0,0.0,0.0,0.0,0.0,0.0,0.0,0.0,0.0,0.0,0.0,-2.3984,-2.3939,-2.4121,-2.4414,-2.4707,-2.5,-2.5245,-2.5245,-2.5323,-2.5508,-2.5508,-2.5586,-2.5693,-2.5693,-2.5693,-2.5693,-2.5693,-2.5693,-2.5713,-2.6055,-2.5996,-2.5771,-2.668,-2.7012,-2.7129,-2.7988,-2.8301,-2.8301,-2.8301,-2.8301,-2.8388,-2.8847,-2.9859,-3.1235,-3.2582,-3.397,-3.5283,-3.6168,-3.6405,-3.6405,-3.6405,-3.6405,-3.6405,-3.6405,-3.6405,-3.6405,-3.6405,-3.6405,-3.6505,-3.6835,-3.6656,-3.6531,-3.6883,-3.625,-3.5259,-3.392,-3.3304,-3.2504,-3.1133,-3.0172,-2.9618,-2.9618,-2.8847,-2.8301,-2.8301,-2.8301,-2.8301,-2.8301,-2.8301,-2.8301,-2.8301,-2.8301,-2.7833,-2.6879,-2.6825,-2.6336,-2.5333,-2.3077,-2.1914,-2.1627,-1.9805,-1.8549,0.0,0.0,0.0,0.0,0.0,0.0,0.0,0.0,0.0,0.0,0.0,0.0,0.0,0.0,0.0,0.0,0.0,0.0,0.0,0.0,0.0,0.0,0.0,0.0,0.0,0.0,0.0,0.0,0.0,-2.2676,-2.3042,-2.3081,-2.3471,-2.4355,-2.4394,-2.4414,-2.4414,-2.4414,-2.4629,-2.5106,-2.5106,-2.5293,-2.5693,-2.5693,-2.5693,-2.5693,-2.5693,-2.5693,-2.5693,-2.5693,-2.5693,-2.5771,-2.666,-2.7012,-2.7109,-2.7969,-2.8281,-2.8301,-2.8301,-2.8301,-2.8495,-2.9859,-3.1214,-3.2532,-3.397,-3.5331,-3.6405,-3.6405,-3.6405,-3.6405,-3.6405,-3.6358,-3.6358,-3.6405,-3.6358,-3.6358,-3.6358,-3.6358,-3.6358,-3.6405,-3.6358,-3.6358,-3.6358,-3.5235,-3.3871,-3.2431,-3.1133,-2.9807,-2.8441,-2.8301,-2.8301,-2.8301,-2.8301,-2.8301,-2.8301,-2.8301,-2.8301,-2.8335,-2.8335,-2.8301,-2.8335,-2.8301,-2.8301,-2.8301,-2.8301,-2.8301,-2.8281,-2.5333,-2.3513,-2.2782,-2.1426,-1.9696,-2.6499,0.0,0.0,0.0,0.0,0.0,0.0,0.0,0.0,0.0,0.0,0.0,0.0,0.0,0.0,0.0,0.0,0.0,0.0,0.0,0.0,0.0,0.0,0.0,0.0,0.0,0.0,0.0,-2.2051,-2.2109,-2.2227,-2.2519,-2.2886,-2.3432,-2.3809,-2.4102,-2.4414,-2.4414,-2.4629,-2.5106,-2.5106,-2.5293,-2.5693,-2.5693,-2.5693,-2.5693,-2.5693,-2.5693,-2.5693,-2.5693,-2.5693,-2.5752,-2.6348,-2.6738,-2.709,-2.7637,-2.8027,-2.8301,-2.8301,-2.8301,-2.8495,-2.9859,-3.1214,-3.2532,-3.397,-3.5331,-3.6405,-3.6405,-3.6405,-3.6405,-3.6405,-3.5667,-3.521,-3.6168,-3.5667,-3.4921,-3.4921,-3.4921,-3.5235,-3.6216,-3.5619,-3.4921,-3.4921,-3.3798,-3.2431,-3.1081,-3.0514,-2.9807,-2.8441,-2.8301,-2.8301,-2.8301,-2.8301,-2.8301,-2.8301,-2.8301,-2.8688,-2.9723,-2.8847,-2.8761,-2.9723,-2.8794,-2.8301,-2.8301,-2.8301,-2.8301,-2.8301,-2.6391,-2.5375,-2.5108,-2.3424,-2.2237,-2.6499,-2.6499,-2.6499,0.0,0.0,0.0,0.0,0.0,0.0,0.0,0.0,0.0,0.0,0.0,0.0,0.0,0.0,0.0,0.0,0.0,0.0,0.0,0.0,0.0,0.0,0.0,0.0,0.0,-2.123,-2.1426,-2.1602,-2.2012,-2.2363,-2.2617,-2.2871,-2.3203,-2.3613,-2.3613,-2.3926,-2.4531,-2.4707,-2.5019,-2.5469,-2.5596,-2.5693,-2.5693,-2.5693,-2.5693,-2.5693,-2.5693,-2.5693,-2.5752,-2.6406,-2.6797,-2.709,-2.7695,-2.8086,-2.8301,-2.8301,-2.8301,-2.8601,-3.0514,-3.1673,-3.2682,-3.4605,-3.5763,-3.6405,-3.6405,-3.6405,-3.6405,-3.6405,-3.5427,-3.4581,-3.5379,-3.4508,-3.3502,-3.3502,-3.3502,-3.3749,-3.4557,-3.4044,-3.3502,-3.3502,-3.2381,-3.1235,-3.0411,-2.9807,-2.9197,-2.8388,-2.8301,-2.8301,-2.8301,-2.8301,-2.8548,-2.9112,-2.9164,-2.9723,-3.103,-3.0411,-3.0068,-3.0276,-2.9565,-2.8847,-2.8281,-2.8301,-2.8301,-2.8301,-2.7438,-2.6624,-2.5829,-2.4631,-2.3642,-2.6499,-2.6499,-2.6499,0.0,0.0,0.0,-2.5234,-2.5008,-2.4675,0.0,0.0,0.0,0.0,0.0,0.0,0.0,0.0,0.0,0.0,0.0,0.0,0.0,0.0,0.0,0.0,0.0,-2.0273,-1.9941,-2.0312,-2.0781,-2.1093,-2.1582,-2.1816,-2.1816,-2.1855,-2.207,-2.2441,-2.248,-2.293,-2.373,-2.4199,-2.4648,-2.5125,-2.5527,-2.5693,-2.5693,-2.5693,-2.5693,-2.5693,-2.5693,-2.5693,-2.5771,-2.6582,-2.6934,-2.7109,-2.7871,-2.8203,-2.8301,-2.8301,-2.8301,-2.8741,-3.1418,-3.228,-3.2783,-3.5547,-3.6405,-3.6405,-3.6405,-3.6405,-3.6358,-3.6216,-3.5162,-3.419,-3.419,-3.3105,-3.2079,-3.2079,-3.2079,-3.2028,-3.1876,-3.1977,-3.2079,-3.2079,-3.0979,-3.0068,-3.0068,-2.9059,-2.8301,-2.8301,-2.8441,-2.8548,-2.8548,-2.8654,-2.9197,-3.0411,-3.0514,-3.1133,-3.2431,-3.2381,-3.1774,-3.0566,-3.0359,-2.965,-2.8354,-2.8301,-2.8301,-2.8301,-2.8301,-2.7481,-2.5878,-2.553,-2.4684,0.0,0.0,0.0,0.0,0.0,0.0,-2.6223,-2.6172,-2.5971,0.0,0.0,0.0,0.0,0.0,0.0,0.0,0.0,0.0,0.0,0.0,0.0,0.0,0.0,0.0,0.0,0.0,-1.9648,-1.9902,-2.0312,-2.0644,-2.0684,-2.1113,-2.1327,-2.1327,-2.1699,-2.1934,-2.2012,-2.2344,-2.2773,-2.3345,-2.4043,-2.4648,-2.5125,-2.5527,-2.5693,-2.5693,-2.5693,-2.5693,-2.5693,-2.5693,-2.5693,-2.5713,-2.5869,-2.6356,-2.7031,-2.7207,-2.7695,-2.8301,-2.8301,-2.8301,-2.8741,-3.1418,-3.228,-3.2783,-3.5547,-3.6405,-3.6405,-3.6405,-3.6405,-3.6168,-3.5066,-3.3749,-3.2705,-3.2705,-3.1673,-3.0669,-3.0669,-3.0669,-3.0359,-2.9303,-2.9964,-3.0669,-3.0669,-2.9565,-2.8708,-2.8708,-2.8441,-2.8301,-2.8301,-2.925,-2.9911,-2.9911,-3.0876,-3.1622,-3.1876,-3.1927,-3.2482,-3.392,-3.2955,-3.218,-3.1927,-3.0876,-2.965,-2.8354,-2.8301,-2.8301,-2.8301,-2.8301,-2.8135,-2.7771,-2.7694,-2.7496,0.0,0.0,0.0,-2.6499,0.0,0.0,0.0,-2.6072,0.0,0.0,0.0,0.0,0.0,0.0,0.0,0.0,0.0,0.0,0.0,0.0,0.0,0.0,0.0,0.0,0.0,0.0,-1.9141,-1.957,-2.0,-2.0234,-2.0234,-2.0664,-2.0898,-2.0898,-2.1113,-2.1328,-2.1562,-2.1992,-2.2422,-2.2852,-2.3691,-2.4336,-2.4766,-2.5195,-2.5527,-2.5693,-2.5693,-2.5693,-2.5693,-2.5693,-2.5693,-2.5732,-2.6161,-2.6641,-2.7031,-2.7266,-2.7734,-2.8262,-2.8047,-2.8125,-2.8741,-3.1418,-3.228,-3.2783,-3.5547,-3.6405,-3.6405,-3.6405,-3.6405,-3.6121,-3.4727,-3.3353,-3.2129,-3.1469,-3.0276,-2.9303,-2.9303,-2.9303,-2.9112,-2.8441,-2.8847,-2.9303,-2.9303,-2.8761,-2.8301,-2.8301,-2.8301,-2.8627,-2.9553,-3.0295,-3.1042,-3.2063,-3.2487,-3.3017,-3.37,-3.3492,-3.392,-3.5307,-3.4117,-3.3055,-3.2331,-3.103,-2.965,-2.8354,-2.8301,-2.8301,-2.8301,-2.8301,-2.8301,-2.8301,-2.8301,-2.8301,0.0,0.0,0.0,0.0,0.0,-2.6373,0.0,0.0,0.0,0.0,0.0,0.0,0.0,0.0,0.0,0.0,0.0,0.0,0.0,0.0,0.0,0.0,0.0,0.0,0.0,0.0,-1.9309,-1.9409,-1.9925,-2.0165,-2.0165,-2.0349,-2.0507,-2.0605,-2.0605,-2.0781,-2.1054,-2.1621,-2.2051,-2.2402,-2.334,-2.4004,-2.4434,-2.4863,-2.5312,-2.5693,-2.5693,-2.5693,-2.5693,-2.5693,-2.5693,-2.5752,-2.6454,-2.6816,-2.6953,-2.7383,-2.7812,-2.8125,-2.7871,-2.8008,-2.8741,-3.1418,-3.2482,-3.3082,-3.4993,-3.5595,-3.5595,-3.5595,-3.5595,-3.5307,-3.397,-3.2755,-3.1571,-3.0224,-2.9112,-2.8301,-2.8301,-2.8301,-2.8301,-2.8301,-2.8301,-2.8301,-2.8301,-2.8301,-2.8301,-2.8301,-2.8301,-2.8953,-3.0831,-3.1317,-3.2184,-3.4025,-3.4091,-3.4373,-3.5327,-3.5016,-3.5138,-3.5953,-3.4969,-3.3674,-3.1977,-3.0618,-2.9408,-2.8301,-2.8301,-2.8301,-2.8301,-2.8301,-2.8301,-2.8301,-2.8301,-2.8301,0.0,0.0,0.0,0.0,-2.6499,0.0,0.0,0.0,0.0,0.0,0.0,0.0,0.0,0.0,0.0,0.0,0.0,0.0,0.0,0.0,0.0,0.0,0.0,0.0,0.0,0.0,0.0,-1.9913,-2.0683,-2.1183,-2.1052,-2.0354,-2.0156,-2.0586,-2.0605,-2.0625,-2.0683,-2.1465,-2.1914,-2.1973,-2.3203,-2.4004,-2.4434,-2.4863,-2.5312,-2.5693,-2.5693,-2.5693,-2.5693,-2.5693,-2.5693,-2.5693,-2.5791,-2.6113,-2.6504,-2.6934,-2.7363,-2.7793,-2.8105,-2.8262,-2.8741,-3.1418,-3.3155,-3.397,-3.3055,-3.2783,-3.2783,-3.2783,-3.2783,-3.2431,-3.1133,-3.0669,-3.0172,-2.8847,-2.8388,-2.8301,-2.8301,-2.8301,-2.8301,-2.8301,-2.8301,-2.8301,-2.8301,-2.8301,-2.8301,-2.8301,-2.8301,-2.8953,-3.0831,-3.2211,-3.3526,-3.4893,-3.6088,-3.6623,-3.6293,-3.6193,-3.5715,-3.4678,-3.4483,-3.3254,-3.0618,-2.925,-2.8441,-2.8301,-2.8301,-2.8301,-2.8301,-2.8301,-2.8301,-2.8301,-2.8301,-2.8301,0.0,0.0,0.0,0.0,0.0,0.0,0.0,0.0,-2.6499,0.0,0.0,0.0,0.0,0.0,0.0,0.0,0.0,0.0,0.0,0.0,0.0,0.0,0.0,0.0,0.0,0.0,0.0,0.0,0.0,-2.1481,-2.0874,-2.0745,-2.0627,-2.0586,-2.0605,-2.0605,-2.0605,-2.1445,-2.1894,-2.1894,-2.293,-2.3633,-2.4062,-2.4492,-2.4922,-2.5371,-2.5577,-2.5693,-2.5693,-2.5693,-2.5693,-2.5693,-2.5693,-2.6152,-2.6777,-2.6953,-2.7441,-2.8027,-2.7949,-2.8086,-2.8601,-3.0514,-3.2101,-3.3055,-3.2482,-3.228,-3.228,-3.228,-3.228,-3.1977,-3.0669,-3.0307,-3.0172,-2.9597,-2.8847,-2.8741,-3.0255,-3.0016,-2.9723,-3.0463,-2.9964,-2.946,-2.946,-2.8794,-2.8301,-2.8301,-2.8301,-2.9273,-3.1989,-3.3131,-3.448,-3.6602,-3.7344,-3.7437,-3.6885,-3.584,-3.4969,-3.4434,-3.2905,-3.1133,-2.9197,-2.8601,-2.8301,-2.8301,-2.8301,-2.8301,-2.8301,-2.8301,-2.8301,-2.8301,-2.8301,-2.8301,-2.6499,0.0,0.0,0.0,0.0,0.0,0.0,0.0,0.0,0.0,0.0,0.0,0.0,0.0,0.0,-2.6499,0.0,0.0,0.0,0.0,0.0,0.0,0.0,0.0,0.0,0.0,0.0,0.0,-2.1739,0.0,-2.1159,-2.1047,-2.0946,-2.0773,-2.0663,-2.0605,-2.0605,-2.1328,-2.1758,-2.1894,-2.2617,-2.3262,-2.3809,-2.4219,-2.4648,-2.5145,-2.5547,-2.5693,-2.5693,-2.5693,-2.5693,-2.5693,-2.5693,-2.6191,-2.6855,-2.6973,-2.748,-2.8139,-2.8363,-2.885,-2.9513,-3.012,-3.0979,-3.1673,-3.1338,-3.1235,-3.1235,-3.1235,-3.1235,-3.0979,-3.0016,-2.9755,-2.9755,-2.9755,-2.9303,-2.9355,-3.1316,-3.1286,-3.1133,-3.2129,-3.1235,-3.0307,-3.0307,-2.9197,-2.8301,-2.8301,-2.8301,-2.9379,-3.2249,-3.3444,-3.4837,-3.6998,-3.7692,-3.7566,-3.6527,-3.5187,-3.4068,-3.3304,-3.1081,-2.9303,-2.8335,-2.8301,-2.8301,-2.8301,-2.8301,-2.8301,-2.8301,-2.8301,-2.8301,-2.8301,-2.8301,-2.8301,0.0,0.0,0.0,-2.6499,0.0,0.0,0.0,0.0,-2.6499,0.0,0.0,0.0,0.0,-2.6499,-2.6499,-2.6499,-2.6474,0.0,0.0,0.0,0.0,0.0,0.0,0.0,0.0,0.0,0.0,-2.198,-2.2377,-2.2621,-2.2468,-2.1288,-2.0797,-2.1183,-2.0791,-2.0605,-2.0605,-2.1016,-2.1465,-2.1894,-2.2324,-2.2969,-2.3809,-2.4219,-2.4648,-2.5145,-2.5547,-2.5693,-2.5693,-2.5693,-2.5693,-2.5693,-2.5693,-2.6016,-2.6465,-2.6875,-2.7305,-2.7944,-2.9642,-3.106,-3.1977,-3.0721,-3.0307,-3.012,-2.8794,-2.8441,-2.8441,-2.8441,-2.8441,-2.8388,-2.8408,-2.8335,-2.8335,-2.8335,-2.9303,-3.0276,-3.038,-3.1367,-3.223,-3.228,-3.1235,-3.0307,-3.0307,-2.9197,-2.8301,-2.8301,-2.8301,-2.9006,-3.0937,-3.2814,-3.4337,-3.5194,-3.6899,-3.7047,-3.47,-3.4434,-3.3254,-3.0618,-2.9164,-2.8335,-2.8301,-2.8301,-2.8301,-2.8301,-2.8301,-2.8301,-2.8301,-2.8301,-2.8301,-2.8301,-2.8301,-2.8301,0.0,0.0,-2.6499,-2.6499,0.0,0.0,0.0,0.0,0.0,0.0,0.0,0.0,0.0,-2.6499,-2.6499,-2.6499,-2.6499,-2.6248,0.0,0.0,0.0,0.0,0.0,0.0,0.0,0.0,0.0,-2.2806,-2.3219,-2.3408,0.0,-2.2602,-2.216,-2.1728,-2.1576,-2.1221,-2.0605,-2.1016,-2.1465,-2.1894,-2.2305,-2.2812,-2.3379,-2.4082,-2.4492,-2.4668,-2.5362,-2.5693,-2.5693,-2.5693,-2.5693,-2.5713,-2.6055,-2.6426,-2.6816,-2.6973,-2.7285,-2.7819,-2.8707,-2.9859,-3.0773,-2.9408,-2.9006,-2.89,-2.8441,-2.8301,-2.8301,-2.8301,-2.8301,-2.8301,-2.8301,-2.8301,-2.8761,-3.0514,-3.0618,-3.103,-3.3726,-3.3995,-3.3723,-3.3723,-3.2605,-3.1316,-3.0463,-2.9386,-2.8711,-2.8711,-2.8711,-2.9695,-3.2497,-3.3777,-3.505,-3.6848,-3.7967,-3.7691,-3.5506,-3.3385,-3.1346,-2.9481,-2.8706,-2.8418,-2.8691,-2.8437,-2.8301,-2.8301,-2.8301,-2.8301,-2.8301,-2.8301,-2.8301,-2.8301,-2.8301,-2.8301,-2.6499,-2.6499,0.0,-2.6499,-2.6499,0.0,-2.6499,0.0,0.0,0.0,0.0,0.0,0.0,0.0,-2.6499,-2.6499,-2.6499,-2.6172,0.0,-2.4958,0.0,0.0,0.0,0.0,0.0,0.0,-2.4324,-2.3195,-2.3678,-2.3878,0.0,0.0,-2.2614,-2.2284,-2.1765,-2.1221,-2.0605,-2.0859,-2.1211,-2.166,-2.209,-2.2519,-2.2906,-2.3965,-2.4414,-2.4473,-2.5304,-2.5693,-2.5693,-2.5693,-2.5771,-2.6045,-2.6794,-2.7222,-2.7402,-2.7282,-2.7811,-2.8677,-2.8906,-2.9565,-3.0172,-2.9303,-2.8708,-2.8301,-2.8301,-2.8301,-2.8301,-2.8301,-2.8301,-2.8388,-2.89,-2.9006,-2.9565,-3.1774,-3.2028,-3.2504,-3.5114,-3.5379,-3.4969,-3.4483,-3.3415,-3.2141,-3.0768,-3.0212,-2.9684,-2.9,-2.9461,-3.0676,-3.2833,-3.4448,-3.5905,-3.7168,-3.8266,-3.7811,-3.5081,-3.1918,-2.9621,-2.8746,-2.8437,-2.8418,-2.8691,-2.8437,-2.8437,-2.875,-2.8457,-2.8437,-2.875,-2.8594,-2.8437,-2.8301,-2.8437,-2.8437]}]]